[[{"header":{"parameterUnit":"m.s-1","parameterCategory":1,"la1":31.0,"la2":29.5877,"lo1":-88.7671,"lo2":-86.6584,"dx":0.0162,"dy":0.0185,"nx":115,"ny":88,"refTime":"2023-02-13T18:00:00:Z","depth":0,"parameterNumber":2,"parameterNumberName":"U-component_of_WINDS"},"data":[0.0,0.0,0.0,0.0,0.0,0.0,0.0,0.0,0.0,0.0,0.0,0.0,0.0,0.0,0.0,0.0,0.0,0.0,0.0,0.0,0.0,0.0,0.0,0.0,0.0,0.0,0.0,0.0,0.0,0.0,0.0,0.0,0.0,0.0,0.0,0.0,0.0,0.0,0.0,0.0,0.0,0.0,0.0,0.0,0.0,0.0,0.0,0.0,0.0,0.0,0.0,0.0,0.0,0.0,0.0,0.0,0.0,0.0,0.0,0.0,0.0,0.0,0.0,0.0,0.0,0.0,0.0,0.0,0.0,0.0,0.0,0.0,0.0,0.0,0.0,0.0,0.0,0.0,0.0,0.0,0.0,0.0,0.0,0.0,0.0,0.0,0.0,0.0,0.0,0.0,0.0,0.0,0.0,0.0,0.0,0.0,0.0,0.0,0.0,0.0,0.0,0.0,0.0,0.0,0.0,0.0,0.0,0.0,0.0,0.0,0.0,0.0,0.0,0.0,0.0,0.0,0.0,0.0,0.0,0.0,0.0,0.0,0.0,0.0,0.0,0.0,0.0,0.0,0.0,0.0,0.0,0.0,0.0,0.0,0.0,0.0,0.0,0.0,0.0,0.0,0.0,0.0,0.0,0.0,0.0,0.0,0.0,0.0,0.0,0.0,0.0,0.0,0.0,0.0,0.0,0.0,0.0,0.0,0.0,0.0,0.0,0.0,0.0,0.0,0.0,0.0,0.0,0.0,0.0,0.0,0.0,0.0,0.0,0.0,0.0,0.0,0.0,0.0,0.0,0.0,0.0,0.0,0.0,0.0,0.0,0.0,0.0,0.0,0.0,0.0,0.0,0.0,0.0,0.0,0.0,0.0,0.0,0.0,0.0,0.0,0.0,0.0,0.0,0.0,0.0,0.0,0.0,0.0,0.0,0.0,0.0,0.0,0.0,0.0,0.0,0.0,0.0,0.0,0.0,0.0,0.0,0.0,0.0,0.0,0.0,0.0,0.0,0.0,0.0,0.0,0.0,0.0,0.0,0.0,0.0,0.0,0.0,0.0,0.0,0.0,0.0,0.0,0.0,0.0,0.0,0.0,0.0,0.0,0.0,0.0,0.0,0.0,0.0,0.0,0.0,0.0,0.0,0.0,0.0,0.0,0.0,0.0,0.0,0.0,0.0,0.0,0.0,0.0,0.0,0.0,0.0,0.0,0.0,0.0,0.0,0.0,0.0,0.0,0.0,0.0,0.0,0.0,0.0,0.0,0.0,0.0,0.0,0.0,0.0,0.0,0.0,0.0,0.0,0.0,0.0,0.0,0.0,0.0,0.0,0.0,0.0,0.0,0.0,0.0,0.0,0.0,0.0,0.0,0.0,0.0,0.0,0.0,0.0,0.0,0.0,0.0,0.0,0.0,0.0,0.0,0.0,0.0,0.0,0.0,0.0,0.0,0.0,0.0,0.0,0.0,0.0,0.0,0.0,0.0,0.0,0.0,0.0,0.0,0.0,0.0,0.0,0.0,0.0,0.0,0.0,0.0,0.0,0.0,0.0,0.0,0.0,0.0,0.0,0.0,0.0,0.0,0.0,0.0,0.0,0.0,0.0,0.0,0.0,0.0,0.0,0.0,0.0,0.0,0.0,0.0,0.0,0.0,0.0,0.0,0.0,0.0,0.0,0.0,0.0,0.0,0.0,0.0,0.0,0.0,0.0,0.0,0.0,0.0,0.0,0.0,0.0,0.0,0.0,0.0,0.0,0.0,0.0,0.0,0.0,0.0,0.0,0.0,0.0,0.0,0.0,0.0,0.0,0.0,0.0,0.0,0.0,0.0,0.0,0.0,0.0,0.0,0.0,0.0,0.0,0.0,0.0,0.0,0.0,0.0,0.0,0.0,0.0,0.0,0.0,0.0,0.0,0.0,0.0,0.0,0.0,0.0,0.0,0.0,0.0,0.0,0.0,0.0,0.0,0.0,0.0,0.0,0.0,0.0,0.0,0.0,0.0,0.0,0.0,0.0,0.0,0.0,0.0,0.0,0.0,0.0,0.0,0.0,0.0,0.0,0.0,0.0,0.0,0.0,0.0,0.0,0.0,0.0,0.0,0.0,0.0,0.0,0.0,0.0,0.0,0.0,0.0,0.0,0.0,0.0,0.0,0.0,0.0,0.0,0.0,0.0,0.0,0.0,0.0,0.0,0.0,0.0,0.0,0.0,0.0,0.0,0.0,0.0,0.0,0.0,0.0,0.0,0.0,0.0,0.0,0.0,0.0,0.0,0.0,0.0,0.0,0.0,0.0,0.0,0.0,0.0,0.0,0.0,0.0,0.0,0.0,0.0,0.0,0.0,0.0,0.0,0.0,0.0,0.0,0.0,0.0,0.0,0.0,0.0,0.0,0.0,0.0,0.0,0.0,0.0,0.0,0.0,0.0,0.0,0.0,0.0,0.0,0.0,0.0,0.0,0.0,0.0,0.0,0.0,0.0,0.0,0.0,0.0,0.0,0.0,0.0,0.0,0.0,0.0,0.0,0.0,0.0,0.0,0.0,0.0,0.0,0.0,0.0,0.0,0.0,0.0,0.0,0.0,0.0,0.0,0.0,0.0,0.0,0.0,0.0,0.0,0.0,0.0,0.0,0.0,0.0,0.0,0.0,0.0,0.0,0.0,0.0,0.0,0.0,0.0,0.0,0.0,0.0,0.0,0.0,0.0,0.0,0.0,0.0,0.0,0.0,0.0,0.0,0.0,0.0,0.0,0.0,0.0,0.0,0.0,0.0,0.0,0.0,0.0,0.0,0.0,0.0,0.0,0.0,0.0,0.0,0.0,0.0,0.0,0.0,0.0,0.0,0.0,0.0,0.0,0.0,0.0,0.0,0.0,0.0,0.0,0.0,0.0,0.0,0.0,0.0,0.0,0.0,0.0,0.0,0.0,0.0,0.0,0.0,0.0,0.0,0.0,0.0,0.0,0.0,0.0,0.0,0.0,0.0,0.0,0.0,0.0,0.0,0.0,0.0,0.0,0.0,0.0,0.0,0.0,0.0,0.0,0.0,0.0,0.0,0.0,0.0,0.0,0.0,0.0,0.0,0.0,0.0,0.0,0.0,0.0,0.0,0.0,0.0,0.0,0.0,0.0,0.0,0.0,0.0,0.0,0.0,0.0,0.0,0.0,0.0,0.0,0.0,0.0,0.0,0.0,0.0,0.0,0.0,0.0,0.0,0.0,0.0,0.0,0.0,0.0,0.0,0.0,0.0,0.0,0.0,0.0,0.0,0.0,0.0,0.0,0.0,0.0,0.0,0.0,0.0,0.0,0.0,0.0,0.0,0.0,0.0,0.0,0.0,0.0,0.0,0.0,0.0,0.0,0.0,0.0,0.0,0.0,0.0,0.0,0.0,0.0,0.0,0.0,0.0,0.0,0.0,0.0,0.0,0.0,0.0,0.0,0.0,0.0,0.0,0.0,0.0,0.0,0.0,0.0,0.0,0.0,0.0,0.0,0.0,0.0,0.0,0.0,0.0,0.0,0.0,0.0,0.0,0.0,0.0,0.0,0.0,0.0,0.0,0.0,0.0,0.0,0.0,0.0,0.0,0.0,0.0,0.0,0.0,0.0,0.0,0.0,0.0,0.0,0.0,0.0,0.0,0.0,0.0,0.0,0.0,0.0,0.0,0.0,0.0,0.0,0.0,0.0,0.0,0.0,0.0,0.0,0.0,0.0,0.0,0.0,0.0,0.0,0.0,0.0,0.0,0.0,0.0,0.0,0.0,0.0,0.0,0.0,0.0,0.0,0.0,0.0,0.0,0.0,0.0,0.0,0.0,0.0,0.0,0.0,0.0,0.0,0.0,0.0,0.0,0.0,0.0,0.0,0.0,0.0,0.0,0.0,0.0,0.0,0.0,0.0,0.0,0.0,0.0,0.0,0.0,0.0,0.0,0.0,0.0,0.0,0.0,0.0,0.0,0.0,0.0,0.0,0.0,0.0,0.0,0.0,0.0,0.0,0.0,0.0,0.0,0.0,0.0,0.0,0.0,0.0,0.0,0.0,0.0,0.0,0.0,0.0,0.0,0.0,0.0,0.0,0.0,0.0,0.0,0.0,0.0,0.0,0.0,0.0,0.0,0.0,0.0,0.0,0.0,0.0,0.0,0.0,0.0,0.0,0.0,0.0,0.0,0.0,0.0,0.0,0.0,0.0,0.0,0.0,0.0,0.0,0.0,0.0,0.0,0.0,0.0,0.0,0.0,0.0,0.0,0.0,0.0,0.0,0.0,0.0,0.0,0.0,-6.0708,0.0,0.0,0.0,0.0,0.0,0.0,0.0,0.0,0.0,0.0,0.0,0.0,0.0,0.0,0.0,0.0,0.0,0.0,0.0,0.0,0.0,0.0,0.0,0.0,0.0,0.0,0.0,0.0,0.0,0.0,0.0,0.0,0.0,0.0,0.0,0.0,0.0,0.0,0.0,0.0,0.0,0.0,0.0,0.0,0.0,0.0,0.0,0.0,0.0,0.0,0.0,0.0,0.0,0.0,0.0,0.0,0.0,0.0,0.0,0.0,0.0,0.0,0.0,0.0,0.0,0.0,0.0,0.0,0.0,0.0,0.0,0.0,0.0,0.0,0.0,0.0,0.0,0.0,0.0,0.0,0.0,0.0,0.0,0.0,0.0,0.0,0.0,0.0,0.0,0.0,0.0,0.0,0.0,0.0,0.0,0.0,0.0,0.0,0.0,0.0,0.0,0.0,0.0,0.0,0.0,0.0,0.0,0.0,0.0,0.0,-6.0712,-6.1066,-6.0851,-6.0536,-6.0128,0.0,0.0,0.0,0.0,0.0,0.0,0.0,0.0,0.0,0.0,0.0,0.0,0.0,0.0,0.0,0.0,0.0,0.0,0.0,0.0,0.0,0.0,0.0,0.0,0.0,0.0,0.0,0.0,0.0,0.0,0.0,0.0,0.0,0.0,0.0,0.0,0.0,0.0,0.0,0.0,0.0,0.0,0.0,0.0,0.0,0.0,0.0,0.0,0.0,0.0,0.0,0.0,0.0,0.0,0.0,0.0,0.0,0.0,0.0,0.0,0.0,0.0,0.0,0.0,0.0,0.0,0.0,0.0,0.0,0.0,0.0,0.0,0.0,0.0,0.0,0.0,0.0,0.0,0.0,0.0,0.0,0.0,0.0,0.0,0.0,0.0,0.0,0.0,0.0,0.0,0.0,0.0,0.0,0.0,0.0,0.0,0.0,0.0,0.0,0.0,0.0,0.0,0.0,0.0,0.0,0.0,0.0,0.0,0.0,0.0,0.0,0.0,-6.0269,-5.9886,-5.9377,0.0,0.0,0.0,0.0,0.0,0.0,0.0,0.0,0.0,0.0,0.0,0.0,0.0,0.0,0.0,0.0,0.0,0.0,0.0,0.0,0.0,0.0,0.0,0.0,0.0,0.0,0.0,0.0,0.0,0.0,0.0,0.0,0.0,0.0,0.0,0.0,0.0,0.0,0.0,0.0,0.0,0.0,0.0,0.0,0.0,0.0,0.0,0.0,0.0,0.0,0.0,0.0,0.0,0.0,0.0,0.0,0.0,0.0,0.0,0.0,0.0,0.0,0.0,0.0,0.0,0.0,0.0,0.0,0.0,0.0,0.0,0.0,0.0,0.0,0.0,0.0,0.0,0.0,0.0,0.0,0.0,0.0,0.0,0.0,0.0,0.0,0.0,0.0,0.0,0.0,0.0,0.0,0.0,0.0,0.0,0.0,0.0,0.0,0.0,0.0,0.0,0.0,0.0,0.0,0.0,0.0,0.0,0.0,0.0,0.0,-5.9779,-6.0531,-5.9298,0.0,-5.8625,0.0,0.0,0.0,0.0,0.0,0.0,0.0,0.0,0.0,0.0,0.0,0.0,0.0,0.0,0.0,0.0,0.0,0.0,0.0,0.0,0.0,0.0,0.0,0.0,0.0,0.0,0.0,0.0,0.0,0.0,0.0,0.0,0.0,0.0,0.0,0.0,0.0,0.0,0.0,0.0,0.0,0.0,0.0,0.0,0.0,0.0,0.0,0.0,0.0,0.0,0.0,0.0,0.0,0.0,0.0,0.0,0.0,0.0,0.0,0.0,0.0,0.0,0.0,0.0,0.0,0.0,0.0,0.0,0.0,0.0,0.0,0.0,0.0,0.0,0.0,0.0,0.0,0.0,0.0,0.0,0.0,0.0,0.0,0.0,0.0,0.0,0.0,0.0,0.0,0.0,0.0,0.0,0.0,0.0,0.0,0.0,0.0,0.0,0.0,0.0,0.0,0.0,0.0,0.0,0.0,0.0,0.0,0.0,0.0,0.0,-5.8855,-5.9298,-5.8747,-5.8475,0.0,0.0,0.0,0.0,0.0,0.0,0.0,0.0,0.0,0.0,0.0,0.0,0.0,0.0,0.0,0.0,0.0,0.0,0.0,0.0,0.0,0.0,0.0,0.0,0.0,0.0,0.0,0.0,0.0,0.0,0.0,0.0,0.0,0.0,0.0,0.0,0.0,0.0,0.0,0.0,0.0,0.0,0.0,0.0,0.0,0.0,0.0,0.0,0.0,0.0,0.0,0.0,0.0,0.0,0.0,0.0,0.0,0.0,0.0,0.0,0.0,0.0,0.0,0.0,0.0,0.0,0.0,0.0,0.0,0.0,0.0,0.0,0.0,0.0,0.0,0.0,0.0,0.0,0.0,0.0,0.0,0.0,0.0,0.0,0.0,0.0,0.0,0.0,0.0,0.0,0.0,0.0,0.0,0.0,0.0,0.0,0.0,0.0,0.0,0.0,0.0,0.0,0.0,0.0,0.0,0.0,0.0,0.0,0.0,0.0,-5.8322,-5.8045,-5.8088,-5.8368,-5.849,-5.8525,0.0,0.0,0.0,0.0,0.0,0.0,0.0,0.0,0.0,0.0,0.0,0.0,0.0,0.0,0.0,0.0,0.0,0.0,0.0,0.0,0.0,0.0,0.0,0.0,0.0,0.0,0.0,0.0,0.0,0.0,0.0,0.0,0.0,0.0,0.0,0.0,0.0,0.0,0.0,0.0,0.0,0.0,0.0,0.0,0.0,0.0,0.0,0.0,0.0,0.0,0.0,0.0,0.0,0.0,0.0,0.0,0.0,0.0,0.0,0.0,0.0,0.0,0.0,0.0,0.0,0.0,0.0,0.0,0.0,0.0,0.0,0.0,0.0,0.0,0.0,0.0,0.0,0.0,0.0,0.0,0.0,0.0,0.0,0.0,0.0,0.0,0.0,0.0,0.0,0.0,0.0,0.0,0.0,0.0,0.0,0.0,0.0,0.0,0.0,0.0,0.0,0.0,0.0,0.0,0.0,0.0,0.0,0.0,-5.8248,-5.7763,-5.7475,-5.739,-5.8097,-5.849,0.0,0.0,0.0,0.0,0.0,0.0,0.0,0.0,0.0,0.0,0.0,0.0,0.0,0.0,0.0,0.0,0.0,0.0,0.0,0.0,0.0,0.0,0.0,0.0,0.0,0.0,0.0,0.0,0.0,0.0,0.0,0.0,0.0,0.0,0.0,0.0,0.0,0.0,0.0,0.0,0.0,0.0,0.0,0.0,0.0,0.0,0.0,0.0,0.0,0.0,0.0,0.0,0.0,0.0,0.0,0.0,0.0,0.0,0.0,0.0,0.0,0.0,0.0,0.0,0.0,0.0,0.0,0.0,0.0,0.0,0.0,0.0,0.0,0.0,0.0,0.0,0.0,0.0,0.0,0.0,0.0,0.0,0.0,0.0,0.0,0.0,0.0,0.0,0.0,0.0,0.0,0.0,0.0,0.0,0.0,0.0,0.0,0.0,0.0,0.0,0.0,0.0,0.0,0.0,0.0,0.0,0.0,0.0,0.0,-5.7527,-5.7403,-5.733,-5.7327,-5.8063,-5.8526,0.0,0.0,0.0,0.0,0.0,0.0,0.0,0.0,0.0,0.0,0.0,0.0,0.0,0.0,0.0,0.0,0.0,0.0,0.0,0.0,0.0,0.0,0.0,0.0,0.0,0.0,0.0,0.0,0.0,0.0,0.0,0.0,0.0,0.0,0.0,0.0,0.0,0.0,0.0,0.0,0.0,0.0,0.0,0.0,0.0,0.0,0.0,0.0,0.0,0.0,0.0,0.0,0.0,0.0,0.0,0.0,0.0,0.0,0.0,0.0,0.0,0.0,0.0,0.0,0.0,0.0,0.0,0.0,0.0,0.0,0.0,0.0,0.0,0.0,0.0,0.0,0.0,0.0,0.0,0.0,0.0,0.0,0.0,0.0,0.0,0.0,0.0,0.0,0.0,0.0,0.0,0.0,0.0,0.0,0.0,0.0,0.0,0.0,0.0,0.0,0.0,0.0,0.0,0.0,0.0,0.0,0.0,0.0,0.0,-5.7336,0.0,-5.7892,-5.7696,-5.8436,-5.88,0.0,0.0,0.0,0.0,0.0,0.0,0.0,0.0,0.0,0.0,0.0,0.0,0.0,0.0,0.0,0.0,0.0,0.0,0.0,0.0,0.0,0.0,0.0,0.0,0.0,0.0,0.0,0.0,0.0,0.0,0.0,0.0,0.0,0.0,0.0,0.0,0.0,0.0,0.0,0.0,0.0,0.0,0.0,0.0,0.0,0.0,0.0,0.0,0.0,0.0,0.0,0.0,0.0,0.0,0.0,0.0,0.0,0.0,0.0,0.0,0.0,0.0,0.0,0.0,0.0,0.0,0.0,0.0,0.0,0.0,0.0,0.0,0.0,0.0,0.0,0.0,0.0,0.0,0.0,0.0,0.0,0.0,0.0,0.0,0.0,0.0,0.0,0.0,0.0,0.0,0.0,0.0,0.0,0.0,0.0,0.0,0.0,0.0,0.0,0.0,0.0,0.0,0.0,0.0,0.0,0.0,0.0,0.0,-5.8084,-5.7873,-5.8897,-5.9059,-5.8461,-5.918,-5.9347,0.0,0.0,0.0,0.0,0.0,0.0,0.0,0.0,0.0,0.0,0.0,0.0,0.0,0.0,0.0,0.0,0.0,0.0,0.0,0.0,0.0,0.0,0.0,0.0,0.0,0.0,0.0,0.0,0.0,0.0,0.0,0.0,0.0,0.0,0.0,0.0,0.0,0.0,0.0,0.0,0.0,0.0,0.0,0.0,0.0,0.0,0.0,0.0,0.0,0.0,0.0,0.0,0.0,0.0,0.0,0.0,0.0,0.0,0.0,0.0,0.0,0.0,0.0,0.0,0.0,0.0,0.0,0.0,0.0,0.0,0.0,0.0,0.0,0.0,0.0,0.0,0.0,0.0,0.0,0.0,0.0,0.0,0.0,0.0,0.0,0.0,0.0,0.0,0.0,0.0,0.0,0.0,0.0,0.0,0.0,0.0,0.0,0.0,0.0,0.0,0.0,0.0,0.0,0.0,0.0,0.0,0.0,0.0,0.0,-5.8601,-5.9046,-5.9276,-5.9198,-5.9814,-5.9955,0.0,0.0,0.0,0.0,0.0,0.0,0.0,0.0,0.0,0.0,0.0,0.0,0.0,0.0,0.0,0.0,0.0,0.0,0.0,0.0,0.0,0.0,0.0,0.0,0.0,0.0,0.0,0.0,0.0,0.0,0.0,0.0,0.0,0.0,0.0,0.0,0.0,0.0,0.0,0.0,0.0,0.0,0.0,0.0,0.0,0.0,0.0,0.0,0.0,0.0,0.0,0.0,0.0,0.0,0.0,0.0,0.0,0.0,0.0,0.0,0.0,0.0,0.0,0.0,0.0,0.0,0.0,0.0,0.0,0.0,0.0,0.0,0.0,0.0,0.0,0.0,0.0,0.0,0.0,0.0,0.0,0.0,0.0,0.0,0.0,0.0,0.0,0.0,0.0,0.0,0.0,0.0,0.0,0.0,0.0,0.0,0.0,0.0,0.0,0.0,0.0,0.0,0.0,0.0,0.0,0.0,0.0,0.0,0.0,-6.0002,-6.0289,-6.0365,-6.0297,-6.0888,-6.0941,-6.035,0.0,0.0,0.0,0.0,0.0,0.0,0.0,0.0,0.0,0.0,0.0,0.0,0.0,0.0,0.0,0.0,0.0,0.0,0.0,0.0,0.0,0.0,0.0,0.0,0.0,0.0,0.0,0.0,0.0,0.0,0.0,0.0,0.0,0.0,0.0,0.0,0.0,0.0,0.0,0.0,0.0,0.0,0.0,0.0,0.0,0.0,0.0,0.0,0.0,0.0,0.0,0.0,0.0,0.0,0.0,0.0,0.0,0.0,0.0,0.0,0.0,0.0,0.0,0.0,0.0,0.0,0.0,0.0,0.0,0.0,0.0,0.0,0.0,0.0,0.0,0.0,0.0,0.0,0.0,0.0,0.0,0.0,0.0,0.0,0.0,0.0,0.0,0.0,0.0,0.0,0.0,0.0,0.0,0.0,0.0,0.0,0.0,0.0,0.0,0.0,0.0,0.0,0.0,0.0,0.0,0.0,0.0,0.0,-6.1959,-6.2429,-6.2399,-6.1877,-6.2302,-6.2165,0.0,0.0,0.0,0.0,0.0,0.0,0.0,0.0,0.0,0.0,0.0,0.0,0.0,0.0,0.0,0.0,0.0,0.0,0.0,0.0,0.0,0.0,0.0,0.0,0.0,0.0,0.0,0.0,0.0,0.0,0.0,0.0,0.0,0.0,0.0,0.0,0.0,0.0,0.0,0.0,0.0,0.0,0.0,0.0,0.0,0.0,0.0,0.0,0.0,0.0,0.0,0.0,0.0,0.0,0.0,0.0,0.0,0.0,0.0,0.0,0.0,0.0,0.0,0.0,0.0,0.0,0.0,0.0,0.0,0.0,0.0,0.0,0.0,0.0,0.0,0.0,0.0,0.0,0.0,0.0,0.0,0.0,0.0,0.0,0.0,0.0,0.0,0.0,0.0,0.0,0.0,0.0,0.0,0.0,0.0,0.0,0.0,0.0,0.0,0.0,0.0,0.0,0.0,0.0,0.0,0.0,0.0,0.0,0.0,-6.3875,-6.4243,-6.4055,-6.3342,-6.3107,-6.2798,0.0,0.0,0.0,0.0,0.0,0.0,0.0,0.0,0.0,0.0,0.0,0.0,0.0,0.0,0.0,0.0,0.0,0.0,0.0,0.0,0.0,0.0,0.0,0.0,0.0,0.0,0.0,0.0,0.0,0.0,0.0,0.0,0.0,0.0,0.0,0.0,0.0,0.0,0.0,0.0,0.0,0.0,0.0,0.0,0.0,0.0,0.0,0.0,0.0,0.0,0.0,0.0,0.0,0.0,0.0,0.0,0.0,0.0,0.0,0.0,0.0,0.0,0.0,0.0,0.0,0.0,0.0,0.0,0.0,0.0,0.0,0.0,0.0,0.0,0.0,0.0,0.0,0.0,0.0,0.0,0.0,0.0,0.0,0.0,0.0,0.0,0.0,0.0,0.0,0.0,0.0,0.0,0.0,0.0,0.0,0.0,0.0,0.0,0.0,0.0,0.0,0.0,0.0,0.0,0.0,0.0,0.0,0.0,-6.304,-6.4852,-6.5646,-6.5955,-6.5751,-6.4934,-6.4167,0.0,0.0,0.0,0.0,0.0,0.0,0.0,0.0,0.0,0.0,0.0,0.0,0.0,0.0,0.0,0.0,0.0,0.0,0.0,0.0,0.0,0.0,0.0,0.0,0.0,0.0,0.0,0.0,0.0,0.0,0.0,0.0,0.0,0.0,0.0,0.0,0.0,0.0,0.0,0.0,0.0,0.0,0.0,0.0,0.0,0.0,0.0,0.0,0.0,0.0,0.0,0.0,0.0,0.0,0.0,0.0,0.0,0.0,0.0,0.0,0.0,0.0,0.0,0.0,0.0,0.0,0.0,0.0,0.0,0.0,0.0,0.0,0.0,0.0,0.0,0.0,0.0,0.0,0.0,0.0,0.0,0.0,0.0,0.0,0.0,0.0,0.0,0.0,0.0,0.0,0.0,0.0,0.0,0.0,0.0,0.0,0.0,0.0,0.0,0.0,0.0,0.0,0.0,0.0,0.0,0.0,0.0,0.0,-6.415,-6.5342,-6.6694,-6.7711,-6.8327,-6.7107,-6.5714,0.0,0.0,0.0,0.0,0.0,0.0,0.0,0.0,0.0,0.0,0.0,0.0,0.0,0.0,0.0,0.0,0.0,0.0,0.0,0.0,0.0,0.0,0.0,0.0,0.0,0.0,0.0,0.0,0.0,0.0,0.0,0.0,0.0,0.0,0.0,0.0,0.0,0.0,0.0,0.0,0.0,0.0,0.0,0.0,0.0,0.0,0.0,0.0,0.0,0.0,0.0,0.0,0.0,0.0,0.0,0.0,0.0,0.0,0.0,0.0,0.0,0.0,0.0,0.0,0.0,0.0,0.0,0.0,0.0,0.0,0.0,0.0,0.0,0.0,0.0,0.0,0.0,0.0,0.0,0.0,0.0,0.0,0.0,0.0,0.0,0.0,0.0,0.0,0.0,0.0,0.0,0.0,0.0,0.0,0.0,0.0,0.0,0.0,0.0,0.0,0.0,0.0,0.0,0.0,0.0,0.0,0.0,0.0,-6.4642,-6.6746,-6.7636,-6.844,-6.9131,-6.72,-6.6053,0.0,0.0,0.0,0.0,0.0,0.0,0.0,0.0,0.0,0.0,0.0,0.0,0.0,0.0,0.0,0.0,0.0,0.0,0.0,0.0,0.0,0.0,0.0,0.0,0.0,0.0,0.0,0.0,0.0,0.0,0.0,0.0,0.0,0.0,0.0,0.0,0.0,0.0,0.0,0.0,0.0,0.0,0.0,0.0,0.0,0.0,0.0,0.0,-7.1068,0.0,0.0,0.0,0.0,0.0,0.0,0.0,0.0,0.0,0.0,0.0,0.0,0.0,0.0,0.0,0.0,0.0,0.0,0.0,0.0,0.0,0.0,0.0,0.0,0.0,0.0,0.0,0.0,0.0,0.0,0.0,0.0,0.0,0.0,0.0,0.0,0.0,0.0,0.0,0.0,0.0,0.0,0.0,0.0,0.0,0.0,0.0,0.0,0.0,0.0,0.0,0.0,0.0,0.0,0.0,0.0,0.0,0.0,0.0,-6.5771,-6.7427,-6.8484,-6.9296,-6.98,-6.8194,-6.6981,0.0,0.0,0.0,0.0,0.0,0.0,0.0,0.0,0.0,0.0,0.0,0.0,0.0,0.0,0.0,0.0,0.0,0.0,0.0,0.0,0.0,0.0,0.0,0.0,0.0,0.0,0.0,0.0,0.0,0.0,0.0,0.0,0.0,0.0,0.0,0.0,0.0,0.0,0.0,0.0,0.0,0.0,0.0,0.0,0.0,0.0,0.0,0.0,0.0,0.0,0.0,0.0,0.0,0.0,0.0,0.0,0.0,0.0,0.0,0.0,0.0,0.0,0.0,0.0,0.0,0.0,0.0,0.0,0.0,0.0,0.0,0.0,0.0,0.0,0.0,0.0,0.0,0.0,0.0,0.0,0.0,0.0,0.0,0.0,0.0,0.0,0.0,0.0,0.0,0.0,0.0,0.0,0.0,0.0,0.0,0.0,0.0,0.0,0.0,0.0,0.0,0.0,0.0,0.0,0.0,0.0,0.0,-6.5324,-6.6949,-6.7857,-6.915,-7.0082,-7.0515,-6.9346,-6.7996,-6.6587,0.0,0.0,0.0,0.0,0.0,0.0,0.0,0.0,0.0,0.0,0.0,0.0,0.0,0.0,0.0,0.0,0.0,0.0,0.0,0.0,0.0,0.0,0.0,0.0,0.0,0.0,0.0,0.0,0.0,0.0,0.0,0.0,0.0,0.0,0.0,0.0,0.0,0.0,-6.9947,-7.1024,0.0,0.0,0.0,0.0,0.0,0.0,0.0,0.0,-7.379,0.0,0.0,0.0,0.0,0.0,0.0,0.0,0.0,0.0,0.0,0.0,0.0,0.0,0.0,0.0,0.0,0.0,0.0,0.0,0.0,0.0,0.0,0.0,0.0,0.0,0.0,0.0,0.0,0.0,0.0,0.0,0.0,0.0,0.0,0.0,0.0,0.0,0.0,0.0,0.0,0.0,0.0,0.0,0.0,0.0,0.0,0.0,0.0,0.0,0.0,0.0,0.0,0.0,0.0,0.0,0.0,-6.4123,-6.5724,-6.7273,-6.8831,-6.9696,-7.0363,-7.0791,-6.9602,-6.8481,-6.7507,0.0,0.0,0.0,0.0,0.0,0.0,0.0,0.0,0.0,0.0,0.0,0.0,0.0,0.0,0.0,0.0,0.0,0.0,0.0,0.0,0.0,0.0,0.0,0.0,0.0,0.0,0.0,0.0,0.0,0.0,0.0,0.0,0.0,0.0,0.0,0.0,0.0,0.0,0.0,-7.206,-7.2876,0.0,0.0,0.0,0.0,0.0,0.0,0.0,0.0,-7.3748,0.0,0.0,0.0,0.0,0.0,0.0,0.0,0.0,0.0,0.0,0.0,0.0,0.0,0.0,0.0,0.0,0.0,0.0,0.0,0.0,0.0,0.0,0.0,0.0,0.0,0.0,0.0,0.0,0.0,0.0,0.0,0.0,0.0,0.0,0.0,0.0,0.0,0.0,0.0,0.0,0.0,0.0,0.0,0.0,0.0,0.0,0.0,0.0,0.0,0.0,0.0,0.0,0.0,0.0,0.0,-6.4714,-6.6512,-6.8023,-6.9261,-6.9962,-7.0595,-7.1064,-6.9833,-6.8769,0.0,0.0,0.0,0.0,0.0,0.0,0.0,0.0,0.0,0.0,0.0,0.0,0.0,0.0,0.0,0.0,0.0,0.0,0.0,0.0,0.0,0.0,0.0,0.0,0.0,0.0,0.0,0.0,0.0,0.0,0.0,0.0,0.0,0.0,0.0,0.0,0.0,0.0,0.0,0.0,-7.3021,-7.3861,-7.4411,0.0,0.0,0.0,0.0,0.0,0.0,-7.5041,-7.5115,0.0,0.0,0.0,0.0,0.0,0.0,0.0,0.0,0.0,0.0,0.0,0.0,0.0,0.0,0.0,0.0,0.0,0.0,0.0,0.0,0.0,0.0,0.0,0.0,0.0,0.0,0.0,0.0,0.0,0.0,0.0,0.0,0.0,0.0,0.0,0.0,0.0,0.0,0.0,0.0,0.0,0.0,0.0,0.0,0.0,0.0,0.0,0.0,0.0,0.0,0.0,0.0,0.0,0.0,0.0,-6.545,-6.729,-6.8774,-6.9769,-7.0293,-7.0837,-7.13,-7.0095,-6.9013,0.0,0.0,0.0,0.0,0.0,0.0,0.0,0.0,0.0,0.0,0.0,0.0,0.0,0.0,0.0,0.0,0.0,0.0,0.0,0.0,0.0,0.0,0.0,0.0,0.0,0.0,0.0,0.0,0.0,0.0,0.0,0.0,0.0,0.0,0.0,0.0,0.0,0.0,0.0,0.0,0.0,-7.513,-7.5862,-7.6271,0.0,0.0,0.0,0.0,-7.6591,-7.6584,0.0,0.0,0.0,0.0,0.0,0.0,0.0,0.0,0.0,0.0,0.0,0.0,0.0,0.0,0.0,0.0,0.0,0.0,0.0,0.0,0.0,0.0,0.0,0.0,0.0,0.0,0.0,0.0,0.0,0.0,0.0,0.0,0.0,0.0,0.0,0.0,0.0,0.0,0.0,0.0,0.0,0.0,0.0,0.0,0.0,0.0,0.0,0.0,0.0,0.0,0.0,0.0,0.0,0.0,0.0,0.0,-6.6899,-6.787,-6.9099,-7.0669,-7.0837,-7.1064,-7.1522,-7.0311,-6.9262,0.0,0.0,0.0,0.0,0.0,0.0,0.0,0.0,0.0,0.0,0.0,0.0,0.0,0.0,0.0,0.0,0.0,0.0,0.0,0.0,0.0,0.0,0.0,0.0,0.0,0.0,0.0,0.0,0.0,0.0,0.0,0.0,0.0,0.0,0.0,0.0,0.0,0.0,0.0,0.0,0.0,-7.676,-7.6901,-7.7647,-7.8222,0.0,0.0,-7.8252,-7.831,-7.7778,0.0,0.0,0.0,0.0,0.0,0.0,0.0,0.0,0.0,0.0,0.0,0.0,0.0,0.0,0.0,0.0,0.0,0.0,0.0,0.0,0.0,0.0,0.0,0.0,0.0,0.0,0.0,0.0,0.0,0.0,0.0,0.0,0.0,0.0,0.0,0.0,0.0,0.0,0.0,0.0,0.0,0.0,0.0,0.0,0.0,0.0,0.0,0.0,0.0,0.0,0.0,0.0,0.0,0.0,0.0,-6.5245,-6.7526,-6.8368,-6.9524,-7.1064,-7.1131,-7.1323,-7.1776,-7.0431,-6.955,0.0,0.0,0.0,0.0,0.0,0.0,0.0,0.0,0.0,0.0,0.0,0.0,0.0,0.0,0.0,0.0,0.0,0.0,0.0,0.0,0.0,0.0,0.0,0.0,0.0,0.0,0.0,0.0,0.0,0.0,0.0,0.0,0.0,0.0,0.0,0.0,0.0,0.0,0.0,0.0,0.0,0.0,-7.707,-7.7931,0.0,0.0,0.0,-7.8507,-7.858,0.0,0.0,0.0,0.0,0.0,0.0,0.0,0.0,0.0,0.0,0.0,0.0,0.0,0.0,0.0,0.0,0.0,0.0,0.0,0.0,0.0,0.0,0.0,0.0,0.0,0.0,0.0,0.0,0.0,0.0,0.0,0.0,0.0,0.0,0.0,0.0,0.0,0.0,0.0,0.0,0.0,0.0,0.0,0.0,0.0,0.0,0.0,0.0,0.0,0.0,0.0,0.0,0.0,0.0,0.0,0.0,0.0,-6.8217,-6.8861,-6.9867,-7.1244,-7.1356,-7.158,-7.1951,-7.0593,0.0,0.0,0.0,0.0,0.0,0.0,0.0,0.0,0.0,0.0,0.0,0.0,0.0,0.0,0.0,0.0,0.0,0.0,0.0,0.0,0.0,0.0,0.0,0.0,0.0,0.0,0.0,-6.7979,0.0,0.0,0.0,0.0,0.0,0.0,0.0,0.0,0.0,0.0,0.0,0.0,0.0,0.0,-7.7508,-7.7731,-7.8562,-7.9169,0.0,0.0,-7.9191,-7.9249,-7.8486,-7.7859,0.0,0.0,0.0,0.0,0.0,0.0,0.0,0.0,0.0,0.0,0.0,0.0,0.0,0.0,0.0,0.0,0.0,0.0,0.0,0.0,0.0,0.0,0.0,0.0,0.0,0.0,0.0,0.0,0.0,0.0,0.0,0.0,0.0,0.0,0.0,0.0,0.0,0.0,0.0,0.0,0.0,0.0,0.0,0.0,0.0,0.0,0.0,0.0,0.0,0.0,0.0,0.0,0.0,0.0,-6.6323,-6.9178,-6.9347,-7.0008,-7.1244,-7.1501,-7.1688,-7.1985,-7.0762,-7.0043,0.0,0.0,0.0,0.0,0.0,0.0,0.0,0.0,0.0,0.0,0.0,0.0,0.0,0.0,0.0,0.0,0.0,0.0,0.0,0.0,0.0,0.0,0.0,0.0,0.0,0.0,0.0,0.0,0.0,0.0,0.0,0.0,0.0,0.0,0.0,0.0,0.0,0.0,0.0,0.0,0.0,-7.8615,-7.95,-8.0362,-8.09,0.0,-8.0962,-8.1007,-8.1022,-7.9748,-7.8812,-7.8812,0.0,0.0,0.0,0.0,0.0,0.0,0.0,0.0,0.0,0.0,0.0,0.0,0.0,0.0,0.0,0.0,0.0,0.0,0.0,0.0,0.0,0.0,0.0,0.0,0.0,0.0,0.0,0.0,0.0,0.0,0.0,0.0,0.0,0.0,0.0,0.0,0.0,0.0,0.0,0.0,0.0,0.0,0.0,0.0,0.0,0.0,0.0,0.0,0.0,0.0,0.0,0.0,0.0,-6.6562,-6.9493,-6.9186,-6.977,-7.1399,-7.159,-7.18,-7.1985,-7.1208,-7.0733,0.0,0.0,0.0,0.0,0.0,0.0,0.0,0.0,0.0,0.0,0.0,0.0,0.0,0.0,0.0,0.0,0.0,0.0,0.0,0.0,0.0,0.0,0.0,0.0,0.0,0.0,0.0,0.0,-7.104,-7.1379,-7.1398,0.0,0.0,0.0,0.0,0.0,0.0,0.0,0.0,0.0,0.0,-7.8792,-7.9654,-8.0554,0.0,0.0,-8.1199,-8.1205,-8.1344,-7.997,-7.8902,-7.894,-7.7546,0.0,0.0,0.0,0.0,0.0,0.0,0.0,0.0,0.0,0.0,0.0,0.0,0.0,0.0,0.0,0.0,0.0,0.0,0.0,0.0,0.0,0.0,0.0,0.0,0.0,0.0,0.0,0.0,0.0,0.0,0.0,0.0,0.0,0.0,0.0,0.0,0.0,0.0,0.0,0.0,0.0,0.0,0.0,0.0,0.0,0.0,0.0,0.0,0.0,0.0,0.0,0.0,-6.6804,-6.978,-6.928,-6.9823,-7.1566,-7.1722,-7.181,-7.1985,-7.161,-7.1373,0.0,0.0,0.0,0.0,0.0,0.0,0.0,0.0,0.0,0.0,0.0,0.0,0.0,0.0,0.0,0.0,0.0,0.0,0.0,0.0,0.0,0.0,0.0,0.0,0.0,0.0,0.0,0.0,-7.2165,-7.2549,-7.2016,0.0,0.0,0.0,0.0,0.0,0.0,0.0,0.0,0.0,0.0,-7.89,-8.0015,-8.0723,-8.1154,-8.1199,-8.1258,-8.1316,-8.1387,-8.0216,-7.9327,-7.9364,0.0,0.0,0.0,0.0,0.0,0.0,0.0,0.0,0.0,0.0,0.0,0.0,0.0,0.0,0.0,0.0,0.0,0.0,0.0,0.0,0.0,0.0,0.0,0.0,0.0,0.0,0.0,-5.0093,0.0,0.0,-5.1869,0.0,0.0,0.0,0.0,0.0,0.0,0.0,0.0,0.0,0.0,0.0,0.0,0.0,0.0,0.0,0.0,0.0,0.0,0.0,0.0,0.0,0.0,-6.7078,-6.9989,-6.9814,-7.032,-7.1576,-7.1854,-7.2019,-7.2029,-7.1904,-7.2018,-7.2116,0.0,0.0,0.0,0.0,0.0,0.0,0.0,0.0,0.0,0.0,0.0,0.0,0.0,0.0,0.0,0.0,0.0,0.0,0.0,0.0,0.0,0.0,0.0,0.0,0.0,0.0,-7.2928,-7.4119,-7.4538,0.0,0.0,0.0,0.0,0.0,0.0,0.0,0.0,0.0,-7.813,-7.8477,-7.9131,-8.0785,-8.1116,-8.1214,-8.1214,-8.1305,-8.1387,-8.14,-8.068,-8.0188,0.0,0.0,0.0,0.0,0.0,0.0,0.0,0.0,0.0,0.0,0.0,0.0,0.0,0.0,0.0,0.0,0.0,0.0,0.0,0.0,0.0,0.0,0.0,0.0,0.0,0.0,0.0,-5.0276,-5.081,0.0,0.0,0.0,0.0,0.0,0.0,0.0,0.0,0.0,0.0,0.0,-5.9453,-6.0247,0.0,0.0,0.0,0.0,0.0,0.0,0.0,0.0,0.0,0.0,0.0,0.0,-6.7758,-7.0168,-7.056,-7.1156,-7.2047,-7.2339,-7.2382,-7.2202,-7.2471,-7.2423,-7.2041,0.0,0.0,0.0,0.0,0.0,0.0,0.0,0.0,0.0,0.0,0.0,0.0,0.0,0.0,0.0,0.0,0.0,0.0,0.0,0.0,0.0,0.0,0.0,0.0,0.0,-7.3047,0.0,0.0,0.0,0.0,0.0,0.0,0.0,0.0,0.0,0.0,-7.5692,-7.6938,-7.8323,-7.8977,-7.98,-8.1015,-8.1199,-8.1244,0.0,0.0,0.0,0.0,0.0,0.0,0.0,0.0,0.0,0.0,0.0,0.0,0.0,0.0,-7.7486,-7.7571,-7.7624,-7.7665,-7.7672,0.0,0.0,0.0,0.0,0.0,0.0,0.0,0.0,0.0,0.0,0.0,0.0,0.0,0.0,-5.1028,-5.1349,-5.1831,0.0,0.0,0.0,0.0,0.0,0.0,0.0,0.0,-5.9468,-6.0309,-6.0951,-6.1769,-6.208,-6.2058,-6.2924,-6.311,0.0,0.0,0.0,0.0,0.0,0.0,0.0,0.0,-6.8118,-7.0291,-7.0685,-7.1282,-7.2262,-7.2468,-7.2554,-7.2459,-7.2963,-7.2983,-7.2421,-7.1334,-7.0521,0.0,0.0,0.0,0.0,0.0,0.0,0.0,0.0,0.0,0.0,0.0,0.0,0.0,0.0,0.0,0.0,0.0,0.0,0.0,0.0,0.0,0.0,0.0,-7.3872,0.0,0.0,0.0,0.0,0.0,0.0,0.0,0.0,0.0,-7.5592,-7.6592,-7.7707,-7.8823,-7.9454,-8.0153,-8.1084,0.0,0.0,0.0,0.0,0.0,0.0,0.0,-8.1117,-8.1117,-8.0923,-8.0769,-8.0769,-8.0767,-8.0826,-8.0866,0.0,0.0,-7.9902,-7.9809,-7.9944,-8.024,-8.0422,-8.0495,-8.051,-8.0534,-8.0609,0.0,0.0,0.0,0.0,-4.9141,0.0,0.0,0.0,-5.1512,-5.1596,0.0,-5.2366,0.0,0.0,0.0,0.0,-5.5961,-5.6652,0.0,0.0,-6.0297,-6.1057,-6.1723,-6.2295,-6.2798,-6.3379,-6.3951,-6.4512,-6.5098,-6.4412,-6.3892,0.0,0.0,0.0,0.0,0.0,-6.8118,-7.0291,-7.0223,-7.0854,-7.2262,-7.2331,-7.2459,-7.2713,-7.3334,-7.3624,-7.335,-7.2611,-7.1873,-7.1057,-7.0228,0.0,0.0,0.0,0.0,0.0,0.0,0.0,0.0,0.0,0.0,0.0,0.0,0.0,0.0,0.0,0.0,0.0,0.0,0.0,0.0,-7.3973,0.0,0.0,0.0,0.0,0.0,0.0,0.0,0.0,0.0,-7.7323,-7.7438,-7.7438,-7.7977,-7.9592,0.0,0.0,0.0,0.0,-8.1439,-8.1478,-8.153,-8.1581,-8.1607,-8.2316,-8.2819,-8.2819,0.0,0.0,-8.4057,-8.4057,-8.403,-8.415,-8.4017,-8.348,-8.1213,-8.0923,-8.1135,-8.1913,-8.2188,-8.2265,-8.2313,-8.2323,-8.2359,-4.8661,0.0,0.0,0.0,0.0,-5.0695,-5.1274,-5.1623,-5.1948,-5.2375,-5.2862,-5.3049,0.0,0.0,0.0,0.0,0.0,0.0,-5.9127,-6.0312,-6.1655,-6.2725,-6.3416,-6.4009,-6.4565,-6.5258,-6.5541,-6.5822,-6.6151,-6.6371,-6.6371,-6.6209,0.0,0.0,0.0,0.0,-6.8635,-7.0291,-7.0353,-7.107,-7.2552,-7.2586,-7.2755,-7.3094,-7.3617,-7.3741,-7.3423,-7.2757,-7.2228,-7.1848,-7.0515,0.0,0.0,0.0,0.0,0.0,0.0,0.0,0.0,0.0,0.0,0.0,0.0,0.0,0.0,0.0,0.0,0.0,0.0,0.0,-7.4824,-7.5758,-7.6381,0.0,0.0,0.0,0.0,0.0,0.0,0.0,0.0,0.0,-7.9785,-7.9477,-7.9246,0.0,0.0,-8.0921,-8.1249,-8.1887,-8.2354,-8.2394,-8.2922,0.0,-8.336,-8.3554,-8.3708,-8.3708,-8.394,-8.4095,-8.4095,-8.4095,-8.4107,-8.4188,-8.4211,-8.4139,-8.4243,-8.3762,-8.3509,-8.375,-8.3942,-8.4064,-8.4069,-8.4079,-8.4075,-5.025,-5.0104,-5.0253,-5.0695,-5.1234,-5.2008,-5.2624,-5.3097,-5.3326,-5.3731,-5.4215,-5.4273,-5.463,-5.5282,-5.5751,0.0,0.0,0.0,-6.0087,-6.1089,-6.25,-6.3615,-6.4445,-6.4931,-6.5592,-6.6359,-6.6304,-6.6511,-6.6933,-6.7185,-6.7502,-6.7723,0.0,-6.7721,-6.8124,-6.8407,-6.9153,-7.0325,-7.067,-7.1429,-7.2678,-7.2838,-7.3129,-7.3577,-7.3935,-7.4075,-7.396,-7.3117,-7.2655,-7.2672,-7.1225,-7.0247,0.0,0.0,0.0,0.0,0.0,0.0,0.0,0.0,0.0,0.0,0.0,-6.9806,-7.0331,0.0,0.0,0.0,-7.3521,-7.4749,-7.618,-7.6753,0.0,0.0,0.0,0.0,0.0,0.0,0.0,-7.9719,-7.9368,-7.9808,-8.1785,-8.1785,-8.157,-8.1323,-8.1839,-8.2237,-8.228,0.0,-8.3283,-8.3322,-8.3747,-8.4095,-8.4095,-8.4675,-8.5333,-8.6029,-8.6107,-8.6107,-8.6107,-8.5901,-8.5681,-8.57,-8.5513,-8.548,-8.6078,-8.5823,-8.5532,-8.5541,-8.5657,-8.5781,-8.5781,-8.5789,-8.5866,-5.1539,-5.1836,-5.1105,-5.1627,-5.3056,-5.3126,-5.3848,-5.4986,-5.5056,-5.5268,-5.5567,-5.577,-5.5878,-5.5987,-5.6795,0.0,-5.8162,-5.9514,-6.0709,-6.1628,-6.2892,-6.4096,-6.5094,-6.5431,-6.6071,-6.6968,-6.6524,-6.6823,-6.7651,-6.7355,-6.7736,-6.8672,-6.8436,-6.8455,-6.8569,-6.9123,-6.9704,-7.036,-7.1118,-7.1877,-7.2713,-7.3129,-7.3577,-7.397,-7.4174,-7.4411,-7.4752,-7.3475,-7.2938,-7.3281,-7.204,-7.1024,-7.0376,0.0,0.0,0.0,0.0,0.0,0.0,0.0,0.0,0.0,0.0,0.0,0.0,0.0,0.0,-7.2768,-7.4957,0.0,-7.7047,-7.731,0.0,0.0,0.0,-7.8406,-7.9129,-7.9529,-8.0409,-8.2037,0.0,0.0,-8.3593,-8.4379,-8.4626,-8.4071,-8.3888,-8.3838,-8.3915,-8.4118,-8.4327,-8.4482,-8.4521,-8.4521,-8.4908,-8.5952,-8.7306,-8.8698,-8.924,-8.9008,-8.8944,-8.8365,-8.8016,-8.7921,-8.7448,-8.6881,-8.6972,-8.6951,-8.7089,-8.7011,-8.7137,-8.7263,-8.7185,-8.7221,-8.7222,-5.1913,-5.2557,-5.2264,-5.2447,-5.291,-5.3508,-5.3939,-5.4277,-5.4561,-5.4915,-5.5268,-5.528,-5.5761,-5.6562,-5.7341,-5.808,-5.8747,-6.011,-6.1268,-6.228,-6.3386,-6.4573,-6.5709,-6.5834,-6.6514,-6.7605,-6.7059,-6.7287,-6.8324,-6.8062,-6.8487,-6.9467,-6.9615,-6.9271,-6.8637,-6.9604,-7.0222,-7.0435,-7.1118,-7.196,-7.2929,-7.3537,-7.3891,-7.401,-7.3913,-7.3968,-7.4152,-7.2868,-7.2321,-7.2689,-7.1914,-7.1221,-7.0711,-7.0364,0.0,0.0,0.0,0.0,0.0,0.0,0.0,0.0,0.0,-7.1006,-7.2245,0.0,-7.4197,0.0,-7.7217,-7.845,-7.8029,-7.9199,0.0,0.0,-8.0984,-8.1565,-8.1794,-8.2111,-8.2524,-8.2978,-8.4136,-8.5044,-8.5478,-8.7127,-8.8106,-8.7534,-8.5352,-8.403,-8.4686,-8.5509,-8.6261,-8.688,-8.7461,-8.7963,-8.7925,-8.8273,-8.8867,-8.9679,-8.9486,-8.9201,-8.9201,-8.852,-8.8016,-8.8038,-8.7436,-8.6998,-8.6982,-8.7067,-8.7089,-8.7097,-8.7215,-8.7302,-8.7302,-8.7338,-8.7411,-5.224,-5.2822,-5.2928,-5.2949,-5.3006,-5.3839,-5.4422,-5.4713,-5.4929,-5.5218,-5.5602,-5.5959,-5.6502,-5.725,-5.8249,-5.8868,-5.9304,-6.0685,-6.1758,-6.2736,-6.3728,-6.4868,-6.6007,-6.6132,-6.6635,-6.7454,-6.7004,-6.7237,-6.8103,-6.8158,-6.8748,-6.9765,-7.0251,-7.0192,-6.9662,-7.0464,-7.0994,-7.1075,-7.1884,-7.2637,-7.3258,-7.3772,-7.3913,-7.3755,-7.3786,-7.3761,-7.3618,-7.2679,-7.2302,-7.2564,-7.1965,-7.1447,-7.1063,-7.0909,-7.0585,0.0,0.0,0.0,0.0,0.0,0.0,0.0,0.0,0.0,0.0,0.0,-7.546,-7.7222,-7.9119,-8.0203,-8.0046,-8.0954,-8.1612,-8.1679,-8.2314,-8.2974,-8.3735,-8.4116,-8.4614,-8.5397,-8.631,-8.6953,-8.718,-8.8517,-8.9299,-8.8815,-8.7195,-8.623,-8.6746,-8.7364,-8.7925,-8.8428,-8.8892,-8.9279,-8.9511,-8.9665,-8.9975,-9.0569,-9.0516,-9.0337,-9.0325,-8.9695,-8.906,-8.8705,-8.8063,-8.7368,-8.7098,-8.7067,-8.7089,-8.7113,-8.7215,-8.7292,-8.7302,-8.7338,-8.7411,-5.257,-5.2976,-5.3226,-5.3306,-5.3262,-5.3921,-5.4719,-5.5558,-5.5558,-5.5852,-5.6219,-5.7019,-5.7595,-5.7927,-5.9061,-5.9648,-5.9787,-6.1207,-6.2192,-6.3018,-6.403,-6.4996,-6.6007,-6.6231,-6.655,-6.6907,-6.6759,-6.6989,-6.7651,-6.7965,-6.8699,-6.9751,-7.0502,-7.0895,-7.0908,-7.1385,-7.1753,-7.2035,-7.2904,-7.3456,-7.3732,-7.397,-7.3896,-7.3533,-7.3724,-7.3618,-7.3074,-7.2623,-7.2452,-7.2608,-7.2149,-7.1726,-7.1439,-7.1462,-7.1367,0.0,-7.1317,0.0,0.0,0.0,0.0,0.0,0.0,0.0,0.0,-7.5347,-7.6959,-7.9448,-8.0722,-8.1632,-8.2141,-8.2407,-8.2611,-8.2747,-8.2998,-8.3832,-8.5338,-8.5835,-8.6566,-8.804,-8.8116,-8.8188,-8.857,-8.929,-8.9568,-8.9305,-8.9176,-8.9085,-8.9231,-8.9272,-8.9356,-8.9472,-8.9511,-8.9859,-9.0207,-9.0439,-9.0826,-9.1522,-9.16,-9.1744,-9.1695,-9.1063,-9.0322,-8.9527,-8.8727,-8.7992,-8.7176,-8.7067,-8.7089,-8.7097,-8.7215,-8.7297,-8.7307,-8.7338,-8.7411,-5.2736,-5.3497,-5.3061,-5.3109,-5.34,-5.3409,-5.4047,-5.5115,-5.5485,-5.5852,-5.6292,-5.7019,-5.7451,-5.7595,-5.9017,-5.9787,-6.0177,-6.1247,-6.2326,-6.3348,-6.416,-6.4996,-6.5978,-6.5786,-6.6101,-6.6847,-6.6269,-6.6523,-6.7565,-6.776,-6.8401,-6.9511,-7.019,-7.086,-7.144,0.0,0.0,0.0,-7.3345,-7.3732,-7.397,-7.4322,-7.4315,-7.3902,-7.3475,0.0,-7.2749,-7.2051,-7.1842,-7.2115,-7.2157,0.0,0.0,0.0,0.0,0.0,0.0,0.0,0.0,0.0,0.0,0.0,-7.6733,-7.6832,-7.6262,-7.7635,-7.9373,-8.1287,-8.1821,-8.2065,-8.2202,-8.29,-8.3657,-8.443,-8.5268,-8.6214,-8.7252,-8.7513,-8.7826,-8.8135,-8.8788,-8.9323,-8.9568,-9.0311,-9.0821,-9.073,-9.0873,-9.0952,-9.1029,-9.0499,-9.0439,-9.1058,-9.1097,-9.1213,-9.1367,-9.1367,-9.1445,-9.1677,-9.1716,-9.1744,-9.1734,-9.114,-9.0361,-8.9565,-8.8805,-8.8031,-8.7176,-8.7028,-8.7089,-8.7089,-8.7215,-8.7302,-8.7302,-8.7338,-8.7407,-5.3076,-5.3635,-5.3608,-5.363,0.0,-5.3969,-5.4371,-5.511,-5.5213,-5.5632,-5.6219,-5.7019,-5.7405,-5.7451,-5.8947,-5.9857,-6.0246,-6.1546,-6.2554,-6.3413,-6.4518,-6.5202,-6.5506,-6.5857,-6.5952,-6.5905,-6.6011,-6.6409,-6.7091,-6.758,-6.8351,-6.9382,-7.0035,-7.0699,-7.1423,-7.2159,-7.2678,-7.317,-7.3496,-7.3852,-7.4132,-7.4441,-7.4427,-7.4047,-7.3902,0.0,0.0,0.0,0.0,0.0,0.0,0.0,0.0,-7.3167,-7.3363,-7.4074,-7.4263,-7.4636,-7.528,-7.6163,-7.6976,-7.7802,-7.9126,-7.9575,-7.8746,-7.9872,-8.1212,-8.2539,-8.2761,-8.3171,-8.405,-8.4574,-8.5212,-8.6123,-8.6752,-8.7454,-8.8324,-8.862,-8.8894,-8.9338,-8.9898,-9.0283,-9.0339,-9.0829,-9.1275,-9.1358,-9.1438,-9.1531,-9.1605,-9.1301,-9.1251,-9.1638,-9.1716,-9.1716,-9.1716,-9.1716,-9.1716,-9.1716,-9.1716,-9.1757,-9.1812,-9.1514,-9.0981,-9.022,-8.9447,-8.8613,-8.7846,-8.7378,-8.7089,-8.7105,-8.7202,-8.7325,-8.7297,-8.7338,-8.7404,-5.3347,-5.3819,-5.4107,-5.4228,-5.4304,-5.4602,-5.4991,-5.5473,-5.5237,0.0,0.0,-5.7019,-5.7405,-5.7523,-5.8947,-5.9857,-6.0384,-6.1777,-6.2781,-6.3545,-6.4903,-6.5312,-6.5067,-6.5952,-6.5855,-6.4964,-6.575,-6.6293,-6.6617,-6.7336,-6.8251,-6.9285,-6.9846,-7.0549,-7.1367,-7.2202,-7.2838,-7.3252,-7.3537,-7.3931,-7.4325,-7.4517,-7.4429,-7.4119,-7.4401,-7.4098,-7.3043,-7.3166,-7.3093,-7.2768,-7.2907,-7.3403,-7.4349,-7.4524,-7.5092,-7.608,-7.6467,-7.678,-7.7102,-7.8027,-7.8915,-7.9754,-8.1206,-8.1856,-8.1283,-8.1849,-8.2652,-8.3587,-8.3776,-8.4505,-8.5939,-8.6265,-8.6691,-8.765,-8.7877,-8.8292,-8.9223,-8.946,-8.9791,-9.0482,-9.0721,-9.0915,-9.0915,-9.1098,-9.1303,-9.1384,-9.15,-9.1629,-9.1702,-9.1677,-9.1638,-9.1716,-9.1716,-9.1716,-9.1716,-9.1716,-9.1716,-9.1716,-9.1716,-9.1771,-9.185,-9.1888,-9.1587,-9.0845,-9.0167,-8.939,-8.8458,-8.7797,-8.7275,-8.7128,-8.7181,-8.7264,-8.7297,-8.7373,-8.7401,-5.3528,-5.4278,-5.3946,-5.4197,-5.4774,-5.443,-5.5076,-5.629,-5.5782,-5.5779,-5.6292,-5.7019,-5.7405,-5.7451,-5.8947,-5.9969,-6.0728,-6.1844,-6.298,-6.3936,-6.5031,-6.5312,-6.5037,-6.5413,-6.5402,-6.4961,-6.5257,-6.5825,-6.6617,-6.7161,-6.8,-6.8994,-6.9607,-7.0423,-7.1512,-7.2081,-7.2552,-7.3046,-7.3456,-7.401,-7.4517,-7.4593,-7.454,-7.4508,-7.4576,-7.4485,-7.4191,-7.4186,-7.4305,-7.4529,-7.4706,-7.4953,-7.5207,-7.5375,-7.5649,-7.6229,-7.755,-7.8464,-7.8791,-8.0205,-8.1508,-8.2521,-8.2847,-8.2996,-8.3063,-8.3162,-8.3625,-8.4589,-8.5294,-8.5787,-8.6151,-8.6796,-8.7648,-8.8638,-8.8797,-8.9228,-9.0224,-9.0343,-9.0423,-9.0641,-9.0837,-9.0954,-9.0991,-9.115,-9.1341,-9.1384,-9.1516,-9.1629,-9.1687,-9.1716,-9.1716,-9.1716,-9.1716,-9.1716,-9.1716,-9.1716,-9.1716,-9.1716,-9.1716,-9.1757,-9.1863,-9.1888,-9.1665,-9.0962,-9.0672,-9.0012,-8.873,-8.8235,-8.7863,-8.7353,-8.7284,-8.7234,-8.7286,-8.7365,-8.739,-5.3513,-5.4066,-5.4105,-5.4557,-5.5292,-5.5296,-5.5944,-5.6931,-5.6397,-5.6328,-5.6719,-5.7146,-5.7405,-5.7523,-5.8947,-6.0039,-6.0797,-6.2086,-6.315,-6.4095,-6.5251,-6.5261,-6.4626,-6.5322,-6.5216,-6.4505,-6.5146,-6.5893,-6.6586,-6.7161,-6.7949,-6.8994,-6.9765,-7.0608,-7.1423,-7.1898,-7.2416,-7.3005,-7.3334,-7.3856,-7.4555,-7.4593,-7.4826,-7.5223,-7.5258,-7.5171,-7.5024,-7.5019,-7.4993,-7.4888,-7.5153,-7.5519,-7.6048,-7.6329,-7.7,-7.8122,-7.8973,-7.9739,-8.0405,-8.1594,-8.2685,-8.3715,-8.3865,-8.4177,-8.4713,-8.4822,-8.502,-8.5545,-8.6303,-8.6985,-8.7402,-8.789,-8.8577,-8.9558,-8.974,-9.0002,-9.0474,-9.0631,-9.0635,-9.0699,-9.0799,-9.0915,-9.1009,-9.1202,-9.1352,-9.1438,-9.1546,-9.1634,-9.1716,-9.1716,-9.1716,-9.1716,-9.1716,-9.1716,-9.1716,-9.1716,-9.1716,-9.1716,-9.1716,-9.1771,-9.185,-9.1888,-9.1781,-9.1534,-9.1138,-9.0556,-8.9662,-8.8857,-8.8321,-8.8131,-8.7487,-8.728,-8.7264,-8.7312,-8.739,-5.3348,-5.3865,-5.4252,-5.4905,-5.5748,-5.6089,-5.6788,-5.752,-5.698,-5.6971,-5.7346,-5.7524,-5.7508,-5.7523,-5.8947,-5.9969,-6.0865,-6.2192,-6.3282,-6.4095,-6.5378,-6.53,-6.4242,-6.5319,-6.5295,-6.431,-6.5211,-6.6054,-6.6691,-6.7161,-6.8,-6.9091,-7.0049,-7.0745,-7.1233,-7.1722,-7.2331,-7.288,-7.3135,-7.3737,-7.4555,-7.4593,-7.4968,-7.5727,-7.5798,-7.5785,-7.5862,-7.5858,-7.5724,-7.5476,-7.5764,-7.6306,-7.7082,-7.758,-7.8549,-8.0016,-8.0485,-8.1102,-8.2057,-8.2721,-8.3449,-8.4217,-8.4595,-8.5083,-8.5809,-8.6384,-8.6568,-8.653,-8.7175,-8.7933,-8.8426,-8.8886,-8.9383,-9.0129,-9.0317,-9.0427,-9.0572,-9.0593,-9.0656,-9.0739,-9.0838,-9.0953,-9.1062,-9.1253,-9.14,-9.15,-9.1605,-9.1702,-9.1716,-9.1716,-9.1716,-9.1716,-9.1716,-9.1716,-9.1716,-9.1716,-9.1716,-9.1716,-9.1716,-9.1732,-9.1825,-9.1875,-9.1924,-9.19,-9.1555,-9.1022,-9.076,-8.9848,-8.908,-8.8931,-8.8195,-8.7479,-8.7259,-8.7312,-8.7386,-5.3348,-5.3865,-5.4252,-5.4882,-5.5691,-5.615,-5.7083,-5.806,-5.7622,-5.7694,-5.82,-5.8159,-5.7866,-5.7621,-5.8947,-5.9969,-6.0797,-6.2192,-6.3282,-6.4095,-6.5378,-6.53,-6.4242,-6.5319,-6.5353,-6.459,-6.5266,-6.613,-6.6901,-6.7317,-6.8101,-6.9285,-7.0143,-7.0641,-7.1007,-7.1668,-7.2245,-7.2644,-7.3094,-7.3702,-7.4517,-7.4593,-7.4968,-7.5763,-7.5798,-7.6072,-7.6664,-7.6692,-7.6851,-7.709,-7.7422,-7.7931,-7.8699,-7.9214,-7.9956,-8.1024,-8.1896,-8.2815,-8.3735,-8.3922,-8.405,-8.4355,-8.5085,-8.5687,-8.6012,-8.7444,-8.8047,-8.763,-8.8047,-8.8539,-8.8653,-8.9342,-8.9938,-9.0167,-9.0317,-9.0465,-9.0572,-9.0676,-9.0739,-9.0877,-9.0953,-9.1044,-9.1241,-9.1336,-9.1462,-9.162,-9.1687,-9.1716,-9.1716,-9.1716,-9.1716,-9.1716,-9.1716,-9.1716,-9.1716,-9.1716,-9.1716,-9.1716,-9.1716,-9.1757,-9.1825,-9.185,-9.1951,-9.1983,-9.2,-9.1643,-9.1138,-9.0566,-9.0275,-8.9789,-8.9026,-8.8118,-8.7537,-8.7433,-8.7503,-5.3183,-5.3431,-5.4171,-5.4905,-5.5691,-5.6221,-5.7124,-5.8183,-5.8065,-5.8343,-5.8832,-5.8746,-5.8444,-5.8096,-5.9131,-6.0135,-6.107,-6.2354,-6.3413,-6.4354,-6.5441,-6.5485,-6.4755,-6.5467,-6.5437,-6.4752,-6.5375,-6.613,-6.7005,-6.7899,-6.8699,-6.9448,-7.0576,-7.1232,-7.1484,-7.2677,-7.3513,-7.3947,-7.4448,-7.5067,-7.5752,-7.5053,-7.5182,-7.6302,-7.6445,-7.7011,-7.8052,-7.8224,-7.8386,-7.8741,-7.9044,-7.9335,-7.9667,-8.0265,-8.097,-8.1846,-8.2885,-8.3682,-8.4073,-8.411,-8.4324,-8.4865,-8.5399,-8.609,-8.7185,-8.8077,-8.8653,-8.8842,-8.9146,-8.9297,-8.9359,-8.9792,-9.0159,-9.0228,-9.0422,-9.0572,-9.0638,-9.0679,-9.0779,-9.0934,-9.1046,-9.1154,-9.1292,-9.1422,-9.1546,-9.1687,-9.1716,-9.1716,-9.1716,-9.1716,-9.1716,-9.1716,-9.1716,-9.1716,-9.1716,-9.1716,-9.1716,-9.1716,-9.1716,-9.1744,-9.1773,-9.1838,-9.1912,-9.1971,-9.2066,-9.2021,-9.1721,-9.1149,-9.0732,-9.0519,-9.0241,-8.9387,-8.8295,-8.8087,-8.7954,-5.3078,-5.3243,-5.4171,-5.4963,-5.5691,-5.6221,-5.71,-5.8207,-5.8286,-5.8744,-5.9413,-5.9152,-5.9019,-5.9095,-5.9448,-6.0204,-6.137,-6.242,-6.3479,-6.4547,-6.5504,-6.5727,-6.5353,-6.5704,-6.5674,-6.5337,-6.5631,-6.6343,-6.7368,-6.8679,-6.9435,-6.9874,-7.1256,-7.1955,-7.213,-7.3481,-7.4439,-7.4878,-7.5385,-7.6012,-7.6635,-7.5832,-7.5858,-7.7092,-7.72,-7.7842,-7.9102,-7.9208,-7.9406,-7.9827,-8.0069,-8.0325,-8.0607,-8.1205,-8.1911,-8.2804,-8.3629,-8.411,-8.411,-8.4298,-8.4673,-8.5301,-8.5913,-8.6921,-8.8003,-8.8658,-8.9159,-8.9638,-8.979,-8.9752,-8.9814,-9.0067,-9.0205,-9.0228,-9.0443,-9.0635,-9.0699,-9.0739,-9.0838,-9.0991,-9.1136,-9.1258,-9.1374,-9.15,-9.1659,-9.1663,-9.1716,-9.1716,-9.1716,-9.1716,-9.1716,-9.1716,-9.1716,-9.1716,-9.1716,-9.1716,-9.1716,-9.1716,-9.1716,-9.173,-9.1746,-9.1812,-9.1875,-9.1924,-9.2044,-9.2049,-9.1954,-9.1488,-9.113,-9.1422,-9.1145,-9.0173,-8.8746,-8.8612,-8.8214,-5.3078,-5.3326,-5.4579,-5.5311,-5.5691,-5.6221,-5.7124,-5.831,-5.8286,-5.8898,-5.974,-5.9278,-5.9544,-6.0306,-5.9871,-6.0273,-6.137,-6.2487,-6.3545,-6.4612,-6.5567,-6.6026,-6.5951,-6.5946,-6.6032,-6.6109,-6.6152,-6.6849,-6.8198,-6.9417,-7.019,-7.0551,-7.1941,-7.2658,-7.2834,-7.3821,-7.4463,-7.5094,-7.5558,-7.6082,-7.6847,-7.6894,-7.721,-7.8026,-7.8063,-7.8456,-7.9181,-7.9245,-7.9475,-7.9983,-8.0241,-8.0688,-8.1563,-8.2081,-8.2842,-8.3832,-8.4073,-8.411,-8.4223,-8.4786,-8.5274,-8.5564,-8.6967,-8.8091,-8.8343,-8.9112,-8.9638,-8.979,-8.979,-8.979,-8.9852,-9.0067,-9.0205,-9.0228,-9.0443,-9.0614,-9.0699,-9.0799,-9.0896,-9.1028,-9.1189,-9.1358,-9.1554,-9.1659,-9.1702,-9.1716,-9.1716,-9.1716,-9.1716,-9.1716,-9.1716,-9.1716,-9.1716,-9.1716,-9.1716,-9.1716,-9.1716,-9.1716,-9.1716,-9.1716,-9.1744,-9.1746,-9.1812,-9.1927,-9.196,-9.2005,-9.2049,-9.1936,-9.1617,-9.1587,-9.1391,-9.0462,-8.919,-8.8763,-8.8287,-5.3281,-5.3984,-5.4742,-5.5311,-5.5772,-5.6518,-5.7314,-5.8286,-5.8575,-5.933,-6.0226,-5.984,-6.0163,-6.106,-6.0659,-6.1039,-6.2007,-6.282,-6.3936,-6.5094,-6.5756,-6.6211,-6.6552,-6.6546,-6.6545,-6.6516,-6.6752,-6.761,-6.913,-7.0285,-7.1045,-7.1622,-7.2804,-7.3558,-7.3878,-7.4988,-7.5959,-7.6537,-7.6886,-7.7482,-7.8226,-7.8341,-7.8775,-7.9535,-7.9142,-7.9431,-8.0703,-8.074,-8.0974,-8.1529,-8.168,-8.2042,-8.2564,-8.3042,-8.3522,-8.4009,-8.411,-8.4335,-8.4824,-8.5124,-8.5827,-8.6948,-8.7697,-8.8494,-8.9024,-8.9502,-8.979,-8.979,-8.979,-8.9814,-8.9935,-9.0113,-9.0205,-9.025,-9.0443,-9.0656,-9.0759,-9.0896,-9.0973,-9.11,-9.1275,-9.1454,-9.1629,-9.1702,-9.1716,-9.1716,-9.1716,-9.1716,-9.1716,-9.1716,-9.1716,-9.1716,-9.1716,-9.1716,-9.1716,-9.1716,-9.1716,-9.1716,-9.1716,-9.1716,-9.173,-9.1732,-9.1799,-9.1876,-9.19,-9.1971,-9.2017,-9.206,-9.183,-9.1841,-9.1645,-9.0975,-8.9703,-8.937,-8.8667,-5.3446,-5.4416,-5.5067,-5.5473,-5.5852,-5.6734,-5.7631,-5.831,-5.8731,-5.9585,-6.0482,-6.0298,-6.0549,-6.1308,-6.1431,-6.1781,-6.2543,-6.315,-6.4196,-6.5475,-6.5882,-6.6423,-6.7123,-6.7147,-6.7208,-6.7423,-6.7769,-6.8743,-7.0098,-7.1138,-7.1851,-7.2415,-7.362,-7.4377,-7.4748,-7.585,-7.6828,-7.7377,-7.7763,-7.8322,-7.9069,-7.9191,-7.9629,-8.0286,-7.9969,-8.0262,-8.1544,-8.1615,-8.1919,-8.2407,-8.2633,-8.288,-8.3223,-8.3592,-8.4015,-8.4422,-8.4486,-8.4861,-8.5612,-8.595,-8.6642,-8.7856,-8.8402,-8.8909,-8.9528,-8.9716,-8.9766,-8.979,-8.979,-8.9877,-9.002,-9.0098,-9.0228,-9.0273,-9.0465,-9.0676,-9.0877,-9.0915,-9.1009,-9.1224,-9.139,-9.1531,-9.1649,-9.1702,-9.1716,-9.1716,-9.1716,-9.1716,-9.1716,-9.1716,-9.1716,-9.1716,-9.1716,-9.1716,-9.1716,-9.1716,-9.1716,-9.1716,-9.1716,-9.1716,-9.1716,-9.1732,-9.1759,-9.1799,-9.1889,-9.1963,-9.2022,-9.2066,-9.212,-9.2181,-9.2034,-9.1512,-9.0656,-9.0021,-8.9164,-5.3573,-5.4498,-5.5368,-5.5691,-5.5933,-5.7076,-5.7892,-5.8286,-5.8809,-5.9637,-6.0584,-6.0549,-6.0949,-6.1433,-6.1961,-6.2452,-6.2921,-6.3376,-6.426,-6.5475,-6.5945,-6.6723,-6.7848,-6.7657,-6.7962,-6.8683,-6.9228,-7.0059,-7.1171,-7.1927,-7.2608,-7.3243,-7.4321,-7.4996,-7.5291,-7.6101,-7.6862,-7.7456,-7.7807,-7.8364,-7.911,-7.9231,-7.9629,-8.0396,-8.0436,-8.0768,-8.1581,-8.1615,-8.1952,-8.2571,-8.2665,-8.3001,-8.3601,-8.3927,-8.4352,-8.5135,-8.5312,-8.5687,-8.6476,-8.7227,-8.7619,-8.8195,-8.8854,-8.9362,-8.9553,-8.9716,-8.979,-8.979,-8.979,-8.9839,-8.9982,-9.0137,-9.025,-9.0383,-9.053,-9.0676,-9.0857,-9.0915,-9.1028,-9.1303,-9.15,-9.1629,-9.1687,-9.1716,-9.1716,-9.1716,-9.1716,-9.1716,-9.1716,-9.1716,-9.1716,-9.1716,-9.1716,-9.1716,-9.1716,-9.1716,-9.1716,-9.1716,-9.1716,-9.1716,-9.1716,-9.1744,-9.1757,-9.1798,-9.1812,-9.1888,-9.201,-9.2066,-9.211,-9.2132,-9.2064,-9.1884,-9.1085,-9.0294,-8.9537,-5.382,-5.4905,-5.5449,-5.5876,-5.6301,-5.7576,-5.8207,-5.8443,-5.9276,-6.0125,-6.0711,-6.1238,-6.1642,-6.2012,-6.2492,-6.3004,-6.3504,-6.3969,-6.4804,-6.5756,-6.6414,-6.7121,-6.7909,-6.8321,-6.8882,-6.9659,-7.0094,-7.0821,-7.1887,-7.263,-7.335,-7.4107,-7.4687,-7.5277,-7.5818,-7.6461,-7.702,-7.7719,-7.8151,-7.8657,-7.9191,-7.9387,-7.9822,-8.0396,-8.0508,-8.084,-8.1581,-8.1615,-8.1985,-8.2665,-8.2696,-8.3261,-8.4339,-8.5235,-8.5784,-8.61,-8.6138,-8.6513,-8.7264,-8.7677,-8.82,-8.8802,-8.9246,-8.9489,-8.9692,-8.9766,-8.979,-8.979,-8.979,-8.9863,-9.0075,-9.0182,-9.0273,-9.0383,-9.053,-9.0676,-9.0896,-9.1046,-9.1241,-9.1368,-9.1516,-9.1629,-9.1687,-9.1716,-9.1716,-9.1716,-9.1716,-9.1716,-9.1716,-9.1716,-9.1716,-9.1716,-9.1716,-9.1716,-9.1716,-9.1716,-9.1716,-9.1716,-9.1716,-9.1716,-9.1716,-9.1716,-9.173,-9.1771,-9.1799,-9.1875,-9.196,-9.2066,-9.211,-9.2151,-9.2132,-9.1711,-9.1084,-9.0383,-8.961,-5.3902,-5.5067,-5.553,-5.6037,-5.6702,-5.7813,-5.8364,-5.8677,-5.9663,-6.0355,-6.0813,-6.1695,-6.2276,-6.2523,-6.3193,-6.3681,-6.4014,-6.4647,-6.5356,-6.6037,-6.6691,-6.7365,-6.809,-6.9006,-6.9828,-7.0599,-7.1134,-7.1775,-7.2696,-7.3244,-7.3866,-7.4523,-7.487,-7.5373,-7.6088,-7.6565,-7.7154,-7.785,-7.8322,-7.8782,-7.915,-7.9467,-7.9899,-8.0396,-8.0508,-8.0876,-8.1547,-8.1615,-8.1952,-8.2676,-8.317,-8.4116,-8.5368,-8.6077,-8.6626,-8.6926,-8.7039,-8.7377,-8.8128,-8.8278,-8.8511,-8.9178,-8.9333,-8.9464,-8.9667,-8.9741,-8.979,-8.979,-8.979,-8.9887,-9.0159,-9.0205,-9.0273,-9.0465,-9.0551,-9.0676,-9.0877,-9.1171,-9.1319,-9.1415,-9.1531,-9.162,-9.1702,-9.1716,-9.1716,-9.1716,-9.1716,-9.1716,-9.1716,-9.1716,-9.1716,-9.1716,-9.1716,-9.1716,-9.1716,-9.1716,-9.1716,-9.1716,-9.1716,-9.1716,-9.1716,-9.1716,-9.173,-9.1771,-9.1786,-9.185,-9.1936,-9.2055,-9.212,-9.2161,-9.2152,-9.1935,-9.1442,-9.0496,-8.9749,-5.3902,-5.5149,-5.5553,-5.6254,-5.7052,-5.7971,-5.8521,-5.8965,-5.9792,-6.0355,-6.0863,-6.1996,-6.2698,-6.3118,-6.3958,-6.4374,-6.4604,-6.5347,-6.5898,-6.6277,-6.6844,-6.7548,-6.8417,-6.9588,-7.0582,-7.1438,-7.209,-7.2676,-7.3187,-7.3577,-7.4103,-7.4622,-7.4919,-7.5407,-7.6088,-7.6565,-7.7199,-7.785,-7.8406,-7.8864,-7.9191,-7.9507,-7.9899,-8.0471,-8.0508,-8.084,-8.1476,-8.1861,-8.2198,-8.288,-8.4235,-8.5432,-8.6219,-8.6544,-8.7152,-8.779,-8.7865,-8.8203,-8.8766,-8.8841,-8.8999,-8.9173,-8.9307,-8.9438,-8.9629,-8.9716,-8.979,-8.979,-8.979,-8.9887,-9.0137,-9.0205,-9.0317,-9.0551,-9.0635,-9.0737,-9.0915,-9.1224,-9.1368,-9.1415,-9.1576,-9.1716,-9.1716,-9.1716,-9.1716,-9.1716,-9.1716,-9.1716,-9.1716,-9.1716,-9.1716,-9.1716,-9.1716,-9.1716,-9.1716,-9.1716,-9.1716,-9.1716,-9.1716,-9.1716,-9.1716,-9.1716,-9.1716,-9.1757,-9.1786,-9.185,-9.1924,-9.2005,-9.2099,-9.2131,-9.2132,-9.2199,-9.1739,-9.0853,-9.0261,-5.4334,-5.553,-5.5691,-5.6334,-5.7473,-5.805,-5.8521,-5.9043,-6.0099,-6.0457,-6.0786,-6.2194,-6.3232,-6.3884,-6.4275,-6.4917,-6.5539,-6.5836,-6.6189,-6.669,-6.7424,-6.8329,-6.924,-6.9933,-7.0726,-7.1589,-7.224,-7.2774,-7.3285,-7.3661,-7.4204,-7.487,-7.5035,-7.5537,-7.6322,-7.6942,-7.7367,-7.7937,-7.8699,-7.9104,-7.9266,-7.9661,-8.0015,-8.0433,-8.058,-8.0948,-8.1654,-8.2737,-8.3419,-8.3843,-8.5656,-8.6826,-8.7258,-8.7857,-8.8316,-8.8541,-8.8654,-8.8729,-8.8917,-8.8992,-8.9075,-8.9173,-8.9345,-8.9438,-8.9566,-8.9716,-8.9766,-8.979,-8.979,-8.9887,-9.0137,-9.0228,-9.0362,-9.0617,-9.0758,-9.0819,-9.0991,-9.1202,-9.14,-9.1415,-9.1576,-9.1702,-9.1716,-9.1716,-9.1716,-9.1716,-9.1716,-9.1716,-9.1716,-9.1716,-9.1716,-9.1716,-9.1716,-9.1716,-9.1716,-9.1716,-9.1716,-9.1716,-9.1716,-9.1716,-9.1716,-9.1716,-9.1716,-9.173,-9.1799,-9.1888,-9.1924,-9.1994,-9.2066,-9.211,-9.2152,-9.2178,-9.2004,-9.1417,-9.0986,-5.4661,-5.5691,-5.5876,-5.6678,-5.7813,-5.8129,-5.8756,-5.9508,-6.0278,-6.0787,-6.1115,-6.2418,-6.3533,-6.4319,-6.4918,-6.5642,-6.6435,-6.6793,-6.7048,-6.7403,-6.8482,-6.9296,-6.9859,-7.0218,-7.0838,-7.1612,-7.2455,-7.3005,-7.337,-7.3764,-7.4488,-7.5305,-7.5585,-7.6256,-7.7439,-7.7984,-7.8227,-7.8537,-7.9268,-7.9762,-7.9727,-8.0274,-8.0915,-8.1367,-8.1515,-8.1851,-8.2711,-8.4114,-8.5007,-8.5436,-8.6542,-8.7536,-8.8176,-8.8636,-8.8992,-8.8992,-8.8992,-8.8992,-8.8992,-8.8992,-8.9047,-8.9157,-8.9291,-8.9449,-8.9553,-8.9667,-8.979,-8.979,-8.979,-8.9911,-9.0159,-9.0295,-9.0491,-9.0719,-9.0877,-9.0915,-9.1009,-9.1236,-9.1368,-9.1431,-9.1576,-9.1716,-9.1716,-9.1716,-9.1716,-9.1716,-9.1716,-9.1716,-9.1716,-9.1716,-9.1716,-9.1716,-9.1716,-9.1716,-9.1716,-9.1716,-9.1716,-9.1716,-9.1716,-9.1716,-9.1716,-9.1716,-9.1716,-9.1744,-9.1812,-9.19,-9.1924,-9.1983,-9.2099,-9.2151,-9.218,-9.2165,-9.2028,-9.1853,-9.1493,-5.5125,-5.5937,-5.6363,-5.7349,-5.8428,-5.8487,-5.9192,-6.0149,-6.0533,-6.0965,-6.1571,-6.2593,-6.368,-6.4482,-6.5479,-6.6286,-6.6907,-6.7658,-6.8106,-6.8623,-6.9485,-7.0213,-7.0348,-7.0973,-7.1537,-7.217,-7.2969,-7.3541,-7.3933,-7.428,-7.5105,-7.599,-7.6422,-7.7314,-7.8306,-7.9258,-7.947,-7.9382,-8.012,-8.0612,-8.0623,-8.1128,-8.1813,-8.2483,-8.2821,-8.3228,-8.4167,-8.5367,-8.6365,-8.6895,-8.7235,-8.7968,-8.8823,-8.8992,-8.8992,-8.8992,-8.8992,-8.8992,-8.8992,-8.8992,-8.8992,-8.9047,-8.9265,-8.9359,-8.9438,-8.9642,-8.979,-8.979,-8.979,-8.9911,-9.0182,-9.0443,-9.0614,-9.0779,-9.0858,-9.0915,-9.1008,-9.1236,-9.14,-9.1415,-9.1576,-9.1702,-9.1716,-9.1716,-9.1716,-9.1716,-9.1716,-9.1716,-9.1716,-9.1716,-9.1716,-9.1716,-9.1716,-9.1716,-9.1716,-9.1716,-9.1716,-9.1716,-9.1716,-9.1716,-9.1716,-9.1716,-9.1716,-9.1757,-9.1812,-9.1875,-9.19,-9.1971,-9.211,-9.2171,-9.219,-9.2221,-9.2253,-9.2003,-9.171,-5.6441,-5.702,-5.7816,-5.8653,-5.949,-5.9494,-5.9926,-6.0759,-6.0712,-6.1168,-6.1872,-6.2768,-6.3981,-6.5407,-6.5831,-6.6553,-6.7501,-6.8207,-6.8708,-6.9631,-7.0036,-7.0858,-7.144,-7.2312,-7.2906,-7.3402,-7.4421,-7.4989,-7.5115,-7.5436,-7.6184,-7.686,-7.7295,-7.7773,-7.8716,-7.9638,-7.9897,-8.008,-8.0894,-8.1391,-8.1438,-8.184,-8.2457,-8.3025,-8.3554,-8.4209,-8.4932,-8.5805,-8.6735,-8.7564,-8.8055,-8.8417,-8.8861,-8.8992,-8.8992,-8.8992,-8.8992,-8.8992,-8.8992,-8.8992,-8.8992,-8.9019,-8.9238,-8.9386,-8.9386,-8.9616,-8.9766,-8.979,-8.979,-8.9911,-9.0182,-9.034,-9.0534,-9.0719,-9.0877,-9.0954,-9.1008,-9.1236,-9.1384,-9.1431,-9.1576,-9.1716,-9.1716,-9.1716,-9.1716,-9.1716,-9.1716,-9.1716,-9.1716,-9.1716,-9.1716,-9.1716,-9.1716,-9.1716,-9.1716,-9.1716,-9.1716,-9.1716,-9.1716,-9.1716,-9.1716,-9.1716,-9.1716,-9.1771,-9.1799,-9.185,-9.1888,-9.1983,-9.212,-9.2142,-9.2199,-9.2276,-9.2267,-9.2066,-9.2047,-5.71,-5.7456,-5.8502,-5.9342,-5.9859,-6.0308,-6.0871,-6.1553,-6.1454,-6.1808,-6.2561,-6.3197,-6.4173,-6.5369,-6.6158,-6.7056,-6.8033,-6.9089,-7.0007,-7.0912,-7.1506,-7.221,-7.2964,-7.3781,-7.4314,-7.4076,-7.4908,-7.5427,-7.564,-7.6129,-7.6716,-7.7681,-7.8085,-7.8868,-7.9755,-8.0558,-8.088,-8.1031,-8.1958,-8.2465,-8.2288,-8.2913,-8.3495,-8.4037,-8.468,-8.5371,-8.5808,-8.6504,-8.7221,-8.7898,-8.8316,-8.8642,-8.8936,-8.8992,-8.8992,-8.8992,-8.8992,-8.8992,-8.8992,-8.8992,-8.8992,-8.8992,-8.9211,-8.9318,-8.9423,-8.9591,-8.9716,-8.9766,-8.9814,-8.9887,-9.0182,-9.0317,-9.0491,-9.0679,-9.0799,-9.0954,-9.1046,-9.1236,-9.14,-9.1431,-9.1576,-9.1687,-9.1716,-9.1716,-9.1716,-9.1716,-9.1716,-9.1716,-9.1716,-9.1716,-9.1716,-9.1716,-9.1716,-9.1716,-9.1716,-9.1716,-9.1716,-9.1716,-9.1716,-9.1716,-9.1716,-9.1716,-9.1716,-9.1771,-9.1786,-9.185,-9.19,-9.2005,-9.2102,-9.2171,-9.2234,-9.23,-9.2327,-9.2273,-9.2338,-5.7608,-5.7857,-5.9095,-5.9829,-6.0397,-6.1101,-6.1847,-6.2454,-6.2483,-6.2785,-6.3487,-6.3828,-6.4473,-6.5248,-6.6497,-6.7512,-6.8741,-6.9943,-7.1032,-7.1764,-7.2675,-7.329,-7.3988,-7.4785,-7.5221,-7.4301,-7.5451,-7.5918,-7.61,-7.6479,-7.7518,-7.8435,-7.9111,-7.9778,-8.096,-8.1908,-8.2115,-8.1798,-8.2846,-8.3387,-8.3139,-8.3916,-8.4573,-8.5045,-8.5733,-8.6174,-8.6426,-8.7019,-8.7655,-8.8041,-8.8316,-8.8642,-8.8908,-8.8992,-8.8992,-8.8992,-8.8992,-8.8992,-8.8992,-8.8992,-8.8992,-8.8992,-8.9129,-8.9291,-8.9423,-8.9515,-8.9704,-8.9741,-8.9814,-8.9887,-9.0182,-9.0295,-9.0449,-9.0638,-9.0837,-9.0896,-9.1028,-9.1219,-9.1352,-9.1415,-9.1576,-9.1702,-9.1716,-9.1716,-9.1716,-9.1716,-9.1716,-9.1716,-9.1716,-9.1716,-9.1716,-9.1716,-9.1716,-9.1716,-9.1716,-9.1716,-9.1716,-9.1716,-9.1716,-9.1716,-9.1716,-9.1716,-9.1716,-9.1757,-9.1811,-9.1838,-9.1924,-9.2005,-9.2092,-9.2151,-9.2213,-9.2254,-9.2366,-9.2479,-9.2546,-5.9006,-5.9823,-6.0764,-6.1401,-6.1819,-6.2205,-6.2643,-6.3122,-6.3389,-6.3636,-6.3995,-6.4627,-6.5227,-6.593,-6.6637,-6.7993,-6.9374,-7.0593,-7.1371,-7.2104,-7.2984,-7.3722,-7.4388,-7.5279,-7.5842,-7.6346,-7.6821,-7.7053,-7.7336,-7.8039,-7.8488,-7.9224,-7.9888,-8.0622,-8.129,-8.2036,-8.2555,-8.2527,-8.3383,-8.3692,-8.3819,-8.4267,-8.4823,-8.5258,-8.5988,-8.6429,-8.6714,-8.7197,-8.7725,-8.8232,-8.8376,-8.8679,-8.8908,-8.8992,-8.8992,-8.8992,-8.8992,-8.8992,-8.8992,-8.8992,-8.8992,-8.9019,-8.9129,-8.9227,-8.9397,-8.9489,-8.9616,-8.9741,-8.9814,-8.9887,-9.0182,-9.025,-9.0362,-9.0555,-9.0798,-9.0915,-9.0953,-9.1154,-9.1319,-9.14,-9.1561,-9.1716,-9.1716,-9.1716,-9.1716,-9.1716,-9.1716,-9.1716,-9.1716,-9.1716,-9.1716,-9.1716,-9.1716,-9.1716,-9.1716,-9.1716,-9.1716,-9.1716,-9.1716,-9.1716,-9.1716,-9.1716,-9.173,-9.1744,-9.1811,-9.1863,-9.1936,-9.2005,-9.2102,-9.216,-9.2204,-9.2246,-9.2386,-9.25,-9.2546,-5.975,-6.0339,-6.1423,-6.2084,-6.2527,-6.3113,-6.3629,-6.411,-6.4378,-6.4654,-6.4941,-6.5356,-6.5846,-6.652,-6.7071,-6.8363,-6.9774,-7.1048,-7.1658,-7.2231,-7.3108,-7.3905,-7.4479,-7.5337,-7.6092,-7.6718,-7.7278,-7.7719,-7.7883,-7.8498,-7.9041,-7.951,-8.0175,-8.0823,-8.1373,-8.2118,-8.2579,-8.3021,-8.3516,-8.3904,-8.3989,-8.4533,-8.502,-8.5336,-8.5951,-8.6429,-8.6749,-8.7231,-8.7757,-8.8232,-8.8444,-8.8679,-8.8879,-8.8992,-8.8992,-8.8992,-8.8992,-8.8992,-8.8992,-8.8992,-8.8992,-8.8992,-8.9075,-8.9211,-8.9333,-8.9464,-8.9591,-8.9741,-8.979,-8.9863,-9.0052,-9.0159,-9.0295,-9.047,-9.0737,-9.0877,-9.0973,-9.1154,-9.1292,-9.1384,-9.1531,-9.162,-9.1716,-9.1716,-9.1716,-9.1716,-9.1716,-9.1716,-9.1716,-9.1716,-9.1716,-9.1716,-9.1716,-9.1716,-9.1716,-9.1716,-9.1716,-9.1716,-9.1716,-9.1716,-9.1716,-9.1716,-9.1716,-9.1716,-9.1773,-9.1875,-9.1924,-9.2022,-9.2102,-9.216,-9.2187,-9.2246,-9.2405,-9.2515,-9.2557,-6.0255,-6.059,-6.1672,-6.2495,-6.2985,-6.3716,-6.436,-6.4842,-6.5319,-6.5624,-6.5922,-6.6134,-6.6484,-6.7212,-6.7952,-6.8837,-7.0068,-7.1337,-7.1913,-7.2326,-7.3293,-7.4087,-7.4778,-7.5396,-7.6206,-7.6999,-7.7334,-7.7774,-7.8101,-7.8724,-7.9094,-7.9596,-8.0259,-8.0921,-8.1469,-8.2164,-8.2579,-8.3075,-8.3559,-8.3904,-8.42,-8.4778,-8.5218,-8.5297,-8.5987,-8.6501,-8.6821,-8.7298,-8.7821,-8.8263,-8.8533,-8.8708,-8.8936,-8.8992,-8.8992,-8.8992,-8.8992,-8.8992,-8.8992,-8.8992,-8.8992,-8.8992,-8.8992,-8.9157,-8.9371,-8.9464,-8.9591,-8.9741,-8.979,-8.9839,-8.9982,-9.0137,-9.0273,-9.0427,-9.0658,-9.0858,-9.0934,-9.1082,-9.1275,-9.1352,-9.1446,-9.1576,-9.1687,-9.1716,-9.1716,-9.1716,-9.1716,-9.1716,-9.1716,-9.1716,-9.1716,-9.1716,-9.1716,-9.1716,-9.1716,-9.1716,-9.1716,-9.1716,-9.1716,-9.1716,-9.1716,-9.1716,-9.1716,-9.1716,-9.1799,-9.1888,-9.1936,-9.1983,-9.2102,-9.2141,-9.2169,-9.2254,-9.2417,-9.2515,-9.2553,-6.0674,-6.1399,-6.2002,-6.2659,-6.3392,-6.3958,-6.4386,-6.492,-6.6028,-6.641,-6.6415,-6.6915,-6.7452,-6.8074,-6.906,-6.97,-7.0331,-7.1272,-7.2167,-7.2484,-7.3416,-7.4359,-7.5166,-7.5603,-7.6435,-7.7223,-7.7555,-7.7774,-7.8296,-7.8936,-7.9336,-7.9596,-8.0376,-8.1166,-8.166,-8.2222,-8.2716,-8.3164,-8.3689,-8.4116,-8.4527,-8.494,-8.5179,-8.5414,-8.5987,-8.6573,-8.6925,-8.7435,-8.7984,-8.8414,-8.865,-8.8823,-8.8964,-8.8992,-8.8992,-8.8992,-8.8992,-8.8992,-8.8992,-8.8992,-8.8992,-8.8992,-8.8992,-8.9157,-8.9371,-8.9591,-8.9716,-8.9766,-8.979,-8.9839,-8.9958,-9.0098,-9.025,-9.0405,-9.0597,-9.0779,-9.0877,-9.1009,-9.115,-9.1358,-9.1454,-9.1546,-9.1673,-9.1702,-9.1716,-9.1716,-9.1716,-9.1716,-9.1716,-9.1716,-9.1716,-9.1716,-9.1716,-9.1716,-9.1716,-9.1716,-9.1716,-9.1716,-9.1716,-9.1716,-9.1716,-9.1716,-9.1716,-9.1744,-9.1825,-9.1888,-9.1912,-9.1983,-9.2102,-9.218,-9.2187,-9.2323,-9.2468,-9.2481,-9.2522,-6.134,-6.2002,-6.2659,-6.3311,-6.3878,-6.428,-6.4866,-6.5581,-6.6369,-6.6909,-6.7354,-6.791,-6.845,-6.9067,-6.9667,-7.0134,-7.0593,-7.153,-7.2263,-7.2735,-7.3539,-7.4419,-7.5225,-7.5719,-7.6435,-7.7334,-7.7719,-7.8046,-7.8477,-7.9041,-7.944,-7.975,-8.056,-8.1311,-8.1896,-8.2269,-8.2851,-8.3341,-8.3897,-8.4278,-8.461,-8.494,-8.5218,-8.5258,-8.6025,-8.6573,-8.7029,-8.7501,-8.8016,-8.8444,-8.8679,-8.8823,-8.8964,-8.8992,-8.8992,-8.8992,-8.8992,-8.8992,-8.8992,-8.8992,-8.8992,-8.8992,-8.9019,-8.9129,-8.9397,-8.9616,-8.979,-8.979,-8.979,-8.9814,-8.9911,-9.0052,-9.0205,-9.034,-9.0534,-9.0719,-9.0858,-9.0972,-9.108,-9.1275,-9.1422,-9.1516,-9.1644,-9.1687,-9.1716,-9.1716,-9.1716,-9.1716,-9.1716,-9.1716,-9.1716,-9.1716,-9.1716,-9.1716,-9.1716,-9.1716,-9.1716,-9.1716,-9.1716,-9.1716,-9.1716,-9.1716,-9.1716,-9.1757,-9.1812,-9.1863,-9.1927,-9.1994,-9.2112,-9.218,-9.2243,-9.2352,-9.2435,-9.251,-9.2507,-6.2002,-6.2577,-6.323,-6.3716,-6.4145,-6.4627,-6.5238,-6.6028,-6.6603,-6.7276,-6.8056,-6.8725,-6.9266,-6.9649,-6.986,-7.0265,-7.0919,-7.1658,-7.2389,-7.3046,-7.3722,-7.4599,-7.5369,-7.5919,-7.6605,-7.761,-7.7719,-7.8155,-7.8777,-7.9232,-7.9544,-7.9904,-8.0675,-8.1407,-8.2024,-8.2488,-8.2941,-8.3603,-8.4067,-8.4361,-8.4651,-8.498,-8.5179,-8.5453,-8.5914,-8.6572,-8.6995,-8.7567,-8.8041,-8.8406,-8.8737,-8.8908,-8.8992,-8.8992,-8.8992,-8.8992,-8.8992,-8.8992,-8.8992,-8.8992,-8.8992,-8.9019,-8.9102,-8.9238,-8.9397,-8.9616,-8.979,-8.979,-8.979,-8.979,-8.9839,-9.0006,-9.0121,-9.0295,-9.0449,-9.0658,-9.0877,-9.0934,-9.1026,-9.1219,-9.139,-9.1485,-9.1561,-9.1634,-9.1702,-9.1716,-9.1716,-9.1716,-9.1716,-9.1716,-9.1716,-9.1716,-9.1716,-9.1716,-9.1716,-9.1716,-9.1716,-9.1716,-9.1716,-9.1716,-9.1716,-9.1716,-9.1691,-9.1746,-9.1812,-9.1875,-9.1924,-9.2028,-9.2151,-9.219,-9.2229,-9.2352,-9.244,-9.2475,-9.2525,-6.2659,-6.3392,-6.3473,-6.3716,-6.4145,-6.4627,-6.5238,-6.6107,-6.6888,-6.7738,-6.8641,-6.9169,-6.9575,-6.9854,-6.9986,-7.0331,-7.0984,-7.1658,-7.2515,-7.3293,-7.4087,-7.4806,-7.5571,-7.6264,-7.6887,-7.7555,-7.7829,-7.835,-7.8883,-7.9336,-7.9699,-8.0209,-8.0921,-8.1517,-8.213,-8.2716,-8.3208,-8.3776,-8.4194,-8.4403,-8.4651,-8.494,-8.5179,-8.5375,-8.5951,-8.6572,-8.6995,-8.7595,-8.8103,-8.8466,-8.8794,-8.8936,-8.8992,-8.8992,-8.8992,-8.8992,-8.8992,-8.8992,-8.8992,-8.8992,-8.8992,-8.9075,-8.9184,-8.9318,-8.9423,-8.9616,-8.9766,-8.979,-8.979,-8.979,-8.9814,-8.9949,-9.0052,-9.0228,-9.0405,-9.0597,-9.0759,-9.0896,-9.1009,-9.1241,-9.1374,-9.1454,-9.1531,-9.162,-9.1702,-9.1716,-9.1716,-9.1716,-9.1716,-9.1716,-9.1716,-9.1716,-9.1716,-9.1716,-9.1716,-9.1716,-9.1716,-9.1716,-9.1716,-9.1716,-9.1716,-9.1716,-9.1691,-9.1759,-9.1825,-9.19,-9.1971,-9.2071,-9.2161,-9.2217,-9.2261,-9.2393,-9.2466,-9.2535,-9.2572,-6.2741,-6.3473,-6.3797,-6.4119,-6.4627,-6.5238,-6.5871,-6.6525,-6.7276,-6.8579,-6.9923,-6.9763,-7.0152,-7.0614,-7.0208,-7.0528,-7.1466,-7.1786,-7.2703,-7.3539,-7.4299,-7.4925,-7.5687,-7.6435,-7.6999,-7.7555,-7.7971,-7.8511,-7.9179,-7.9492,-8.0107,-8.0659,-8.1166,-8.1707,-8.2315,-8.3031,-8.3603,-8.3904,-8.4278,-8.4527,-8.4651,-8.498,-8.5218,-8.5258,-8.5951,-8.6573,-8.7029,-8.766,-8.8103,-8.8466,-8.8823,-8.8936,-8.8992,-8.8992,-8.8992,-8.8992,-8.8992,-8.8992,-8.8992,-8.8992,-8.8992,-8.9019,-8.9184,-8.9318,-8.9359,-8.9566,-8.9692,-8.9741,-8.979,-8.979,-8.9814,-8.9911,-9.0029,-9.0167,-9.034,-9.0513,-9.0679,-9.0819,-9.0934,-9.1115,-9.1286,-9.14,-9.1516,-9.1629,-9.1673,-9.1716,-9.1716,-9.1716,-9.1716,-9.1716,-9.1716,-9.1716,-9.1716,-9.1716,-9.1716,-9.1716,-9.1716,-9.1716,-9.1716,-9.1716,-9.1716,-9.1716,-9.173,-9.1773,-9.1838,-9.1912,-9.2005,-9.2122,-9.219,-9.2187,-9.2292,-9.2396,-9.2503,-9.259,-9.2576,-6.2985,-6.3716,-6.4145,-6.4466,-6.484,-6.5634,-6.629,-6.6837,-6.7661,-6.9184,-7.0955,-7.0335,-7.0576,-7.119,-7.0622,-7.0754,-7.1658,-7.2167,-7.289,-7.3753,-7.4479,-7.5134,-7.5803,-7.6548,-7.7278,-7.7665,-7.8046,-7.8671,-7.9336,-7.9647,-8.0209,-8.0823,-8.1407,-8.1943,-8.2498,-8.335,-8.3869,-8.4032,-8.4361,-8.461,-8.4651,-8.498,-8.5218,-8.5336,-8.5951,-8.6573,-8.7027,-8.7628,-8.8134,-8.8466,-8.8794,-8.8964,-8.8992,-8.8992,-8.8992,-8.8992,-8.8992,-8.8992,-8.8992,-8.8992,-8.8992,-8.9019,-8.9129,-8.9291,-8.9359,-8.9515,-8.9642,-8.9766,-8.979,-8.979,-8.979,-8.9863,-9.0006,-9.0159,-9.025,-9.0405,-9.0658,-9.0819,-9.0915,-9.1008,-9.1202,-9.14,-9.1462,-9.1576,-9.1687,-9.1716,-9.1716,-9.1716,-9.1716,-9.1716,-9.1716,-9.1716,-9.1716,-9.1716,-9.1716,-9.1716,-9.1716,-9.1716,-9.1716,-9.1716,-9.1716,-9.1716,-9.1757,-9.1812,-9.1875,-9.1924,-9.2028,-9.2142,-9.219,-9.2187,-9.232,-9.2471,-9.2528,-9.2603,-9.2577,-6.3716,-6.4119,-6.4521,-6.4786,-6.4946,-6.566,-6.629,-6.6993,-6.8122,-6.9634,-7.1263,-7.0803,-7.0992,-7.1453,-7.0792,-7.1044,-7.185,-7.2326,-7.2984,-7.3844,-7.4778,-7.5428,-7.6092,-7.6831,-7.7444,-7.7719,-7.8209,-7.883,-7.9388,-7.9801,-8.0326,-8.1068,-8.1741,-8.2269,-8.2579,-8.3472,-8.3904,-8.3989,-8.4403,-8.4569,-8.4692,-8.498,-8.5179,-8.5375,-8.5951,-8.6573,-8.7064,-8.766,-8.8134,-8.8503,-8.8823,-8.8964,-8.8992,-8.8992,-8.8992,-8.8992,-8.8992,-8.8992,-8.8992,-8.8992,-8.8992,-8.8992,-8.9129,-8.92,-8.9397,-8.9527,-8.9679,-8.9766,-8.979,-8.979,-8.979,-8.9814,-8.9996,-9.0137,-9.0228,-9.034,-9.0597,-9.0837,-9.0915,-9.0971,-9.1202,-9.14,-9.1462,-9.1561,-9.1673,-9.1716,-9.1716,-9.1716,-9.1716,-9.1716,-9.1716,-9.1716,-9.1716,-9.1716,-9.1716,-9.1716,-9.1716,-9.1716,-9.1716,-9.1716,-9.1716,-9.1716,-9.1785,-9.185,-9.1939,-9.1924,-9.2049,-9.2161,-9.2234,-9.2269,-9.2378,-9.2507,-9.2551,-9.2611,-9.2578,-6.3716,-6.4119,-6.4627,-6.5079,-6.5634,-6.6212,-6.6837,-6.7661,-6.9005,-7.0378,-7.1149,-7.0944,-7.113,-7.1335,-7.1212,-7.1178,-7.1977,-7.2578,-7.3231,-7.3966,-7.4956,-7.5486,-7.6092,-7.6943,-7.761,-7.7829,-7.8316,-7.8936,-7.9388,-7.9955,-8.0576,-8.1311,-8.2118,-8.2716,-8.3075,-8.3568,-8.3869,-8.3989,-8.4326,-8.461,-8.4651,-8.498,-8.5218,-8.5258,-8.5951,-8.6573,-8.6995,-8.766,-8.8134,-8.8503,-8.8823,-8.8992,-8.8992,-8.8992,-8.8992,-8.8992,-8.8992,-8.8992,-8.8992,-8.8992,-8.8992,-8.9019,-8.9047,-8.9184,-8.9371,-8.9449,-8.9604,-8.9716,-8.979,-8.979,-8.979,-8.979,-8.9911,-9.0137,-9.025,-9.0362,-9.0593,-9.0798,-9.0954,-9.1009,-9.1168,-9.1492,-9.1653,-9.2069,-9.2243,-9.2141,-9.218,-9.1832,-9.1754,-9.1716,-9.1716,-9.1716,-9.1716,-9.1716,-9.1716,-9.1716,-9.1716,-9.1716,-9.1716,-9.1716,-9.1716,-9.1716,-9.1798,-9.185,-9.1927,-9.1975,-9.2092,-9.2217,-9.2323,-9.2405,-9.2476,-9.2522,-9.2556,-9.2574,-9.2578,-6.3958,-6.436,-6.5,-6.5555,-6.629,-6.6759,-6.7584,-6.8806,-7.0007,-7.104,-7.1654,-7.1365,-7.1405,-7.1702,-7.1476,-7.1371,-7.204,-7.2765,-7.3416,-7.4147,-7.5075,-7.5719,-7.6378,-7.7055,-7.761,-7.7938,-7.8477,-7.9094,-7.944,-8.0209,-8.097,-8.1754,-8.2488,-8.2896,-8.3253,-8.3603,-8.3869,-8.4032,-8.4326,-8.461,-8.4733,-8.494,-8.5218,-8.5453,-8.5914,-8.6572,-8.7027,-8.7595,-8.8164,-8.8503,-8.8794,-8.8992,-8.8992,-8.8992,-8.8992,-8.8992,-8.8992,-8.8992,-8.8992,-8.8992,-8.9104,-8.948,-8.9179,-8.9129,-8.9345,-8.9423,-8.9541,-8.9692,-8.9841,-8.9866,-8.9904,-8.9904,-9.0039,-9.0289,-9.0403,-9.053,-9.0725,-9.0931,-9.1069,-9.1144,-9.136,-9.1647,-9.2098,-9.2538,-9.2915,-9.2799,-9.2644,-9.2296,-9.1986,-9.2064,-9.1986,-9.1832,-9.1793,-9.1754,-9.1754,-9.1716,-9.1716,-9.1716,-9.1716,-9.1716,-9.173,-9.1744,-9.1786,-9.1863,-9.1912,-9.2005,-9.2152,-9.2276,-9.2327,-9.2407,-9.2507,-9.2541,-9.2601,-9.2576,-9.2576,-6.436,-6.4946,-6.566,-6.629,-6.6759,-6.738,-6.8579,-7.023,-7.0747,-7.1551,-7.2515,-7.1922,-7.1883,-7.206,-7.1683,-7.1658,-7.2167,-7.2984,-7.3722,-7.4448,-7.531,-7.5977,-7.6605,-7.7278,-7.7719,-7.8155,-7.8671,-7.9232,-7.9492,-8.0526,-8.1503,-8.2211,-8.275,-8.3066,-8.3297,-8.3646,-8.3826,-8.4032,-8.4361,-8.4569,-8.4692,-8.498,-8.5218,-8.5492,-8.5988,-8.6572,-8.7095,-8.766,-8.8134,-8.8533,-8.8823,-8.8936,-8.8992,-8.8992,-8.8992,-8.8992,-8.8992,-8.9142,-8.9217,-8.9254,-8.9667,-9.0081,-8.9667,-8.9458,-8.9619,-8.9952,-9.0183,-9.0297,-9.0434,-9.0245,-9.0131,-9.0218,-9.0342,-9.0485,-9.0624,-9.0781,-9.0954,-9.1158,-9.1298,-9.1432,-9.172,-9.2126,-9.291,-9.3379,-9.365,-9.365,-9.3495,-9.3224,-9.2992,-9.2915,-9.2683,-9.2064,-9.1986,-9.1832,-9.1793,-9.1754,-9.1716,-9.1716,-9.1716,-9.1716,-9.1744,-9.1771,-9.1799,-9.1875,-9.1948,-9.206,-9.219,-9.2269,-9.2366,-9.2437,-9.2522,-9.2549,-9.2603,-9.2578,-9.2611,-6.4521,-6.5238,-6.5792,-6.6577,-6.7661,-6.8882,-6.9784,-7.0378,-7.0996,-7.1841,-7.2544,-7.206,-7.2019,-7.2276,-7.2004,-7.1907,-7.2389,-7.3139,-7.3844,-7.4627,-7.5396,-7.6092,-7.6718,-7.7334,-7.7774,-7.8296,-7.8863,-7.9388,-7.9921,-8.0921,-8.1754,-8.2442,-8.2896,-8.312,-8.3341,-8.3654,-8.3783,-8.4032,-8.4403,-8.4527,-8.4733,-8.498,-8.5218,-8.5572,-8.6174,-8.6714,-8.7268,-8.7821,-8.8256,-8.8533,-8.8851,-8.8992,-8.8992,-8.8992,-8.8992,-8.9067,-8.9442,-8.9893,-8.9968,-9.0418,-9.0832,-9.0982,-9.0832,-9.1,-9.1089,-9.111,-9.1178,-9.1168,-9.1192,-9.1117,-9.1117,-9.1166,-9.1263,-9.1406,-9.156,-9.1674,-9.1909,-9.2097,-9.2199,-9.2448,-9.2695,-9.3145,-9.3877,-9.4153,-9.4385,-9.4423,-9.4385,-9.423,-9.3998,-9.3921,-9.3456,-9.2799,-9.2373,-9.2257,-9.187,-9.1754,-9.1716,-9.1716,-9.1716,-9.1716,-9.1744,-9.1746,-9.1851,-9.1912,-9.2028,-9.2122,-9.216,-9.2284,-9.2396,-9.2476,-9.2522,-9.2549,-9.2608,-9.2578,-9.2609,-6.4633,-6.5634,-6.6133,-6.7198,-6.8655,-6.9858,-7.0526,-7.104,-7.1696,-7.2229,-7.2561,-7.2189,-7.2141,-7.2229,-7.2077,-7.2104,-7.2452,-7.3355,-7.4207,-7.4956,-7.5513,-7.6321,-7.6943,-7.7444,-7.7938,-7.8457,-7.9022,-7.9544,-8.0225,-8.1277,-8.2257,-8.267,-8.3031,-8.3208,-8.3429,-8.3733,-8.3947,-8.4116,-8.4403,-8.4569,-8.4773,-8.5016,-8.5297,-8.5682,-8.6393,-8.6964,-8.7476,-8.8053,-8.8391,-8.8592,-8.8879,-8.8992,-8.9104,-8.9254,-8.948,-8.9667,-9.0268,-9.0644,-9.0794,-9.1094,-9.1545,-9.1883,-9.1958,-9.2317,-9.2295,-9.2242,-9.2099,-9.1989,-9.2115,-9.2216,-9.2254,-9.2279,-9.2451,-9.258,-9.2688,-9.2779,-9.3,-9.3249,-9.3448,-9.3617,-9.3967,-9.4396,-9.4775,-9.4974,-9.5274,-9.5545,-9.57,-9.5623,-9.5274,-9.4926,-9.4346,-9.3611,-9.3108,-9.2721,-9.2335,-9.1909,-9.1793,-9.1754,-9.1716,-9.173,-9.1719,-9.1799,-9.1888,-9.2005,-9.2122,-9.216,-9.2221,-9.2334,-9.2456,-9.2498,-9.2532,-9.2558,-9.2574,-9.2577,-9.2608,-6.4717,-6.6028,-6.6655,-6.8045,-6.9634,-7.023,-7.104,-7.2129,-7.2559,-7.2707,-7.2719,-7.2421,-7.2335,-7.2294,-7.2119,-7.2357,-7.2828,-7.3661,-7.4479,-7.5401,-7.5835,-7.6548,-7.7278,-7.7665,-7.8068,-7.8691,-7.9303,-7.975,-8.0526,-8.1517,-8.2442,-8.2886,-8.3075,-8.3297,-8.3551,-8.3988,-8.4308,-8.4556,-8.4872,-8.5109,-8.5024,-8.5123,-8.5444,-8.5976,-8.6648,-8.736,-8.7826,-8.827,-8.866,-8.8933,-8.9179,-8.9367,-8.963,-8.993,-9.0231,-9.0569,-9.1132,-9.147,-9.1658,-9.192,-9.2296,-9.2596,-9.2822,-9.3257,-9.3313,-9.3121,-9.2942,-9.3011,-9.3163,-9.3163,-9.3163,-9.3189,-9.3313,-9.3459,-9.3616,-9.3778,-9.4059,-9.427,-9.4503,-9.4744,-9.5054,-9.5447,-9.5617,-9.5816,-9.5932,-9.6435,-9.6551,-9.6551,-9.6358,-9.5855,-9.5236,-9.4462,-9.4114,-9.3572,-9.276,-9.2335,-9.1948,-9.1832,-9.1754,-9.1744,-9.1785,-9.185,-9.196,-9.2071,-9.2171,-9.2213,-9.2284,-9.2411,-9.2471,-9.251,-9.2543,-9.2569,-9.2578,-9.2574,-9.2605,-6.4791,-6.6015,-6.7778,-6.9184,-7.023,-7.0922,-7.1696,-7.2559,-7.3199,-7.3268,-7.2828,-7.2489,-7.2372,-7.237,-7.2153,-7.242,-7.3046,-7.3905,-7.4659,-7.5486,-7.6066,-7.6775,-7.7555,-7.7829,-7.8197,-7.8644,-7.9202,-8.0074,-8.0985,-8.1896,-8.2533,-8.2886,-8.3145,-8.3481,-8.3815,-8.4349,-8.4918,-8.5209,-8.5698,-8.5942,-8.5933,-8.6141,-8.6535,-8.7439,-8.8326,-8.8819,-8.9358,-8.9913,-9.0326,-9.0638,-9.0783,-9.0907,-9.0944,-9.1094,-9.1169,-9.132,-9.192,-9.2296,-9.2559,-9.2822,-9.3235,-9.3422,-9.3668,-9.3963,-9.4067,-9.3886,-9.3871,-9.4045,-9.4111,-9.4073,-9.4061,-9.4086,-9.4136,-9.4285,-9.4492,-9.4745,-9.5024,-9.5251,-9.5498,-9.5774,-9.6101,-9.629,-9.6405,-9.6551,-9.6744,-9.6783,-9.6744,-9.6744,-9.6706,-9.6396,-9.6009,-9.539,-9.5197,-9.4617,-9.3611,-9.2721,-9.2257,-9.187,-9.1716,-9.1757,-9.1811,-9.19,-9.2005,-9.2102,-9.2199,-9.2238,-9.2306,-9.2411,-9.2471,-9.2522,-9.2515,-9.2573,-9.2578,-9.2611,-9.2603,-6.4695,-6.6142,-6.8296,-6.9755,-7.0645,-7.1579,-7.2345,-7.2915,-7.3691,-7.3685,-7.3004,-7.2692,-7.2601,-7.2565,-7.2314,-7.264,-7.3355,-7.4207,-7.4956,-7.5661,-7.6321,-7.6943,-7.7499,-7.7992,-7.8531,-7.8888,-7.9752,-8.0724,-8.1564,-8.213,-8.2625,-8.3046,-8.341,-8.3913,-8.4282,-8.51,-8.5741,-8.6076,-8.6744,-8.699,-8.7065,-8.7313,-8.7565,-8.8577,-8.9238,-8.9836,-9.0332,-9.0808,-9.1051,-9.1259,-9.1366,-9.1357,-9.147,-9.177,-9.1958,-9.2258,-9.2709,-9.3272,-9.3422,-9.3648,-9.4015,-9.4015,-9.4015,-9.4085,-9.4283,-9.4167,-9.4276,-9.4424,-9.449,-9.4452,-9.4541,-9.4567,-9.4667,-9.4814,-9.4981,-9.5203,-9.5529,-9.579,-9.5976,-9.6172,-9.6404,-9.6537,-9.6637,-9.6667,-9.6822,-9.6822,-9.6822,-9.6822,-9.6822,-9.6822,-9.6474,-9.6164,-9.5855,-9.5158,-9.3998,-9.3186,-9.2528,-9.218,-9.1793,-9.1785,-9.1864,-9.1948,-9.206,-9.2142,-9.2226,-9.2293,-9.2366,-9.2435,-9.2537,-9.2543,-9.2566,-9.2577,-9.2577,-9.257,-9.2558,-6.4787,-6.6602,-6.8567,-7.0035,-7.1158,-7.2129,-7.2844,-7.334,-7.397,-7.409,-7.3661,-7.3305,-7.3088,-7.2789,-7.2695,-7.3231,-7.3844,-7.4599,-7.5252,-7.5803,-7.6548,-7.7111,-7.761,-7.8046,-7.8744,-7.9614,-8.051,-8.1214,-8.199,-8.2442,-8.2876,-8.3365,-8.4,-8.467,-8.5296,-8.5974,-8.6609,-8.698,-8.7514,-8.801,-8.8229,-8.8446,-8.8703,-8.9128,-8.9745,-9.0332,-9.0855,-9.1267,-9.1553,-9.1805,-9.2108,-9.2108,-9.2258,-9.2596,-9.2784,-9.3047,-9.3385,-9.376,-9.3902,-9.3902,-9.4015,-9.4015,-9.4015,-9.4094,-9.4321,-9.4486,-9.4594,-9.4689,-9.4767,-9.4819,-9.4844,-9.4921,-9.5045,-9.5215,-9.5379,-9.5582,-9.592,-9.6211,-9.6355,-9.6492,-9.6629,-9.6746,-9.6792,-9.6822,-9.6822,-9.6822,-9.6822,-9.6822,-9.6822,-9.6822,-9.6667,-9.6474,-9.6241,-9.539,-9.4462,-9.3688,-9.3031,-9.2387,-9.2053,-9.1941,-9.1914,-9.2005,-9.2102,-9.2151,-9.2221,-9.2284,-9.2399,-9.2466,-9.2522,-9.2595,-9.2611,-9.2578,-9.2573,-9.2601,-9.2546,-6.6048,-6.8099,-6.9051,-7.0327,-7.1783,-7.2416,-7.2986,-7.372,-7.411,-7.4504,-7.4684,-7.4285,-7.3738,-7.2918,-7.2853,-7.3293,-7.4087,-7.4897,-7.5428,-7.5893,-7.6887,-7.7334,-7.7829,-7.8424,-7.9251,-8.0107,-8.0975,-8.1702,-8.228,-8.2649,-8.3246,-8.4077,-8.4449,-8.5155,-8.6055,-8.6841,-8.7591,-8.7921,-8.8492,-8.9097,-8.9282,-8.9541,-8.9869,-9.0554,-9.1505,-9.2131,-9.263,-9.3009,-9.329,-9.3439,-9.3414,-9.331,-9.331,-9.3385,-9.3498,-9.3535,-9.3902,-9.394,-9.4015,-9.4015,-9.4015,-9.4015,-9.4073,-9.418,-9.4376,-9.4513,-9.461,-9.4741,-9.4793,-9.4793,-9.4844,-9.4946,-9.507,-9.5333,-9.5516,-9.5797,-9.6098,-9.6302,-9.6476,-9.6613,-9.6707,-9.6792,-9.6807,-9.6822,-9.6822,-9.6822,-9.6822,-9.6822,-9.6822,-9.6822,-9.6822,-9.6667,-9.6551,-9.6087,-9.5352,-9.4346,-9.3572,-9.289,-9.2235,-9.2019,-9.1936,-9.2099,-9.2191,-9.2208,-9.2254,-9.232,-9.2435,-9.249,-9.2532,-9.256,-9.2574,-9.2578,-9.2609,-9.2593,-9.2538]},{"header":{"parameterUnit":"m.s-1","parameterCategory":1,"la1":31.0,"la2":29.5877,"lo1":-88.7671,"lo2":-86.6584,"dx":0.0162,"dy":0.0185,"nx":115,"ny":88,"refTime":"2023-02-13T18:00:00:Z","depth":0,"parameterNumber":3,"parameterNumberName":"V-component_of_WINDS"},"data":[0.0,0.0,0.0,0.0,0.0,0.0,0.0,0.0,0.0,0.0,0.0,0.0,0.0,0.0,0.0,0.0,0.0,0.0,0.0,0.0,0.0,0.0,0.0,0.0,0.0,0.0,0.0,0.0,0.0,0.0,0.0,0.0,0.0,0.0,0.0,0.0,0.0,0.0,0.0,0.0,0.0,0.0,0.0,0.0,0.0,0.0,0.0,0.0,0.0,0.0,0.0,0.0,0.0,0.0,0.0,0.0,0.0,0.0,0.0,0.0,0.0,0.0,0.0,0.0,0.0,0.0,0.0,0.0,0.0,0.0,0.0,0.0,0.0,0.0,0.0,0.0,0.0,0.0,0.0,0.0,0.0,0.0,0.0,0.0,0.0,0.0,0.0,0.0,0.0,0.0,0.0,0.0,0.0,0.0,0.0,0.0,0.0,0.0,0.0,0.0,0.0,0.0,0.0,0.0,0.0,0.0,0.0,0.0,0.0,0.0,0.0,0.0,0.0,0.0,0.0,0.0,0.0,0.0,0.0,0.0,0.0,0.0,0.0,0.0,0.0,0.0,0.0,0.0,0.0,0.0,0.0,0.0,0.0,0.0,0.0,0.0,0.0,0.0,0.0,0.0,0.0,0.0,0.0,0.0,0.0,0.0,0.0,0.0,0.0,0.0,0.0,0.0,0.0,0.0,0.0,0.0,0.0,0.0,0.0,0.0,0.0,0.0,0.0,0.0,0.0,0.0,0.0,0.0,0.0,0.0,0.0,0.0,0.0,0.0,0.0,0.0,0.0,0.0,0.0,0.0,0.0,0.0,0.0,0.0,0.0,0.0,0.0,0.0,0.0,0.0,0.0,0.0,0.0,0.0,0.0,0.0,0.0,0.0,0.0,0.0,0.0,0.0,0.0,0.0,0.0,0.0,0.0,0.0,0.0,0.0,0.0,0.0,0.0,0.0,0.0,0.0,0.0,0.0,0.0,0.0,0.0,0.0,0.0,0.0,0.0,0.0,0.0,0.0,0.0,0.0,0.0,0.0,0.0,0.0,0.0,0.0,0.0,0.0,0.0,0.0,0.0,0.0,0.0,0.0,0.0,0.0,0.0,0.0,0.0,0.0,0.0,0.0,0.0,0.0,0.0,0.0,0.0,0.0,0.0,0.0,0.0,0.0,0.0,0.0,0.0,0.0,0.0,0.0,0.0,0.0,0.0,0.0,0.0,0.0,0.0,0.0,0.0,0.0,0.0,0.0,0.0,0.0,0.0,0.0,0.0,0.0,0.0,0.0,0.0,0.0,0.0,0.0,0.0,0.0,0.0,0.0,0.0,0.0,0.0,0.0,0.0,0.0,0.0,0.0,0.0,0.0,0.0,0.0,0.0,0.0,0.0,0.0,0.0,0.0,0.0,0.0,0.0,0.0,0.0,0.0,0.0,0.0,0.0,0.0,0.0,0.0,0.0,0.0,0.0,0.0,0.0,0.0,0.0,0.0,0.0,0.0,0.0,0.0,0.0,0.0,0.0,0.0,0.0,0.0,0.0,0.0,0.0,0.0,0.0,0.0,0.0,0.0,0.0,0.0,0.0,0.0,0.0,0.0,0.0,0.0,0.0,0.0,0.0,0.0,0.0,0.0,0.0,0.0,0.0,0.0,0.0,0.0,0.0,0.0,0.0,0.0,0.0,0.0,0.0,0.0,0.0,0.0,0.0,0.0,0.0,0.0,0.0,0.0,0.0,0.0,0.0,0.0,0.0,0.0,0.0,0.0,0.0,0.0,0.0,0.0,0.0,0.0,0.0,0.0,0.0,0.0,0.0,0.0,0.0,0.0,0.0,0.0,0.0,0.0,0.0,0.0,0.0,0.0,0.0,0.0,0.0,0.0,0.0,0.0,0.0,0.0,0.0,0.0,0.0,0.0,0.0,0.0,0.0,0.0,0.0,0.0,0.0,0.0,0.0,0.0,0.0,0.0,0.0,0.0,0.0,0.0,0.0,0.0,0.0,0.0,0.0,0.0,0.0,0.0,0.0,0.0,0.0,0.0,0.0,0.0,0.0,0.0,0.0,0.0,0.0,0.0,0.0,0.0,0.0,0.0,0.0,0.0,0.0,0.0,0.0,0.0,0.0,0.0,0.0,0.0,0.0,0.0,0.0,0.0,0.0,0.0,0.0,0.0,0.0,0.0,0.0,0.0,0.0,0.0,0.0,0.0,0.0,0.0,0.0,0.0,0.0,0.0,0.0,0.0,0.0,0.0,0.0,0.0,0.0,0.0,0.0,0.0,0.0,0.0,0.0,0.0,0.0,0.0,0.0,0.0,0.0,0.0,0.0,0.0,0.0,0.0,0.0,0.0,0.0,0.0,0.0,0.0,0.0,0.0,0.0,0.0,0.0,0.0,0.0,0.0,0.0,0.0,0.0,0.0,0.0,0.0,0.0,0.0,0.0,0.0,0.0,0.0,0.0,0.0,0.0,0.0,0.0,0.0,0.0,0.0,0.0,0.0,0.0,0.0,0.0,0.0,0.0,0.0,0.0,0.0,0.0,0.0,0.0,0.0,0.0,0.0,0.0,0.0,0.0,0.0,0.0,0.0,0.0,0.0,0.0,0.0,0.0,0.0,0.0,0.0,0.0,0.0,0.0,0.0,0.0,0.0,0.0,0.0,0.0,0.0,0.0,0.0,0.0,0.0,0.0,0.0,0.0,0.0,0.0,0.0,0.0,0.0,0.0,0.0,0.0,0.0,0.0,0.0,0.0,0.0,0.0,0.0,0.0,0.0,0.0,0.0,0.0,0.0,0.0,0.0,0.0,0.0,0.0,0.0,0.0,0.0,0.0,0.0,0.0,0.0,0.0,0.0,0.0,0.0,0.0,0.0,0.0,0.0,0.0,0.0,0.0,0.0,0.0,0.0,0.0,0.0,0.0,0.0,0.0,0.0,0.0,0.0,0.0,0.0,0.0,0.0,0.0,0.0,0.0,0.0,0.0,0.0,0.0,0.0,0.0,0.0,0.0,0.0,0.0,0.0,0.0,0.0,0.0,0.0,0.0,0.0,0.0,0.0,0.0,0.0,0.0,0.0,0.0,0.0,0.0,0.0,0.0,0.0,0.0,0.0,0.0,0.0,0.0,0.0,0.0,0.0,0.0,0.0,0.0,0.0,0.0,0.0,0.0,0.0,0.0,0.0,0.0,0.0,0.0,0.0,0.0,0.0,0.0,0.0,0.0,0.0,0.0,0.0,0.0,0.0,0.0,0.0,0.0,0.0,0.0,0.0,0.0,0.0,0.0,0.0,0.0,0.0,0.0,0.0,0.0,0.0,0.0,0.0,0.0,0.0,0.0,0.0,0.0,0.0,0.0,0.0,0.0,0.0,0.0,0.0,0.0,0.0,0.0,0.0,0.0,0.0,0.0,0.0,0.0,0.0,0.0,0.0,0.0,0.0,0.0,0.0,0.0,0.0,0.0,0.0,0.0,0.0,0.0,0.0,0.0,0.0,0.0,0.0,0.0,0.0,0.0,0.0,0.0,0.0,0.0,0.0,0.0,0.0,0.0,0.0,0.0,0.0,0.0,0.0,0.0,0.0,0.0,0.0,0.0,0.0,0.0,0.0,0.0,0.0,0.0,0.0,0.0,0.0,0.0,0.0,0.0,0.0,0.0,0.0,0.0,0.0,0.0,0.0,0.0,0.0,0.0,0.0,0.0,0.0,0.0,0.0,0.0,0.0,0.0,0.0,0.0,0.0,0.0,0.0,0.0,0.0,0.0,0.0,0.0,0.0,0.0,0.0,0.0,0.0,0.0,0.0,0.0,0.0,0.0,0.0,0.0,0.0,0.0,0.0,0.0,0.0,0.0,0.0,0.0,0.0,0.0,0.0,0.0,0.0,0.0,0.0,0.0,0.0,0.0,0.0,0.0,0.0,0.0,0.0,0.0,0.0,0.0,0.0,0.0,0.0,0.0,0.0,0.0,0.0,0.0,0.0,0.0,0.0,0.0,0.0,0.0,0.0,0.0,0.0,0.0,0.0,0.0,0.0,0.0,0.0,0.0,0.0,0.0,0.0,0.0,0.0,0.0,0.0,0.0,0.0,0.0,0.0,0.0,0.0,0.0,0.0,0.0,0.0,0.0,0.0,0.0,0.0,0.0,0.0,0.0,0.0,0.0,0.0,0.0,0.0,0.0,0.0,0.0,0.0,0.0,0.0,0.0,0.0,0.0,0.0,0.0,0.0,0.0,0.0,0.0,0.0,0.0,0.0,0.0,0.0,0.0,0.0,0.0,0.0,0.0,0.0,-3.3738,0.0,0.0,0.0,0.0,0.0,0.0,0.0,0.0,0.0,0.0,0.0,0.0,0.0,0.0,0.0,0.0,0.0,0.0,0.0,0.0,0.0,0.0,0.0,0.0,0.0,0.0,0.0,0.0,0.0,0.0,0.0,0.0,0.0,0.0,0.0,0.0,0.0,0.0,0.0,0.0,0.0,0.0,0.0,0.0,0.0,0.0,0.0,0.0,0.0,0.0,0.0,0.0,0.0,0.0,0.0,0.0,0.0,0.0,0.0,0.0,0.0,0.0,0.0,0.0,0.0,0.0,0.0,0.0,0.0,0.0,0.0,0.0,0.0,0.0,0.0,0.0,0.0,0.0,0.0,0.0,0.0,0.0,0.0,0.0,0.0,0.0,0.0,0.0,0.0,0.0,0.0,0.0,0.0,0.0,0.0,0.0,0.0,0.0,0.0,0.0,0.0,0.0,0.0,0.0,0.0,0.0,0.0,0.0,0.0,0.0,-3.8399,-3.6783,-3.6383,-3.5303,-3.3415,0.0,0.0,0.0,0.0,0.0,0.0,0.0,0.0,0.0,0.0,0.0,0.0,0.0,0.0,0.0,0.0,0.0,0.0,0.0,0.0,0.0,0.0,0.0,0.0,0.0,0.0,0.0,0.0,0.0,0.0,0.0,0.0,0.0,0.0,0.0,0.0,0.0,0.0,0.0,0.0,0.0,0.0,0.0,0.0,0.0,0.0,0.0,0.0,0.0,0.0,0.0,0.0,0.0,0.0,0.0,0.0,0.0,0.0,0.0,0.0,0.0,0.0,0.0,0.0,0.0,0.0,0.0,0.0,0.0,0.0,0.0,0.0,0.0,0.0,0.0,0.0,0.0,0.0,0.0,0.0,0.0,0.0,0.0,0.0,0.0,0.0,0.0,0.0,0.0,0.0,0.0,0.0,0.0,0.0,0.0,0.0,0.0,0.0,0.0,0.0,0.0,0.0,0.0,0.0,0.0,0.0,0.0,0.0,0.0,0.0,0.0,0.0,-3.6214,-3.51,-3.2998,0.0,0.0,0.0,0.0,0.0,0.0,0.0,0.0,0.0,0.0,0.0,0.0,0.0,0.0,0.0,0.0,0.0,0.0,0.0,0.0,0.0,0.0,0.0,0.0,0.0,0.0,0.0,0.0,0.0,0.0,0.0,0.0,0.0,0.0,0.0,0.0,0.0,0.0,0.0,0.0,0.0,0.0,0.0,0.0,0.0,0.0,0.0,0.0,0.0,0.0,0.0,0.0,0.0,0.0,0.0,0.0,0.0,0.0,0.0,0.0,0.0,0.0,0.0,0.0,0.0,0.0,0.0,0.0,0.0,0.0,0.0,0.0,0.0,0.0,0.0,0.0,0.0,0.0,0.0,0.0,0.0,0.0,0.0,0.0,0.0,0.0,0.0,0.0,0.0,0.0,0.0,0.0,0.0,0.0,0.0,0.0,0.0,0.0,0.0,0.0,0.0,0.0,0.0,0.0,0.0,0.0,0.0,0.0,0.0,0.0,-3.79,-3.6461,-3.563,0.0,-3.258,0.0,0.0,0.0,0.0,0.0,0.0,0.0,0.0,0.0,0.0,0.0,0.0,0.0,0.0,0.0,0.0,0.0,0.0,0.0,0.0,0.0,0.0,0.0,0.0,0.0,0.0,0.0,0.0,0.0,0.0,0.0,0.0,0.0,0.0,0.0,0.0,0.0,0.0,0.0,0.0,0.0,0.0,0.0,0.0,0.0,0.0,0.0,0.0,0.0,0.0,0.0,0.0,0.0,0.0,0.0,0.0,0.0,0.0,0.0,0.0,0.0,0.0,0.0,0.0,0.0,0.0,0.0,0.0,0.0,0.0,0.0,0.0,0.0,0.0,0.0,0.0,0.0,0.0,0.0,0.0,0.0,0.0,0.0,0.0,0.0,0.0,0.0,0.0,0.0,0.0,0.0,0.0,0.0,0.0,0.0,0.0,0.0,0.0,0.0,0.0,0.0,0.0,0.0,0.0,0.0,0.0,0.0,0.0,0.0,0.0,-3.7315,-3.563,-3.426,-3.3168,0.0,0.0,0.0,0.0,0.0,0.0,0.0,0.0,0.0,0.0,0.0,0.0,0.0,0.0,0.0,0.0,0.0,0.0,0.0,0.0,0.0,0.0,0.0,0.0,0.0,0.0,0.0,0.0,0.0,0.0,0.0,0.0,0.0,0.0,0.0,0.0,0.0,0.0,0.0,0.0,0.0,0.0,0.0,0.0,0.0,0.0,0.0,0.0,0.0,0.0,0.0,0.0,0.0,0.0,0.0,0.0,0.0,0.0,0.0,0.0,0.0,0.0,0.0,0.0,0.0,0.0,0.0,0.0,0.0,0.0,0.0,0.0,0.0,0.0,0.0,0.0,0.0,0.0,0.0,0.0,0.0,0.0,0.0,0.0,0.0,0.0,0.0,0.0,0.0,0.0,0.0,0.0,0.0,0.0,0.0,0.0,0.0,0.0,0.0,0.0,0.0,0.0,0.0,0.0,0.0,0.0,0.0,0.0,0.0,0.0,-3.7784,-3.6623,-3.4989,-3.3276,-3.2422,-3.2358,0.0,0.0,0.0,0.0,0.0,0.0,0.0,0.0,0.0,0.0,0.0,0.0,0.0,0.0,0.0,0.0,0.0,0.0,0.0,0.0,0.0,0.0,0.0,0.0,0.0,0.0,0.0,0.0,0.0,0.0,0.0,0.0,0.0,0.0,0.0,0.0,0.0,0.0,0.0,0.0,0.0,0.0,0.0,0.0,0.0,0.0,0.0,0.0,0.0,0.0,0.0,0.0,0.0,0.0,0.0,0.0,0.0,0.0,0.0,0.0,0.0,0.0,0.0,0.0,0.0,0.0,0.0,0.0,0.0,0.0,0.0,0.0,0.0,0.0,0.0,0.0,0.0,0.0,0.0,0.0,0.0,0.0,0.0,0.0,0.0,0.0,0.0,0.0,0.0,0.0,0.0,0.0,0.0,0.0,0.0,0.0,0.0,0.0,0.0,0.0,0.0,0.0,0.0,0.0,0.0,0.0,0.0,0.0,-3.7827,-3.7066,-3.5914,-3.4483,-3.3121,-3.2422,0.0,0.0,0.0,0.0,0.0,0.0,0.0,0.0,0.0,0.0,0.0,0.0,0.0,0.0,0.0,0.0,0.0,0.0,0.0,0.0,0.0,0.0,0.0,0.0,0.0,0.0,0.0,0.0,0.0,0.0,0.0,0.0,0.0,0.0,0.0,0.0,0.0,0.0,0.0,0.0,0.0,0.0,0.0,0.0,0.0,0.0,0.0,0.0,0.0,0.0,0.0,0.0,0.0,0.0,0.0,0.0,0.0,0.0,0.0,0.0,0.0,0.0,0.0,0.0,0.0,0.0,0.0,0.0,0.0,0.0,0.0,0.0,0.0,0.0,0.0,0.0,0.0,0.0,0.0,0.0,0.0,0.0,0.0,0.0,0.0,0.0,0.0,0.0,0.0,0.0,0.0,0.0,0.0,0.0,0.0,0.0,0.0,0.0,0.0,0.0,0.0,0.0,0.0,0.0,0.0,0.0,0.0,0.0,0.0,-3.7359,-3.5956,-3.496,-3.436,-3.3102,-3.2275,0.0,0.0,0.0,0.0,0.0,0.0,0.0,0.0,0.0,0.0,0.0,0.0,0.0,0.0,0.0,0.0,0.0,0.0,0.0,0.0,0.0,0.0,0.0,0.0,0.0,0.0,0.0,0.0,0.0,0.0,0.0,0.0,0.0,0.0,0.0,0.0,0.0,0.0,0.0,0.0,0.0,0.0,0.0,0.0,0.0,0.0,0.0,0.0,0.0,0.0,0.0,0.0,0.0,0.0,0.0,0.0,0.0,0.0,0.0,0.0,0.0,0.0,0.0,0.0,0.0,0.0,0.0,0.0,0.0,0.0,0.0,0.0,0.0,0.0,0.0,0.0,0.0,0.0,0.0,0.0,0.0,0.0,0.0,0.0,0.0,0.0,0.0,0.0,0.0,0.0,0.0,0.0,0.0,0.0,0.0,0.0,0.0,0.0,0.0,0.0,0.0,0.0,0.0,0.0,0.0,0.0,0.0,0.0,0.0,-3.6791,0.0,-3.4785,-3.4581,-3.3315,-3.2426,0.0,0.0,0.0,0.0,0.0,0.0,0.0,0.0,0.0,0.0,0.0,0.0,0.0,0.0,0.0,0.0,0.0,0.0,0.0,0.0,0.0,0.0,0.0,0.0,0.0,0.0,0.0,0.0,0.0,0.0,0.0,0.0,0.0,0.0,0.0,0.0,0.0,0.0,0.0,0.0,0.0,0.0,0.0,0.0,0.0,0.0,0.0,0.0,0.0,0.0,0.0,0.0,0.0,0.0,0.0,0.0,0.0,0.0,0.0,0.0,0.0,0.0,0.0,0.0,0.0,0.0,0.0,0.0,0.0,0.0,0.0,0.0,0.0,0.0,0.0,0.0,0.0,0.0,0.0,0.0,0.0,0.0,0.0,0.0,0.0,0.0,0.0,0.0,0.0,0.0,0.0,0.0,0.0,0.0,0.0,0.0,0.0,0.0,0.0,0.0,0.0,0.0,0.0,0.0,0.0,0.0,0.0,0.0,-3.7361,-3.6163,-3.5916,-3.5574,-3.5127,-3.3824,-3.2728,0.0,0.0,0.0,0.0,0.0,0.0,0.0,0.0,0.0,0.0,0.0,0.0,0.0,0.0,0.0,0.0,0.0,0.0,0.0,0.0,0.0,0.0,0.0,0.0,0.0,0.0,0.0,0.0,0.0,0.0,0.0,0.0,0.0,0.0,0.0,0.0,0.0,0.0,0.0,0.0,0.0,0.0,0.0,0.0,0.0,0.0,0.0,0.0,0.0,0.0,0.0,0.0,0.0,0.0,0.0,0.0,0.0,0.0,0.0,0.0,0.0,0.0,0.0,0.0,0.0,0.0,0.0,0.0,0.0,0.0,0.0,0.0,0.0,0.0,0.0,0.0,0.0,0.0,0.0,0.0,0.0,0.0,0.0,0.0,0.0,0.0,0.0,0.0,0.0,0.0,0.0,0.0,0.0,0.0,0.0,0.0,0.0,0.0,0.0,0.0,0.0,0.0,0.0,0.0,0.0,0.0,0.0,0.0,0.0,-3.6618,-3.6272,-3.597,-3.557,-3.4446,-3.3405,0.0,0.0,0.0,0.0,0.0,0.0,0.0,0.0,0.0,0.0,0.0,0.0,0.0,0.0,0.0,0.0,0.0,0.0,0.0,0.0,0.0,0.0,0.0,0.0,0.0,0.0,0.0,0.0,0.0,0.0,0.0,0.0,0.0,0.0,0.0,0.0,0.0,0.0,0.0,0.0,0.0,0.0,0.0,0.0,0.0,0.0,0.0,0.0,0.0,0.0,0.0,0.0,0.0,0.0,0.0,0.0,0.0,0.0,0.0,0.0,0.0,0.0,0.0,0.0,0.0,0.0,0.0,0.0,0.0,0.0,0.0,0.0,0.0,0.0,0.0,0.0,0.0,0.0,0.0,0.0,0.0,0.0,0.0,0.0,0.0,0.0,0.0,0.0,0.0,0.0,0.0,0.0,0.0,0.0,0.0,0.0,0.0,0.0,0.0,0.0,0.0,0.0,0.0,0.0,0.0,0.0,0.0,0.0,0.0,-3.7767,-3.7308,-3.6811,-3.632,-3.5242,-3.4042,-3.2767,0.0,0.0,0.0,0.0,0.0,0.0,0.0,0.0,0.0,0.0,0.0,0.0,0.0,0.0,0.0,0.0,0.0,0.0,0.0,0.0,0.0,0.0,0.0,0.0,0.0,0.0,0.0,0.0,0.0,0.0,0.0,0.0,0.0,0.0,0.0,0.0,0.0,0.0,0.0,0.0,0.0,0.0,0.0,0.0,0.0,0.0,0.0,0.0,0.0,0.0,0.0,0.0,0.0,0.0,0.0,0.0,0.0,0.0,0.0,0.0,0.0,0.0,0.0,0.0,0.0,0.0,0.0,0.0,0.0,0.0,0.0,0.0,0.0,0.0,0.0,0.0,0.0,0.0,0.0,0.0,0.0,0.0,0.0,0.0,0.0,0.0,0.0,0.0,0.0,0.0,0.0,0.0,0.0,0.0,0.0,0.0,0.0,0.0,0.0,0.0,0.0,0.0,0.0,0.0,0.0,0.0,0.0,0.0,-3.9567,-3.8821,-3.8051,-3.7179,-3.6152,-3.4814,0.0,0.0,0.0,0.0,0.0,0.0,0.0,0.0,0.0,0.0,0.0,0.0,0.0,0.0,0.0,0.0,0.0,0.0,0.0,0.0,0.0,0.0,0.0,0.0,0.0,0.0,0.0,0.0,0.0,0.0,0.0,0.0,0.0,0.0,0.0,0.0,0.0,0.0,0.0,0.0,0.0,0.0,0.0,0.0,0.0,0.0,0.0,0.0,0.0,0.0,0.0,0.0,0.0,0.0,0.0,0.0,0.0,0.0,0.0,0.0,0.0,0.0,0.0,0.0,0.0,0.0,0.0,0.0,0.0,0.0,0.0,0.0,0.0,0.0,0.0,0.0,0.0,0.0,0.0,0.0,0.0,0.0,0.0,0.0,0.0,0.0,0.0,0.0,0.0,0.0,0.0,0.0,0.0,0.0,0.0,0.0,0.0,0.0,0.0,0.0,0.0,0.0,0.0,0.0,0.0,0.0,0.0,0.0,0.0,-4.1283,-4.0927,-3.9832,-3.8154,-3.7173,-3.6074,0.0,0.0,0.0,0.0,0.0,0.0,0.0,0.0,0.0,0.0,0.0,0.0,0.0,0.0,0.0,0.0,0.0,0.0,0.0,0.0,0.0,0.0,0.0,0.0,0.0,0.0,0.0,0.0,0.0,0.0,0.0,0.0,0.0,0.0,0.0,0.0,0.0,0.0,0.0,0.0,0.0,0.0,0.0,0.0,0.0,0.0,0.0,0.0,0.0,0.0,0.0,0.0,0.0,0.0,0.0,0.0,0.0,0.0,0.0,0.0,0.0,0.0,0.0,0.0,0.0,0.0,0.0,0.0,0.0,0.0,0.0,0.0,0.0,0.0,0.0,0.0,0.0,0.0,0.0,0.0,0.0,0.0,0.0,0.0,0.0,0.0,0.0,0.0,0.0,0.0,0.0,0.0,0.0,0.0,0.0,0.0,0.0,0.0,0.0,0.0,0.0,0.0,0.0,0.0,0.0,0.0,0.0,0.0,-4.1134,-4.1714,-4.1922,-4.1214,-3.9605,-3.8536,-3.714,0.0,0.0,0.0,0.0,0.0,0.0,0.0,0.0,0.0,0.0,0.0,0.0,0.0,0.0,0.0,0.0,0.0,0.0,0.0,0.0,0.0,0.0,0.0,0.0,0.0,0.0,0.0,0.0,0.0,0.0,0.0,0.0,0.0,0.0,0.0,0.0,0.0,0.0,0.0,0.0,0.0,0.0,0.0,0.0,0.0,0.0,0.0,0.0,0.0,0.0,0.0,0.0,0.0,0.0,0.0,0.0,0.0,0.0,0.0,0.0,0.0,0.0,0.0,0.0,0.0,0.0,0.0,0.0,0.0,0.0,0.0,0.0,0.0,0.0,0.0,0.0,0.0,0.0,0.0,0.0,0.0,0.0,0.0,0.0,0.0,0.0,0.0,0.0,0.0,0.0,0.0,0.0,0.0,0.0,0.0,0.0,0.0,0.0,0.0,0.0,0.0,0.0,0.0,0.0,0.0,0.0,0.0,0.0,-4.1361,-4.1527,-4.2386,-4.2311,-4.1157,-3.9925,-3.8132,0.0,0.0,0.0,0.0,0.0,0.0,0.0,0.0,0.0,0.0,0.0,0.0,0.0,0.0,0.0,0.0,0.0,0.0,0.0,0.0,0.0,0.0,0.0,0.0,0.0,0.0,0.0,0.0,0.0,0.0,0.0,0.0,0.0,0.0,0.0,0.0,0.0,0.0,0.0,0.0,0.0,0.0,0.0,0.0,0.0,0.0,0.0,0.0,0.0,0.0,0.0,0.0,0.0,0.0,0.0,0.0,0.0,0.0,0.0,0.0,0.0,0.0,0.0,0.0,0.0,0.0,0.0,0.0,0.0,0.0,0.0,0.0,0.0,0.0,0.0,0.0,0.0,0.0,0.0,0.0,0.0,0.0,0.0,0.0,0.0,0.0,0.0,0.0,0.0,0.0,0.0,0.0,0.0,0.0,0.0,0.0,0.0,0.0,0.0,0.0,0.0,0.0,0.0,0.0,0.0,0.0,0.0,0.0,-4.1679,-4.2522,-4.3089,-4.2766,-4.1641,-4.0378,-3.8714,0.0,0.0,0.0,0.0,0.0,0.0,0.0,0.0,0.0,0.0,0.0,0.0,0.0,0.0,0.0,0.0,0.0,0.0,0.0,0.0,0.0,0.0,0.0,0.0,0.0,0.0,0.0,0.0,0.0,0.0,0.0,0.0,0.0,0.0,0.0,0.0,0.0,0.0,0.0,0.0,0.0,0.0,0.0,0.0,0.0,0.0,0.0,0.0,-1.1495,0.0,0.0,0.0,0.0,0.0,0.0,0.0,0.0,0.0,0.0,0.0,0.0,0.0,0.0,0.0,0.0,0.0,0.0,0.0,0.0,0.0,0.0,0.0,0.0,0.0,0.0,0.0,0.0,0.0,0.0,0.0,0.0,0.0,0.0,0.0,0.0,0.0,0.0,0.0,0.0,0.0,0.0,0.0,0.0,0.0,0.0,0.0,0.0,0.0,0.0,0.0,0.0,0.0,0.0,0.0,0.0,0.0,0.0,0.0,-4.18,-4.2543,-4.321,-4.3091,-4.2044,-4.0773,-3.9062,0.0,0.0,0.0,0.0,0.0,0.0,0.0,0.0,0.0,0.0,0.0,0.0,0.0,0.0,0.0,0.0,0.0,0.0,0.0,0.0,0.0,0.0,0.0,0.0,0.0,0.0,0.0,0.0,0.0,0.0,0.0,0.0,0.0,0.0,0.0,0.0,0.0,0.0,0.0,0.0,0.0,0.0,0.0,0.0,0.0,0.0,0.0,0.0,0.0,0.0,0.0,0.0,0.0,0.0,0.0,0.0,0.0,0.0,0.0,0.0,0.0,0.0,0.0,0.0,0.0,0.0,0.0,0.0,0.0,0.0,0.0,0.0,0.0,0.0,0.0,0.0,0.0,0.0,0.0,0.0,0.0,0.0,0.0,0.0,0.0,0.0,0.0,0.0,0.0,0.0,0.0,0.0,0.0,0.0,0.0,0.0,0.0,0.0,0.0,0.0,0.0,0.0,0.0,0.0,0.0,0.0,0.0,-4.1117,-4.1835,-4.2299,-4.3105,-4.3157,-4.237,-4.1052,-3.9258,-3.691,0.0,0.0,0.0,0.0,0.0,0.0,0.0,0.0,0.0,0.0,0.0,0.0,0.0,0.0,0.0,0.0,0.0,0.0,0.0,0.0,0.0,0.0,0.0,0.0,0.0,0.0,0.0,0.0,0.0,0.0,0.0,0.0,0.0,0.0,0.0,0.0,0.0,0.0,-1.7845,-1.6561,0.0,0.0,0.0,0.0,0.0,0.0,0.0,0.0,-1.1028,0.0,0.0,0.0,0.0,0.0,0.0,0.0,0.0,0.0,0.0,0.0,0.0,0.0,0.0,0.0,0.0,0.0,0.0,0.0,0.0,0.0,0.0,0.0,0.0,0.0,0.0,0.0,0.0,0.0,0.0,0.0,0.0,0.0,0.0,0.0,0.0,0.0,0.0,0.0,0.0,0.0,0.0,0.0,0.0,0.0,0.0,0.0,0.0,0.0,0.0,0.0,0.0,0.0,0.0,0.0,0.0,-4.0166,-4.1069,-4.1833,-4.2283,-4.2815,-4.2697,-4.1907,-4.0693,-3.9041,-3.694,0.0,0.0,0.0,0.0,0.0,0.0,0.0,0.0,0.0,0.0,0.0,0.0,0.0,0.0,0.0,0.0,0.0,0.0,0.0,0.0,0.0,0.0,0.0,0.0,0.0,0.0,0.0,0.0,0.0,0.0,0.0,0.0,0.0,0.0,0.0,0.0,0.0,0.0,0.0,-1.6058,-1.5241,0.0,0.0,0.0,0.0,0.0,0.0,0.0,0.0,-1.0775,0.0,0.0,0.0,0.0,0.0,0.0,0.0,0.0,0.0,0.0,0.0,0.0,0.0,0.0,0.0,0.0,0.0,0.0,0.0,0.0,0.0,0.0,0.0,0.0,0.0,0.0,0.0,0.0,0.0,0.0,0.0,0.0,0.0,0.0,0.0,0.0,0.0,0.0,0.0,0.0,0.0,0.0,0.0,0.0,0.0,0.0,0.0,0.0,0.0,0.0,0.0,0.0,0.0,0.0,0.0,-3.9657,-4.0759,-4.1583,-4.2029,-4.2454,-4.2313,-4.1443,-4.0217,-3.8611,0.0,0.0,0.0,0.0,0.0,0.0,0.0,0.0,0.0,0.0,0.0,0.0,0.0,0.0,0.0,0.0,0.0,0.0,0.0,0.0,0.0,0.0,0.0,0.0,0.0,0.0,0.0,0.0,0.0,0.0,0.0,0.0,0.0,0.0,0.0,0.0,0.0,0.0,0.0,0.0,-1.5688,-1.5111,-1.4548,0.0,0.0,0.0,0.0,0.0,0.0,-1.1634,-1.1142,0.0,0.0,0.0,0.0,0.0,0.0,0.0,0.0,0.0,0.0,0.0,0.0,0.0,0.0,0.0,0.0,0.0,0.0,0.0,0.0,0.0,0.0,0.0,0.0,0.0,0.0,0.0,0.0,0.0,0.0,0.0,0.0,0.0,0.0,0.0,0.0,0.0,0.0,0.0,0.0,0.0,0.0,0.0,0.0,0.0,0.0,0.0,0.0,0.0,0.0,0.0,0.0,0.0,0.0,0.0,-3.9423,-4.0532,-4.1324,-4.1715,-4.2132,-4.183,-4.0958,-3.9759,-3.8254,0.0,0.0,0.0,0.0,0.0,0.0,0.0,0.0,0.0,0.0,0.0,0.0,0.0,0.0,0.0,0.0,0.0,0.0,0.0,0.0,0.0,0.0,0.0,0.0,0.0,0.0,0.0,0.0,0.0,0.0,0.0,0.0,0.0,0.0,0.0,0.0,0.0,0.0,0.0,0.0,0.0,-1.4944,-1.466,-1.3964,0.0,0.0,0.0,0.0,-1.2817,-1.213,0.0,0.0,0.0,0.0,0.0,0.0,0.0,0.0,0.0,0.0,0.0,0.0,0.0,0.0,0.0,0.0,0.0,0.0,0.0,0.0,0.0,0.0,0.0,0.0,0.0,0.0,0.0,0.0,0.0,0.0,0.0,0.0,0.0,0.0,0.0,0.0,0.0,0.0,0.0,0.0,0.0,0.0,0.0,0.0,0.0,0.0,0.0,0.0,0.0,0.0,0.0,0.0,0.0,0.0,0.0,0.0,-4.0197,-4.078,-4.1314,-4.1731,-4.183,-4.1443,-4.0568,-3.9376,-3.7802,0.0,0.0,0.0,0.0,0.0,0.0,0.0,0.0,0.0,0.0,0.0,0.0,0.0,0.0,0.0,0.0,0.0,0.0,0.0,0.0,0.0,0.0,0.0,0.0,0.0,0.0,0.0,0.0,0.0,0.0,0.0,0.0,0.0,0.0,0.0,0.0,0.0,0.0,0.0,0.0,0.0,-1.4747,-1.4426,-1.4041,-1.3705,0.0,0.0,-1.3534,-1.3193,-1.258,0.0,0.0,0.0,0.0,0.0,0.0,0.0,0.0,0.0,0.0,0.0,0.0,0.0,0.0,0.0,0.0,0.0,0.0,0.0,0.0,0.0,0.0,0.0,0.0,0.0,0.0,0.0,0.0,0.0,0.0,0.0,0.0,0.0,0.0,0.0,0.0,0.0,0.0,0.0,0.0,0.0,0.0,0.0,0.0,0.0,0.0,0.0,0.0,0.0,0.0,0.0,0.0,0.0,0.0,0.0,-3.8624,-3.9677,-4.0172,-4.0749,-4.1443,-4.1483,-4.1074,-4.0197,-3.9241,-3.7763,0.0,0.0,0.0,0.0,0.0,0.0,0.0,0.0,0.0,0.0,0.0,0.0,0.0,0.0,0.0,0.0,0.0,0.0,0.0,0.0,0.0,0.0,0.0,0.0,0.0,0.0,0.0,0.0,0.0,0.0,0.0,0.0,0.0,0.0,0.0,0.0,0.0,0.0,0.0,0.0,0.0,0.0,-1.4371,-1.4004,0.0,0.0,0.0,-1.3666,-1.3238,0.0,0.0,0.0,0.0,0.0,0.0,0.0,0.0,0.0,0.0,0.0,0.0,0.0,0.0,0.0,0.0,0.0,0.0,0.0,0.0,0.0,0.0,0.0,0.0,0.0,0.0,0.0,0.0,0.0,0.0,0.0,0.0,0.0,0.0,0.0,0.0,0.0,0.0,0.0,0.0,0.0,0.0,0.0,0.0,0.0,0.0,0.0,0.0,0.0,0.0,0.0,0.0,0.0,0.0,0.0,0.0,0.0,-3.9187,-3.9557,-4.0236,-4.1133,-4.1094,-4.0704,-3.9883,-3.903,0.0,0.0,0.0,0.0,0.0,0.0,0.0,0.0,0.0,0.0,0.0,0.0,0.0,0.0,0.0,0.0,0.0,0.0,0.0,0.0,0.0,0.0,0.0,0.0,0.0,0.0,0.0,-2.0136,0.0,0.0,0.0,0.0,0.0,0.0,0.0,0.0,0.0,0.0,0.0,0.0,0.0,0.0,-1.4365,-1.4231,-1.4029,-1.396,0.0,0.0,-1.3607,-1.3262,-1.2607,-1.2071,0.0,0.0,0.0,0.0,0.0,0.0,0.0,0.0,0.0,0.0,0.0,0.0,0.0,0.0,0.0,0.0,0.0,0.0,0.0,0.0,0.0,0.0,0.0,0.0,0.0,0.0,0.0,0.0,0.0,0.0,0.0,0.0,0.0,0.0,0.0,0.0,0.0,0.0,0.0,0.0,0.0,0.0,0.0,0.0,0.0,0.0,0.0,0.0,0.0,0.0,0.0,0.0,0.0,0.0,-3.762,-3.9238,-3.9335,-3.9912,-4.1133,-4.0763,-4.0353,-3.9902,-3.8721,-3.7341,0.0,0.0,0.0,0.0,0.0,0.0,0.0,0.0,0.0,0.0,0.0,0.0,0.0,0.0,0.0,0.0,0.0,0.0,0.0,0.0,0.0,0.0,0.0,0.0,0.0,0.0,0.0,0.0,0.0,0.0,0.0,0.0,0.0,0.0,0.0,0.0,0.0,0.0,0.0,0.0,0.0,-1.4393,-1.4107,-1.417,-1.4265,0.0,-1.3912,-1.3647,-1.3558,-1.2631,-1.1779,-1.1779,0.0,0.0,0.0,0.0,0.0,0.0,0.0,0.0,0.0,0.0,0.0,0.0,0.0,0.0,0.0,0.0,0.0,0.0,0.0,0.0,0.0,0.0,0.0,0.0,0.0,0.0,0.0,0.0,0.0,0.0,0.0,0.0,0.0,0.0,0.0,0.0,0.0,0.0,0.0,0.0,0.0,0.0,0.0,0.0,0.0,0.0,0.0,0.0,0.0,0.0,0.0,0.0,0.0,-3.7276,-3.8918,-3.9144,-3.9776,-4.0705,-4.0607,-4.0313,-3.9902,-3.8965,-3.7708,0.0,0.0,0.0,0.0,0.0,0.0,0.0,0.0,0.0,0.0,0.0,0.0,0.0,0.0,0.0,0.0,0.0,0.0,0.0,0.0,0.0,0.0,0.0,0.0,0.0,0.0,0.0,0.0,-1.9952,-1.946,-1.8631,0.0,0.0,0.0,0.0,0.0,0.0,0.0,0.0,0.0,0.0,-1.4071,-1.4135,-1.4204,0.0,0.0,-1.3679,-1.3407,-1.2793,-1.2219,-1.1704,-1.1446,-1.0985,0.0,0.0,0.0,0.0,0.0,0.0,0.0,0.0,0.0,0.0,0.0,0.0,0.0,0.0,0.0,0.0,0.0,0.0,0.0,0.0,0.0,0.0,0.0,0.0,0.0,0.0,0.0,0.0,0.0,0.0,0.0,0.0,0.0,0.0,0.0,0.0,0.0,0.0,0.0,0.0,0.0,0.0,0.0,0.0,0.0,0.0,0.0,0.0,0.0,0.0,0.0,0.0,-3.684,-3.8481,-3.8898,-3.9605,-4.049,-4.0372,-4.0216,-3.9902,-3.8881,-3.775,0.0,0.0,0.0,0.0,0.0,0.0,0.0,0.0,0.0,0.0,0.0,0.0,0.0,0.0,0.0,0.0,0.0,0.0,0.0,0.0,0.0,0.0,0.0,0.0,0.0,0.0,0.0,0.0,-1.9844,-1.9016,-1.7622,0.0,0.0,0.0,0.0,0.0,0.0,0.0,0.0,0.0,0.0,-1.3912,-1.4109,-1.4143,-1.3945,-1.3679,-1.3325,-1.297,-1.2254,-1.1899,-1.1502,-1.1242,0.0,0.0,0.0,0.0,0.0,0.0,0.0,0.0,0.0,0.0,0.0,0.0,0.0,0.0,0.0,0.0,0.0,0.0,0.0,0.0,0.0,0.0,0.0,0.0,0.0,0.0,0.0,-5.176,0.0,0.0,-4.998,0.0,0.0,0.0,0.0,0.0,0.0,0.0,0.0,0.0,0.0,0.0,0.0,0.0,0.0,0.0,0.0,0.0,0.0,0.0,0.0,0.0,0.0,-3.6421,-3.81,-3.85,-3.928,-4.0393,-4.0137,-3.9921,-3.9823,-3.8333,-3.7191,-3.6745,0.0,0.0,0.0,0.0,0.0,0.0,0.0,0.0,0.0,0.0,0.0,0.0,0.0,0.0,0.0,0.0,0.0,0.0,0.0,0.0,0.0,0.0,0.0,0.0,0.0,0.0,-2.031,-1.9341,-1.8326,0.0,0.0,0.0,0.0,0.0,0.0,0.0,0.0,0.0,-1.3777,-1.3838,-1.3953,-1.4245,-1.3938,-1.3591,-1.3591,-1.2787,-1.2254,-1.2165,-1.1698,-1.127,0.0,0.0,0.0,0.0,0.0,0.0,0.0,0.0,0.0,0.0,0.0,0.0,0.0,0.0,0.0,0.0,0.0,0.0,0.0,0.0,0.0,0.0,0.0,0.0,0.0,0.0,0.0,-5.3797,-5.3077,0.0,0.0,0.0,0.0,0.0,0.0,0.0,0.0,0.0,0.0,0.0,-5.0442,-4.9553,0.0,0.0,0.0,0.0,0.0,0.0,0.0,0.0,0.0,0.0,0.0,0.0,-3.6312,-3.7604,-3.8112,-3.8735,-3.9629,-3.9584,-3.9505,-3.9509,-3.8432,-3.7001,-3.5234,0.0,0.0,0.0,0.0,0.0,0.0,0.0,0.0,0.0,0.0,0.0,0.0,0.0,0.0,0.0,0.0,0.0,0.0,0.0,0.0,0.0,0.0,0.0,0.0,0.0,-2.0172,0.0,0.0,0.0,0.0,0.0,0.0,0.0,0.0,0.0,0.0,-1.3432,-1.3566,-1.381,-1.3926,-1.3981,-1.383,-1.3679,-1.3413,0.0,0.0,0.0,0.0,0.0,0.0,0.0,0.0,0.0,0.0,0.0,0.0,0.0,0.0,-0.8657,-0.8239,-0.7731,-0.7307,-0.6795,0.0,0.0,0.0,0.0,0.0,0.0,0.0,0.0,0.0,0.0,0.0,0.0,0.0,0.0,-5.5444,-5.4825,-5.4262,0.0,0.0,0.0,0.0,0.0,0.0,0.0,0.0,-5.1923,-5.1966,-5.2057,-5.1145,-5.0272,-4.9363,-4.774,-4.5852,0.0,0.0,0.0,0.0,0.0,0.0,0.0,0.0,-3.6219,-3.7374,-3.7881,-3.8502,-3.9235,-3.9347,-3.9189,-3.9035,-3.8084,-3.6587,-3.4446,-3.3453,-3.2046,0.0,0.0,0.0,0.0,0.0,0.0,0.0,0.0,0.0,0.0,0.0,0.0,0.0,0.0,0.0,0.0,0.0,0.0,0.0,0.0,0.0,0.0,0.0,-1.9967,0.0,0.0,0.0,0.0,0.0,0.0,0.0,0.0,0.0,-1.3329,-1.3505,-1.3702,-1.3899,-1.392,-1.3773,-1.366,0.0,0.0,0.0,0.0,0.0,0.0,0.0,-1.14,-1.14,-1.1373,-1.1351,-1.1351,-1.1082,-1.0641,-1.0019,0.0,0.0,-0.8486,-0.786,-0.7258,-0.702,-0.5712,-0.4571,-0.4307,-0.29,-0.1583,0.0,0.0,0.0,0.0,-5.7791,0.0,0.0,0.0,-5.7588,-5.7303,0.0,-5.5424,0.0,0.0,0.0,0.0,-5.3105,-5.2598,0.0,0.0,-5.3699,-5.3428,-5.2717,-5.204,-5.1308,-5.0527,-4.8519,-4.6978,-4.5688,-4.2532,-4.0313,0.0,0.0,0.0,0.0,0.0,-3.6219,-3.7374,-3.7831,-3.8471,-3.9235,-3.9272,-3.9035,-3.856,-3.7365,-3.5909,-3.4399,-3.3859,-3.2565,-3.0345,-2.99,0.0,0.0,0.0,0.0,0.0,0.0,0.0,0.0,0.0,0.0,0.0,0.0,0.0,0.0,0.0,0.0,0.0,0.0,0.0,0.0,-2.0341,0.0,0.0,0.0,0.0,0.0,0.0,0.0,0.0,0.0,-1.3634,-1.3654,-1.3654,-1.3749,-1.4034,0.0,0.0,0.0,0.0,-1.2171,-1.2177,-1.1821,-1.1465,-1.156,-1.1569,-1.1639,-1.1639,0.0,0.0,-1.1813,-1.1813,-1.1436,-1.0519,-1.0316,-0.988,-0.8715,-0.7703,-0.7098,-0.7167,-0.5657,-0.4401,-0.4224,-0.3145,-0.1977,-6.4137,0.0,0.0,0.0,0.0,-5.9751,-5.977,-5.9779,-5.9497,-5.9069,-5.8581,-5.8148,0.0,0.0,0.0,0.0,0.0,0.0,-5.5499,-5.5024,-5.5636,-5.5494,-5.4763,-5.4068,-5.3342,-5.2492,-5.0747,-4.9151,-4.7512,-4.4873,-4.2385,-3.9979,0.0,0.0,0.0,0.0,-3.6494,-3.7374,-3.7506,-3.7988,-3.878,-3.8798,-3.8481,-3.7747,-3.6804,-3.5668,-3.4335,-3.3638,-3.2442,-3.0683,-3.0023,0.0,0.0,0.0,0.0,0.0,0.0,0.0,0.0,0.0,0.0,0.0,0.0,0.0,0.0,0.0,0.0,0.0,0.0,0.0,-2.0487,-2.0477,-2.011,0.0,0.0,0.0,0.0,0.0,0.0,0.0,0.0,0.0,-1.4068,-1.4014,-1.3973,0.0,0.0,-1.3451,-1.3141,-1.2604,-1.2124,-1.1855,-1.1746,0.0,-1.1716,-1.1743,-1.1764,-1.1764,-1.1797,-1.1819,-1.1819,-1.1819,-1.1446,-1.0524,-1.034,-0.9959,-0.904,-0.7973,-0.7306,-0.7235,-0.5778,-0.4406,-0.4314,-0.3212,-0.211,-6.7293,-6.5149,-6.3746,-6.2743,-6.2152,-6.2118,-6.2162,-6.2169,-6.2025,-6.1674,-6.1144,-6.0674,-6.0143,-5.9543,-5.8621,0.0,0.0,0.0,-5.727,-5.6718,-5.7146,-5.6903,-5.6021,-5.5457,-5.4674,-5.3616,-5.1802,-5.012,-4.863,-4.6175,-4.3731,-4.1399,0.0,-3.7925,-3.7277,-3.6756,-3.6769,-3.7393,-3.7576,-3.7979,-3.8542,-3.8322,-3.7765,-3.6885,-3.6161,-3.5332,-3.4292,-3.3321,-3.2253,-3.0941,-3.005,-2.8739,0.0,0.0,0.0,0.0,0.0,0.0,0.0,0.0,0.0,0.0,0.0,-2.0429,-2.0583,0.0,0.0,0.0,-2.1082,-2.0905,-2.0412,-2.0386,0.0,0.0,0.0,0.0,0.0,0.0,0.0,-1.5496,-1.462,-1.4162,-1.4421,-1.4421,-1.4291,-1.434,-1.3879,-1.3393,-1.3124,0.0,-1.1983,-1.171,-1.177,-1.1819,-1.1819,-1.19,-1.1993,-1.2091,-1.2102,-1.2102,-1.2102,-1.1882,-1.147,-1.0712,-1.031,-0.9928,-0.9142,-0.8169,-0.7483,-0.739,-0.5896,-0.4496,-0.4496,-0.3464,-0.2342,-7.013,-6.8789,-6.6301,-6.5049,-6.4649,-6.4591,-6.4602,-6.4665,-6.4605,-6.4425,-6.4063,-6.2898,-6.2331,-6.218,-6.0375,0.0,-6.0097,-5.8869,-5.8371,-5.8483,-5.8392,-5.7712,-5.6585,-5.6255,-5.544,-5.423,-5.2091,-5.0355,-4.9038,-4.6617,-4.4516,-4.2911,-4.0211,-3.8533,-3.8008,-3.7238,-3.7062,-3.7411,-3.7814,-3.8218,-3.856,-3.7765,-3.6885,-3.6178,-3.5578,-3.4896,-3.4066,-3.3002,-3.1999,-3.1106,-3.0024,-2.8695,-2.6927,0.0,0.0,0.0,0.0,0.0,0.0,0.0,0.0,0.0,0.0,0.0,0.0,0.0,0.0,-2.1296,-2.1317,0.0,-2.0645,-2.0264,0.0,0.0,0.0,-1.8101,-1.8268,-1.6633,-1.563,-1.5853,0.0,0.0,-1.474,-1.4783,-1.4731,-1.4729,-1.3944,-1.3279,-1.3291,-1.2478,-1.1851,-1.1873,-1.1879,-1.1879,-1.1933,-1.208,-1.227,-1.2466,-1.2542,-1.2509,-1.2401,-1.2026,-1.1392,-1.0893,-1.0253,-0.9707,-0.9237,-0.8277,-0.7619,-0.7612,-0.5998,-0.4573,-0.4569,-0.3808,-0.276,-7.1452,-7.0543,-6.92,-6.7584,-6.5924,-6.549,-6.5288,-6.5261,-6.5024,-6.4725,-6.4425,-6.4156,-6.3583,-6.2819,-6.1896,-6.1203,-6.0835,-6.0373,-5.9815,-5.9102,-5.9238,-5.8525,-5.7246,-5.7103,-5.6309,-5.4746,-5.2865,-5.1166,-4.964,-4.7106,-4.5009,-4.3408,-4.1211,-3.9391,-3.8046,-3.7498,-3.7338,-3.7352,-3.7814,-3.8061,-3.8066,-3.6965,-3.6339,-3.6097,-3.4761,-3.3807,-3.3306,-3.2158,-3.1165,-3.0295,-2.9512,-2.8414,-2.7144,-2.5959,0.0,0.0,0.0,0.0,0.0,0.0,0.0,0.0,0.0,-2.0361,-2.0716,0.0,-2.1276,0.0,-2.1505,-2.1296,-2.0908,-2.0759,0.0,0.0,-1.9256,-1.8831,-1.8884,-1.7453,-1.6415,-1.6129,-1.5689,-1.5283,-1.5072,-1.5167,-1.5238,-1.5336,-1.4187,-1.3309,-1.3413,-1.2684,-1.2123,-1.221,-1.2292,-1.2362,-1.2357,-1.2406,-1.2391,-1.2504,-1.2477,-1.2536,-1.2536,-1.2047,-1.1392,-1.0907,-1.0349,-0.972,-0.9142,-0.8288,-0.7619,-0.7524,-0.6003,-0.4575,-0.4575,-0.3813,-0.2957,-7.2566,-7.1222,-7.0558,-6.9317,-6.7693,-6.7082,-6.661,-6.6372,-6.6192,-6.5952,-6.568,-6.5375,-6.4855,-6.4143,-6.329,-6.2715,-6.2357,-6.1619,-6.0822,-5.9926,-5.9558,-5.8664,-5.7379,-5.7235,-5.6286,-5.4623,-5.3059,-5.136,-4.9479,-4.7173,-4.5181,-4.3594,-4.1899,-4.022,-3.8614,-3.7961,-3.755,-3.7395,-3.762,-3.7611,-3.7428,-3.6581,-3.585,-3.5278,-3.4016,-3.3034,-3.2489,-3.132,-3.0411,-2.9779,-2.9076,-2.8054,-2.6658,-2.5721,-2.4649,0.0,0.0,0.0,0.0,0.0,0.0,0.0,0.0,0.0,0.0,0.0,-2.1549,-2.1779,-2.1663,-2.1396,-2.1074,-2.0842,-2.0632,-2.0365,-1.9572,-1.9156,-1.9332,-1.7975,-1.7119,-1.6987,-1.6386,-1.592,-1.5765,-1.5608,-1.5445,-1.5261,-1.4298,-1.3657,-1.3642,-1.2959,-1.2357,-1.2428,-1.2493,-1.2547,-1.258,-1.2602,-1.2645,-1.2628,-1.2721,-1.2596,-1.2393,-1.1809,-1.1231,-1.0597,-1.0033,-0.9568,-0.9154,-0.8288,-0.7619,-0.7334,-0.6003,-0.4766,-0.4575,-0.3813,-0.2957,-7.3531,-7.1593,-7.1116,-7.0419,-6.9569,-6.8861,-6.8179,-6.7548,-6.7548,-6.7304,-6.6999,-6.6319,-6.5819,-6.5475,-6.4454,-6.3965,-6.3834,-6.242,-6.1383,-6.0591,-5.9578,-5.8523,-5.7379,-5.6942,-5.5842,-5.418,-5.2865,-5.1171,-4.9038,-4.704,-4.5256,-4.3691,-4.2467,-4.1034,-3.9508,-3.8557,-3.7951,-3.7499,-3.7347,-3.7125,-3.6661,-3.6178,-3.5345,-3.4191,-3.3307,-3.2393,-3.149,-3.0453,-2.9641,-2.9152,-2.8511,-2.7443,-2.609,-2.5569,-2.4661,0.0,-2.2315,0.0,0.0,0.0,0.0,0.0,0.0,0.0,0.0,-2.1517,-2.1705,-2.194,-2.1724,-2.1492,-2.1243,-2.0833,-2.0502,-2.044,-1.9735,-1.9258,-1.9506,-1.8343,-1.771,-1.7912,-1.7128,-1.6544,-1.6415,-1.5945,-1.5491,-1.4945,-1.4523,-1.411,-1.3933,-1.3143,-1.2558,-1.2574,-1.258,-1.2629,-1.2678,-1.271,-1.2765,-1.2863,-1.2873,-1.269,-1.2174,-1.1585,-1.089,-1.0299,-0.9717,-0.9248,-0.9163,-0.8288,-0.7619,-0.7524,-0.6003,-0.4671,-0.448,-0.3813,-0.2957,-7.4276,-7.3295,-7.1871,-7.0959,-7.0544,-6.9604,-6.8713,-6.791,-6.7608,-6.7304,-6.6937,-6.6319,-6.5945,-6.5819,-6.4547,-6.3834,-6.3413,-6.2326,-6.1247,-6.0246,-5.9438,-5.8523,-5.7354,-5.656,-5.5465,-5.4131,-5.2477,-5.0815,-4.9089,-4.7336,-4.5704,-4.4071,-4.2907,-4.1636,-4.0316,0.0,0.0,0.0,-3.717,-3.6661,-3.6178,-3.545,-3.4456,-3.3291,-3.2426,0.0,-2.9948,-2.9385,-2.8753,-2.7954,-2.7518,0.0,0.0,0.0,0.0,0.0,0.0,0.0,0.0,0.0,0.0,0.0,-2.1641,-2.1578,-2.1868,-2.1895,-2.1919,-2.1876,-2.1542,-2.1224,-2.1163,-2.0958,-2.0664,-2.0465,-1.998,-1.9706,-1.9543,-1.8901,-1.8368,-1.8031,-1.756,-1.7059,-1.66,-1.6229,-1.581,-1.5183,-1.48,-1.4304,-1.3807,-1.3122,-1.271,-1.2797,-1.2803,-1.2819,-1.2841,-1.2841,-1.2852,-1.2884,-1.289,-1.269,-1.2179,-1.1595,-1.0895,-1.0304,-0.9726,-0.9252,-0.9163,-0.8284,-0.7619,-0.7619,-0.6003,-0.4575,-0.4575,-0.3813,-0.3052,-7.4754,-7.3823,-7.2778,-7.1983,0.0,-7.0652,-6.9749,-6.8666,-6.8031,-6.7487,-6.6999,-6.6319,-6.6037,-6.5945,-6.4612,-6.3769,-6.3348,-6.2086,-6.107,-6.0177,-5.8991,-5.794,-5.6944,-5.5876,-5.473,-5.3369,-5.1922,-5.0384,-4.8745,-4.732,-4.5779,-4.4201,-4.3233,-4.2062,-4.0821,-3.9588,-3.8542,-3.7685,-3.7045,-3.642,-3.5757,-3.5109,-3.4213,-3.2968,-3.2133,0.0,0.0,0.0,0.0,0.0,0.0,0.0,0.0,-2.5193,-2.4369,-2.3444,-2.297,-2.2552,-2.2031,-2.1929,-2.2072,-2.2309,-2.2223,-2.2068,-2.1838,-2.1869,-2.1856,-2.1731,-2.15,-2.1316,-2.1346,-2.1185,-2.1048,-2.0776,-2.0327,-1.9889,-1.9581,-1.914,-1.8794,-1.8582,-1.7984,-1.7447,-1.7151,-1.622,-1.5479,-1.4981,-1.4482,-1.3884,-1.3384,-1.3035,-1.2825,-1.2879,-1.289,-1.289,-1.289,-1.289,-1.289,-1.289,-1.289,-1.259,-1.1884,-1.1439,-1.097,-1.008,-0.9599,-0.9314,-0.9136,-0.8317,-0.7619,-0.7429,-0.6193,-0.4863,-0.4671,-0.3813,-0.3148,-7.5136,-7.4075,-7.3623,-7.2951,-7.2064,-7.1643,-7.0702,-6.9427,-6.8364,0.0,0.0,-6.6319,-6.6037,-6.5882,-6.4612,-6.3769,-6.3216,-6.1912,-6.0892,-6.0039,-5.8567,-5.7403,-5.6437,-5.5218,-5.3926,-5.2607,-5.1369,-4.9955,-4.84,-4.7259,-4.5928,-4.4352,-4.3539,-4.239,-4.0997,-3.9509,-3.8322,-3.7525,-3.6965,-3.6258,-3.5352,-3.4946,-3.4115,-3.271,-3.2062,-3.0977,-2.9326,-2.8913,-2.8241,-2.7116,-2.6626,-2.6174,-2.56,-2.5207,-2.4489,-2.3442,-2.3378,-2.3017,-2.22,-2.2374,-2.2536,-2.2587,-2.2616,-2.2317,-2.159,-2.174,-2.176,-2.1423,-2.1471,-2.1461,-2.1526,-2.1508,-2.1414,-2.0942,-2.049,-2.008,-1.9678,-1.9322,-1.9086,-1.9026,-1.8251,-1.7672,-1.7466,-1.6268,-1.5074,-1.4576,-1.4083,-1.349,-1.299,-1.2884,-1.2879,-1.289,-1.289,-1.289,-1.289,-1.289,-1.289,-1.289,-1.289,-1.2489,-1.1583,-1.1282,-1.084,-0.9749,-0.9477,-0.9395,-0.9297,-0.8454,-0.7732,-0.7623,-0.6479,-0.5242,-0.4671,-0.391,-0.3243,-7.5391,-7.4707,-7.408,-7.3411,-7.2688,-7.2067,-7.1131,-6.9823,-6.8273,-6.7365,-6.6937,-6.6319,-6.6037,-6.5945,-6.4612,-6.361,-6.2886,-6.1844,-6.0687,-5.9621,-5.8426,-5.7403,-5.6412,-5.4888,-5.3555,-5.2487,-5.0984,-4.9603,-4.84,-4.7575,-4.6299,-4.4805,-4.3919,-4.2524,-4.0666,-3.9647,-3.878,-3.7924,-3.7125,-3.6097,-3.4946,-3.4783,-3.3872,-3.2011,-3.1752,-3.0758,-2.8758,-2.8663,-2.8244,-2.731,-2.6822,-2.6358,-2.5988,-2.5495,-2.4671,-2.3488,-2.3709,-2.3522,-2.2686,-2.2998,-2.2988,-2.2401,-2.2393,-2.2142,-2.1578,-2.1507,-2.1432,-2.1287,-2.1365,-2.1489,-2.148,-2.1641,-2.1447,-2.0667,-2.05,-2.019,-1.9487,-1.9306,-1.9117,-1.8647,-1.8069,-1.7474,-1.707,-1.597,-1.5081,-1.4576,-1.3983,-1.349,-1.309,-1.289,-1.289,-1.289,-1.289,-1.289,-1.289,-1.289,-1.289,-1.289,-1.289,-1.259,-1.1483,-1.1282,-1.0849,-0.9761,-0.953,-0.9461,-0.9326,-0.8788,-0.817,-0.7738,-0.6678,-0.5718,-0.4861,-0.4101,-0.3529,-7.5545,-7.5102,-7.464,-7.4068,-7.3374,-7.239,-7.1445,-7.046,-6.9334,-6.8331,-6.7446,-6.6468,-6.6037,-6.5882,-6.4612,-6.3545,-6.282,-6.1546,-6.0453,-5.9508,-5.8239,-5.7106,-5.5932,-5.4448,-5.3165,-5.2119,-5.0555,-4.9317,-4.8377,-4.7575,-4.6374,-4.4805,-4.3594,-4.2216,-4.0821,-4.0059,-3.9114,-3.8004,-3.7365,-3.6322,-3.4865,-3.4783,-3.3903,-3.2027,-3.1945,-3.1041,-2.8987,-2.8891,-2.8412,-2.735,-2.6613,-2.628,-2.6185,-2.5354,-2.4555,-2.3977,-2.3862,-2.362,-2.3151,-2.3397,-2.3417,-2.2922,-2.2668,-2.226,-2.1908,-2.1641,-2.1494,-2.1329,-2.1518,-2.1688,-2.1792,-2.1608,-2.1265,-2.0676,-2.0409,-1.9953,-1.9437,-1.9264,-1.9058,-1.8556,-1.8061,-1.7466,-1.697,-1.5671,-1.4775,-1.4482,-1.3784,-1.3184,-1.289,-1.289,-1.289,-1.289,-1.289,-1.289,-1.289,-1.289,-1.289,-1.289,-1.289,-1.2489,-1.1583,-1.1282,-1.0863,-0.9924,-0.9579,-0.9518,-0.9424,-0.885,-0.831,-0.7807,-0.7077,-0.6199,-0.5242,-0.4385,-0.3529,-7.5661,-7.5342,-7.5016,-7.4539,-7.3813,-7.2767,-7.1874,-7.119,-7.0521,-6.942,-6.8041,-6.676,-6.6155,-6.5882,-6.4612,-6.361,-6.2753,-6.1383,-6.0315,-5.9508,-5.8096,-5.6764,-5.5599,-5.4085,-5.2757,-5.1614,-5.0151,-4.9101,-4.8232,-4.7575,-4.6299,-4.4654,-4.3136,-4.1985,-4.123,-4.0372,-3.9272,-3.8243,-3.7667,-3.6563,-3.4865,-3.4783,-3.3968,-3.2339,-3.2174,-3.1294,-2.9311,-2.9214,-2.8689,-2.7564,-2.6644,-2.6274,-2.6541,-2.5301,-2.4578,-2.4463,-2.4127,-2.3831,-2.3626,-2.372,-2.3732,-2.3454,-2.2964,-2.25,-2.2192,-2.1838,-2.1584,-2.1574,-2.1735,-2.1924,-2.2047,-2.1648,-2.1253,-2.0808,-2.0333,-1.984,-1.9355,-1.9256,-1.896,-1.8358,-1.7863,-1.7268,-1.6467,-1.5373,-1.4476,-1.4083,-1.3384,-1.299,-1.289,-1.289,-1.289,-1.289,-1.289,-1.289,-1.289,-1.289,-1.289,-1.289,-1.289,-1.2484,-1.1783,-1.1383,-1.0982,-1.0166,-0.9724,-0.9567,-0.9439,-0.9146,-0.8577,-0.8074,-0.7522,-0.6693,-0.5337,-0.4385,-0.3624,-7.5661,-7.5342,-7.5016,-7.4508,-7.3905,-7.3508,-7.2736,-7.1858,-7.1157,-6.9989,-6.8445,-6.7348,-6.6568,-6.5849,-6.4612,-6.361,-6.282,-6.1383,-6.0315,-5.9508,-5.8096,-5.6764,-5.5599,-5.4085,-5.2686,-5.1263,-5.008,-4.8933,-4.7941,-4.7355,-4.6151,-4.4352,-4.2984,-4.2236,-4.1618,-4.0548,-3.943,-3.8524,-3.7747,-3.6546,-3.4946,-3.4783,-3.3968,-3.2257,-3.2174,-3.1316,-2.9621,-2.9439,-2.9021,-2.8154,-2.7227,-2.6834,-2.7002,-2.5834,-2.4923,-2.4772,-2.4453,-2.4236,-2.4011,-2.4064,-2.3903,-2.3394,-2.3097,-2.266,-2.2344,-2.2106,-2.1952,-2.1849,-2.1952,-2.2075,-2.2104,-2.1758,-2.1281,-2.0817,-2.0333,-1.9849,-1.9355,-1.8861,-1.8358,-1.787,-1.7268,-1.6566,-1.5678,-1.4875,-1.4077,-1.3284,-1.309,-1.289,-1.289,-1.289,-1.289,-1.289,-1.289,-1.289,-1.289,-1.289,-1.289,-1.289,-1.289,-1.259,-1.2089,-1.1583,-1.1087,-1.048,-0.9974,-0.9632,-0.9579,-0.9419,-0.919,-0.8547,-0.7887,-0.7032,-0.5258,-0.4295,-0.3629,-7.5777,-7.5603,-7.5075,-7.4539,-7.3905,-7.3601,-7.2952,-7.201,-7.1704,-7.0618,-6.9035,-6.8028,-6.6789,-6.5378,-6.439,-6.3507,-6.2554,-6.1275,-6.0177,-5.9228,-5.8025,-5.655,-5.5062,-5.3967,-5.2519,-5.0932,-4.9938,-4.8933,-4.7794,-4.6448,-4.5256,-4.4243,-4.3249,-4.2695,-4.2423,-4.1224,-4.0122,-3.9318,-3.8446,-3.7223,-3.5626,-3.4998,-3.4064,-3.2585,-3.2449,-3.1702,-3.0255,-3.0027,-2.96,-2.8757,-2.7797,-2.7317,-2.7432,-2.5886,-2.4948,-2.5023,-2.4552,-2.4193,-2.4107,-2.4118,-2.408,-2.4034,-2.3282,-2.2967,-2.2954,-2.2471,-2.2104,-2.2151,-2.2227,-2.2264,-2.2176,-2.1557,-2.1022,-2.0727,-2.0046,-1.9355,-1.8853,-1.8655,-1.816,-1.7367,-1.6772,-1.6175,-1.5379,-1.4582,-1.3784,-1.309,-1.289,-1.289,-1.289,-1.289,-1.289,-1.289,-1.289,-1.289,-1.289,-1.289,-1.289,-1.289,-1.289,-1.269,-1.2184,-1.1683,-1.1082,-1.058,-1.0083,-0.9773,-0.964,-0.948,-0.9336,-0.8716,-0.7895,-0.6839,-0.5014,-0.452,-0.4032,-7.5803,-7.5687,-7.5075,-7.4448,-7.3905,-7.3601,-7.2921,-7.204,-7.1977,-7.0946,-6.9257,-6.8348,-6.6856,-6.5058,-6.431,-6.3442,-6.2315,-6.1207,-6.0108,-5.9017,-5.7953,-5.6509,-5.4838,-5.3802,-5.2473,-5.0818,-4.9794,-4.8644,-4.7281,-4.5781,-4.4769,-4.4301,-4.3559,-4.3235,-4.3019,-4.1785,-4.0628,-3.9813,-3.893,-3.7691,-3.6041,-3.5361,-3.4371,-3.2922,-3.2769,-3.2044,-3.0464,-3.0405,-2.9886,-2.8857,-2.8059,-2.756,-2.746,-2.5896,-2.4945,-2.4823,-2.4376,-2.4118,-2.4118,-2.4172,-2.428,-2.4359,-2.3624,-2.3189,-2.3375,-2.2722,-2.2333,-2.2349,-2.2387,-2.2378,-2.2289,-2.1415,-2.0826,-2.0727,-1.9947,-1.9058,-1.8556,-1.8358,-1.7863,-1.707,-1.6275,-1.5578,-1.4881,-1.4083,-1.329,-1.2984,-1.289,-1.289,-1.289,-1.289,-1.289,-1.289,-1.289,-1.289,-1.289,-1.289,-1.289,-1.289,-1.289,-1.279,-1.2384,-1.1884,-1.1383,-1.0982,-1.0284,-0.9878,-0.9665,-0.9616,-0.9277,-0.8702,-0.7874,-0.68,-0.5331,-0.4935,-0.4334,-7.5803,-7.5629,-7.4778,-7.4239,-7.3905,-7.3601,-7.2952,-7.2007,-7.1977,-7.0817,-6.9027,-6.8342,-6.686,-6.4954,-6.4344,-6.3376,-6.2315,-6.1138,-6.0039,-5.8947,-5.7882,-5.6641,-5.534,-5.4,-5.2525,-5.0842,-4.9623,-4.8013,-4.6217,-4.5728,-4.5256,-4.4838,-4.4086,-4.3657,-4.3439,-4.1979,-4.0746,-3.9823,-3.902,-3.7726,-3.6141,-3.5856,-3.4983,-3.3422,-3.3136,-3.2297,-3.0692,-3.0419,-2.9813,-2.8422,-2.7923,-2.7586,-2.7192,-2.5978,-2.4834,-2.4237,-2.4107,-2.4118,-2.4151,-2.4312,-2.4452,-2.4434,-2.3914,-2.3501,-2.3465,-2.2839,-2.2349,-2.2387,-2.2387,-2.2387,-2.2299,-2.1415,-2.0826,-2.0727,-1.9947,-1.9157,-1.8556,-1.8061,-1.7566,-1.6871,-1.5977,-1.4981,-1.3989,-1.329,-1.299,-1.289,-1.289,-1.289,-1.289,-1.289,-1.289,-1.289,-1.289,-1.289,-1.289,-1.289,-1.289,-1.289,-1.289,-1.289,-1.269,-1.2384,-1.1884,-1.1287,-1.0681,-1.0279,-0.9878,-0.946,-0.9124,-0.8617,-0.8197,-0.712,-0.5748,-0.504,-0.4434,-7.5565,-7.5161,-7.4659,-7.4239,-7.3844,-7.3324,-7.2703,-7.1977,-7.1692,-7.0864,-6.9588,-6.8838,-6.7407,-6.5479,-6.4624,-6.3346,-6.1737,-6.0797,-5.9621,-5.8355,-5.7667,-5.6425,-5.4739,-5.4129,-5.2696,-5.0695,-4.9733,-4.8225,-4.6301,-4.5971,-4.5588,-4.4972,-4.4396,-4.398,-4.3517,-4.2534,-4.135,-4.0268,-3.9599,-3.842,-3.6789,-3.6635,-3.5693,-3.3966,-3.3594,-3.2699,-3.0979,-3.0993,-3.0376,-2.8971,-2.8424,-2.785,-2.7026,-2.5785,-2.474,-2.4188,-2.4118,-2.4183,-2.4323,-2.4409,-2.4509,-2.442,-2.3909,-2.3505,-2.3334,-2.2731,-2.2387,-2.2387,-2.2387,-2.2289,-2.1799,-2.1219,-2.0826,-2.0629,-1.9947,-1.896,-1.8259,-1.7771,-1.7375,-1.6474,-1.5479,-1.4383,-1.349,-1.299,-1.289,-1.289,-1.289,-1.289,-1.289,-1.289,-1.289,-1.289,-1.289,-1.289,-1.289,-1.289,-1.289,-1.289,-1.289,-1.289,-1.279,-1.2484,-1.1984,-1.1688,-1.1182,-1.058,-1.0179,-0.9777,-0.9348,-0.8843,-0.8421,-0.7559,-0.6273,-0.5368,-0.4647,-7.5449,-7.4897,-7.4419,-7.4118,-7.3783,-7.3108,-7.2452,-7.2007,-7.1564,-7.0854,-6.9884,-6.906,-6.7691,-6.5889,-6.4593,-6.3006,-6.1193,-6.0453,-5.9342,-5.7927,-5.7523,-5.6356,-5.472,-5.4132,-5.2864,-5.0922,-4.9804,-4.8246,-4.6397,-4.6308,-4.5995,-4.525,-4.4784,-4.436,-4.381,-4.2914,-4.1714,-4.0602,-3.9943,-3.8837,-3.7291,-3.7032,-3.608,-3.4494,-3.3945,-3.3041,-3.1404,-3.1329,-3.0526,-2.9182,-2.8655,-2.7933,-2.664,-2.5457,-2.4588,-2.4307,-2.4226,-2.4334,-2.4549,-2.4646,-2.464,-2.4365,-2.3998,-2.3615,-2.3258,-2.2681,-2.2485,-2.2387,-2.2387,-2.2201,-2.1612,-2.1112,-2.0727,-2.053,-1.9849,-1.8861,-1.787,-1.7672,-1.697,-1.5778,-1.4782,-1.3884,-1.3084,-1.299,-1.289,-1.289,-1.289,-1.289,-1.289,-1.289,-1.289,-1.289,-1.289,-1.289,-1.289,-1.289,-1.289,-1.289,-1.289,-1.289,-1.289,-1.2484,-1.2284,-1.1984,-1.1588,-1.0986,-1.0485,-1.0083,-0.9581,-0.8978,-0.8457,-0.7705,-0.6637,-0.5604,-0.4868,-7.5454,-7.4838,-7.4147,-7.3905,-7.3722,-7.289,-7.2294,-7.1977,-7.15,-7.0759,-6.9847,-6.8892,-6.7542,-6.5879,-6.4302,-6.2452,-6.1028,-6.0273,-5.9272,-5.7927,-5.7451,-5.6485,-5.4942,-5.4058,-5.2978,-5.1522,-4.9723,-4.7925,-4.6329,-4.6599,-4.648,-4.5768,-4.521,-4.4618,-4.435,-4.2946,-4.1733,-4.0536,-3.9858,-3.8751,-3.7205,-3.6946,-3.608,-3.4437,-3.4143,-3.3249,-3.1418,-3.1329,-3.0437,-2.8835,-2.8565,-2.7571,-2.5959,-2.5159,-2.4686,-2.4513,-2.4463,-2.457,-2.4797,-2.5012,-2.4918,-2.4459,-2.412,-2.3736,-2.316,-2.2681,-2.2387,-2.2387,-2.2387,-2.2191,-2.1603,-2.1121,-2.0629,-2.0038,-1.9553,-1.8861,-1.797,-1.7672,-1.6871,-1.5074,-1.4083,-1.349,-1.309,-1.289,-1.289,-1.289,-1.289,-1.289,-1.289,-1.289,-1.289,-1.289,-1.289,-1.289,-1.289,-1.289,-1.289,-1.289,-1.289,-1.289,-1.289,-1.269,-1.259,-1.2289,-1.1884,-1.1282,-1.0585,-1.0083,-0.9681,-0.9074,-0.8561,-0.7938,-0.7169,-0.6215,-0.5182,-7.5279,-7.4539,-7.4087,-7.3814,-7.3539,-7.2546,-7.204,-7.185,-7.1113,-7.0397,-6.984,-6.9065,-6.7863,-6.6354,-6.4712,-6.3004,-6.1325,-6.0044,-5.8735,-5.7667,-5.6848,-5.6072,-5.4992,-5.4102,-5.2617,-5.0726,-4.9652,-4.8333,-4.7019,-4.7166,-4.6842,-4.5859,-4.521,-4.4452,-4.3443,-4.2383,-4.1276,-4.0028,-3.9178,-3.8152,-3.7032,-3.6703,-3.5748,-3.4437,-3.4174,-3.3279,-3.1418,-3.1329,-3.0348,-2.8565,-2.8474,-2.7657,-2.6087,-2.5147,-2.4801,-2.4689,-2.47,-2.4807,-2.5023,-2.5141,-2.4875,-2.4314,-2.4018,-2.3561,-2.2779,-2.2485,-2.2387,-2.2387,-2.2387,-2.2093,-2.121,-2.0924,-2.053,-2.0038,-1.9553,-1.8861,-1.7771,-1.6772,-1.5678,-1.4676,-1.3983,-1.349,-1.309,-1.289,-1.289,-1.289,-1.289,-1.289,-1.289,-1.289,-1.289,-1.289,-1.289,-1.289,-1.289,-1.289,-1.289,-1.289,-1.289,-1.289,-1.289,-1.289,-1.279,-1.2489,-1.1984,-1.1383,-1.0681,-1.0083,-0.9681,-0.9279,-0.8668,-0.8124,-0.7669,-0.6617,-0.5285,-7.522,-7.4419,-7.4026,-7.3692,-7.3231,-7.2357,-7.1913,-7.1658,-7.0789,-7.02,-6.9803,-6.8972,-6.7813,-6.6464,-6.5012,-6.3266,-6.1414,-5.989,-5.8589,-5.7405,-5.6583,-5.5779,-5.4892,-5.3672,-5.2143,-5.0358,-4.9462,-4.8527,-4.7209,-4.7225,-4.6832,-4.5779,-4.5209,-4.4288,-4.3048,-4.2114,-4.1024,-3.9774,-3.8837,-3.7894,-3.7119,-3.653,-3.5573,-3.4437,-3.4174,-3.319,-3.1507,-3.1329,-3.0437,-2.8771,-2.7929,-2.6926,-2.5794,-2.5191,-2.484,-2.4926,-2.4958,-2.5055,-2.527,-2.5313,-2.5067,-2.4417,-2.4146,-2.3658,-2.2877,-2.2583,-2.2387,-2.2387,-2.2387,-2.1995,-2.1022,-2.0826,-2.053,-1.9849,-1.9454,-1.8861,-1.7665,-1.6076,-1.4975,-1.4377,-1.3884,-1.3284,-1.299,-1.289,-1.289,-1.289,-1.289,-1.289,-1.289,-1.289,-1.289,-1.289,-1.289,-1.289,-1.289,-1.289,-1.289,-1.289,-1.289,-1.289,-1.289,-1.289,-1.279,-1.2489,-1.2084,-1.1583,-1.0881,-1.0183,-0.9581,-0.9179,-0.8873,-0.8245,-0.7598,-0.613,-0.49,-7.522,-7.4359,-7.4057,-7.3477,-7.2859,-7.2231,-7.1786,-7.1371,-7.0629,-7.02,-6.9707,-6.8702,-6.753,-6.6223,-6.5084,-6.3398,-6.1306,-5.9879,-5.8687,-5.7487,-5.6463,-5.5558,-5.4421,-5.2916,-5.1516,-5.0254,-4.9315,-4.8446,-4.7528,-4.7213,-4.653,-4.5617,-4.5127,-4.4307,-4.3048,-4.2114,-4.0939,-3.9774,-3.8666,-3.7722,-3.7032,-3.6443,-3.5573,-3.4261,-3.4174,-3.3279,-3.1582,-3.1014,-3.0223,-2.8538,-2.7065,-2.6119,-2.5539,-2.5123,-2.499,-2.5173,-2.5195,-2.5292,-2.5453,-2.5475,-2.5205,-2.473,-2.4243,-2.3756,-2.318,-2.2681,-2.2387,-2.2387,-2.2387,-2.1995,-2.1121,-2.0826,-2.0333,-1.9454,-1.9058,-1.8564,-1.7672,-1.5778,-1.4676,-1.4377,-1.3584,-1.289,-1.289,-1.289,-1.289,-1.289,-1.289,-1.289,-1.289,-1.289,-1.289,-1.289,-1.289,-1.289,-1.289,-1.289,-1.289,-1.289,-1.289,-1.289,-1.289,-1.289,-1.289,-1.259,-1.2084,-1.1583,-1.0982,-1.0279,-0.9782,-0.948,-0.9074,-0.837,-0.7321,-0.6054,-0.4829,-7.4956,-7.4026,-7.3905,-7.3416,-7.2578,-7.2167,-7.1786,-7.1307,-7.0367,-7.0009,-6.9619,-6.847,-6.7512,-6.6734,-6.5265,-6.3794,-6.2194,-6.0328,-5.8947,-5.7845,-5.6076,-5.4595,-5.337,-5.2459,-5.1385,-5.0244,-4.9302,-4.8511,-4.7592,-4.7153,-4.6368,-4.5209,-4.5086,-4.4163,-4.2633,-4.1667,-4.0705,-3.9604,-3.8066,-3.7308,-3.6963,-3.6199,-3.5312,-3.4349,-3.4204,-3.322,-3.1446,-3.0114,-2.9131,-2.8257,-2.711,-2.6235,-2.5744,-2.5504,-2.5324,-2.5389,-2.5421,-2.5443,-2.5496,-2.5518,-2.5227,-2.473,-2.4253,-2.3756,-2.3268,-2.2681,-2.2485,-2.2387,-2.2387,-2.1995,-2.1121,-2.0727,-2.0136,-1.8952,-1.8465,-1.7962,-1.707,-1.5671,-1.4476,-1.4377,-1.3584,-1.299,-1.289,-1.289,-1.289,-1.289,-1.289,-1.289,-1.289,-1.289,-1.289,-1.289,-1.289,-1.289,-1.289,-1.289,-1.289,-1.289,-1.289,-1.289,-1.289,-1.289,-1.289,-1.279,-1.1984,-1.1282,-1.0982,-1.038,-1.0083,-0.9681,-0.8873,-0.8166,-0.7443,-0.6393,-0.5167,-7.4719,-7.3905,-7.3814,-7.32,-7.2357,-7.2104,-7.1594,-7.0919,-7.0265,-6.9774,-6.9382,-6.8266,-6.739,-6.6749,-6.5344,-6.3946,-6.2496,-6.067,-5.945,-5.8334,-5.6452,-5.4506,-5.2882,-5.2077,-5.1231,-5.0143,-4.8986,-4.8092,-4.7533,-4.6993,-4.6207,-4.5472,-4.508,-4.4248,-4.3035,-4.1793,-4.0831,-3.9801,-3.8234,-3.7194,-3.7177,-3.6266,-3.5498,-3.4748,-3.4601,-3.3695,-3.1853,-3.0096,-2.8959,-2.8172,-2.7287,-2.645,-2.5805,-2.5625,-2.5518,-2.5518,-2.5518,-2.5518,-2.5518,-2.5518,-2.5324,-2.4935,-2.4448,-2.3863,-2.3473,-2.2877,-2.2387,-2.2387,-2.2387,-2.1897,-2.1022,-2.0432,-1.9544,-1.8457,-1.787,-1.7466,-1.697,-1.5472,-1.4676,-1.4277,-1.3584,-1.289,-1.289,-1.289,-1.289,-1.289,-1.289,-1.289,-1.289,-1.289,-1.289,-1.289,-1.289,-1.289,-1.289,-1.289,-1.289,-1.289,-1.289,-1.289,-1.289,-1.289,-1.289,-1.269,-1.1884,-1.1182,-1.0982,-1.048,-0.9782,-0.9279,-0.8572,-0.7861,-0.7142,-0.6322,-0.5195,-7.4668,-7.4062,-7.3787,-7.3074,-7.2314,-7.2065,-7.1487,-7.0581,-7.0097,-6.967,-6.9136,-6.8159,-6.7251,-6.6483,-6.5336,-6.4012,-6.2392,-6.1053,-5.9727,-5.8351,-5.6645,-5.4856,-5.3011,-5.204,-5.1262,-5.0299,-4.8641,-4.7987,-4.7669,-4.6981,-4.625,-4.5772,-4.5354,-4.4525,-4.3406,-4.2142,-4.115,-4.0121,-3.8537,-3.759,-3.7381,-3.6652,-3.5786,-3.5118,-3.4518,-3.3838,-3.2203,-3.065,-2.9212,-2.8234,-2.7296,-2.6371,-2.5679,-2.5518,-2.5518,-2.5518,-2.5518,-2.5518,-2.5518,-2.5518,-2.5518,-2.5324,-2.4546,-2.4048,-2.3756,-2.2974,-2.2387,-2.2387,-2.2387,-2.1897,-2.0924,-1.9947,-1.9157,-1.816,-1.7764,-1.7466,-1.6765,-1.5472,-1.4476,-1.4377,-1.3584,-1.299,-1.289,-1.289,-1.289,-1.289,-1.289,-1.289,-1.289,-1.289,-1.289,-1.289,-1.289,-1.289,-1.289,-1.289,-1.289,-1.289,-1.289,-1.289,-1.289,-1.289,-1.289,-1.259,-1.1884,-1.1383,-1.1182,-1.058,-0.9681,-0.9078,-0.8471,-0.7663,-0.6754,-0.5829,-0.4806,-7.5929,-7.5496,-7.4839,-7.4234,-7.3464,-7.2655,-7.1893,-7.1139,-7.0304,-6.9596,-6.8866,-6.8051,-6.7128,-6.6124,-6.5259,-6.4129,-6.2671,-6.1145,-5.9333,-5.7145,-5.6461,-5.5236,-5.3834,-5.2658,-5.1764,-5.0921,-4.9492,-4.8698,-4.8431,-4.7711,-4.7029,-4.6296,-4.5644,-4.4902,-4.3633,-4.2344,-4.126,-4.0473,-3.891,-3.7953,-3.7759,-3.6974,-3.6067,-3.5242,-3.3864,-3.2959,-3.239,-3.0702,-2.9337,-2.8451,-2.7553,-2.6505,-2.569,-2.5518,-2.5518,-2.5518,-2.5518,-2.5518,-2.5518,-2.5518,-2.5518,-2.5421,-2.4643,-2.3951,-2.3951,-2.3072,-2.2485,-2.2387,-2.2387,-2.1897,-2.0924,-2.0235,-1.9347,-1.8457,-1.787,-1.7474,-1.6765,-1.5472,-1.4576,-1.4277,-1.3584,-1.289,-1.289,-1.289,-1.289,-1.289,-1.289,-1.289,-1.289,-1.289,-1.289,-1.289,-1.289,-1.289,-1.289,-1.289,-1.289,-1.289,-1.289,-1.289,-1.289,-1.289,-1.289,-1.2489,-1.1984,-1.1583,-1.1282,-1.048,-0.9581,-0.8974,-0.837,-0.7465,-0.6553,-0.5429,-0.4321,-7.612,-7.5901,-7.5048,-7.4436,-7.392,-7.2997,-7.2222,-7.1436,-7.0539,-6.9708,-6.8875,-6.7919,-6.689,-6.5942,-6.4871,-6.3773,-6.2614,-6.0857,-5.9135,-5.7552,-5.6624,-5.5659,-5.4733,-5.336,-5.2277,-5.1389,-4.9816,-4.91,-4.877,-4.815,-4.7358,-4.6675,-4.5996,-4.5191,-4.4095,-4.2609,-4.1656,-4.0843,-3.9312,-3.8235,-3.8153,-3.735,-3.6521,-3.5456,-3.3891,-3.2771,-3.2724,-3.0952,-2.9608,-2.856,-2.7634,-2.6573,-2.5712,-2.5518,-2.5518,-2.5518,-2.5518,-2.5518,-2.5518,-2.5518,-2.5518,-2.5518,-2.474,-2.4351,-2.3961,-2.317,-2.2681,-2.2485,-2.2289,-2.1995,-2.0924,-2.0333,-1.9544,-1.8655,-1.8061,-1.7474,-1.6772,-1.5472,-1.4476,-1.4277,-1.3584,-1.309,-1.289,-1.289,-1.289,-1.289,-1.289,-1.289,-1.289,-1.289,-1.289,-1.289,-1.289,-1.289,-1.289,-1.289,-1.289,-1.289,-1.289,-1.289,-1.289,-1.289,-1.289,-1.2489,-1.2084,-1.1583,-1.1182,-1.0279,-0.9376,-0.8672,-0.7968,-0.7163,-0.6254,-0.524,-0.3931,-7.6275,-7.6086,-7.513,-7.4546,-7.4087,-7.3304,-7.2573,-7.1845,-7.078,-6.9883,-6.8981,-6.7703,-6.6764,-6.5676,-6.4355,-6.3232,-6.1894,-6.0533,-5.8946,-5.8114,-5.678,-5.5984,-5.5124,-5.3838,-5.2548,-5.1545,-5.0058,-4.9419,-4.9066,-4.8254,-4.762,-4.7012,-4.6021,-4.5251,-4.4416,-4.298,-4.1727,-4.123,-3.9627,-3.8663,-3.8548,-3.7691,-3.6883,-3.5881,-3.4204,-3.3079,-3.2636,-3.1136,-2.9542,-2.85,-2.7634,-2.6573,-2.5809,-2.5518,-2.5518,-2.5518,-2.5518,-2.5518,-2.5518,-2.5518,-2.5518,-2.5518,-2.5032,-2.4448,-2.3961,-2.3463,-2.2886,-2.2583,-2.2289,-2.1995,-2.0924,-2.0432,-1.9742,-1.8853,-1.8069,-1.7566,-1.6871,-1.5572,-1.4775,-1.4377,-1.3584,-1.299,-1.289,-1.289,-1.289,-1.289,-1.289,-1.289,-1.289,-1.289,-1.289,-1.289,-1.289,-1.289,-1.289,-1.289,-1.289,-1.289,-1.289,-1.289,-1.289,-1.289,-1.289,-1.259,-1.2189,-1.1683,-1.0982,-1.0279,-0.9476,-0.8467,-0.7764,-0.7261,-0.6256,-0.5049,-0.3636,-7.7421,-7.6742,-7.6049,-7.5486,-7.4992,-7.3806,-7.3023,-7.2454,-7.1178,-6.9904,-6.8777,-6.7806,-6.652,-6.5214,-6.421,-6.2715,-6.1242,-5.9894,-5.8965,-5.8129,-5.6893,-5.5933,-5.5044,-5.382,-5.2613,-5.1739,-5.0606,-5.0039,-4.9744,-4.9001,-4.798,-4.7368,-4.6239,-4.5266,-4.4137,-4.2819,-4.1724,-4.1259,-3.9772,-3.9026,-3.8752,-3.7959,-3.6992,-3.608,-3.4197,-3.3069,-3.2313,-3.0985,-2.9459,-2.8031,-2.7442,-2.6584,-2.5809,-2.5518,-2.5518,-2.5518,-2.5518,-2.5518,-2.5518,-2.5518,-2.5518,-2.5421,-2.5032,-2.4535,-2.4058,-2.3561,-2.3072,-2.2583,-2.2289,-2.1995,-2.0924,-2.0629,-2.0136,-1.9248,-1.8267,-1.7672,-1.7268,-1.6175,-1.4975,-1.4476,-1.3684,-1.289,-1.289,-1.289,-1.289,-1.289,-1.289,-1.289,-1.289,-1.289,-1.289,-1.289,-1.289,-1.289,-1.289,-1.289,-1.289,-1.289,-1.289,-1.289,-1.289,-1.289,-1.279,-1.269,-1.2189,-1.1483,-1.0881,-1.0279,-0.9376,-0.8367,-0.7864,-0.7361,-0.5954,-0.4645,-0.3636,-7.7343,-7.6884,-7.6021,-7.5482,-7.5014,-7.406,-7.3359,-7.2783,-7.1498,-7.0403,-6.9337,-6.7974,-6.6568,-6.5227,-6.3927,-6.2369,-6.0787,-5.9353,-5.8677,-5.7971,-5.6734,-5.5691,-5.4986,-5.3738,-5.2664,-5.1747,-5.0907,-5.0231,-4.9976,-4.8932,-4.8199,-4.7421,-4.6289,-4.5147,-4.4067,-4.2748,-4.1849,-4.1054,-3.9947,-3.9125,-3.8942,-3.7747,-3.6637,-3.5894,-3.4291,-3.3069,-3.2219,-3.089,-2.9363,-2.8031,-2.7357,-2.6584,-2.5906,-2.5518,-2.5518,-2.5518,-2.5518,-2.5518,-2.5518,-2.5518,-2.5518,-2.5518,-2.5227,-2.474,-2.4146,-2.3658,-2.317,-2.2583,-2.2387,-2.2093,-2.1308,-2.1022,-2.0432,-1.9643,-1.8564,-1.787,-1.7375,-1.6175,-1.5379,-1.4576,-1.3884,-1.3284,-1.289,-1.289,-1.289,-1.289,-1.289,-1.289,-1.289,-1.289,-1.289,-1.289,-1.289,-1.289,-1.289,-1.289,-1.289,-1.289,-1.289,-1.289,-1.289,-1.289,-1.289,-1.289,-1.2184,-1.1383,-1.0982,-1.0485,-0.9376,-0.8367,-0.8065,-0.7361,-0.5652,-0.4343,-0.3333,-7.695,-7.6686,-7.5819,-7.5142,-7.4731,-7.411,-7.3551,-7.2969,-7.1753,-7.0836,-7.0077,-6.8037,-6.6484,-6.5189,-6.3505,-6.1846,-6.0508,-5.9067,-5.8364,-5.7789,-5.6494,-5.5449,-5.4579,-5.3655,-5.2498,-5.1328,-5.0823,-5.0146,-4.9636,-4.8716,-4.8113,-4.7354,-4.6221,-4.4971,-4.3889,-4.2658,-4.1849,-4.0856,-3.9856,-3.9125,-3.8483,-3.7193,-3.6173,-3.5987,-3.4305,-3.288,-3.2138,-3.07,-2.9171,-2.7935,-2.7067,-2.6487,-2.5712,-2.5518,-2.5518,-2.5518,-2.5518,-2.5518,-2.5518,-2.5518,-2.5518,-2.5518,-2.5518,-2.4935,-2.4156,-2.3658,-2.317,-2.2583,-2.2387,-2.2191,-2.1603,-2.1121,-2.053,-1.984,-1.8754,-1.7764,-1.7367,-1.6573,-1.5479,-1.4775,-1.4177,-1.3584,-1.309,-1.289,-1.289,-1.289,-1.289,-1.289,-1.289,-1.289,-1.289,-1.289,-1.289,-1.289,-1.289,-1.289,-1.289,-1.289,-1.289,-1.289,-1.289,-1.289,-1.289,-1.289,-1.1984,-1.1282,-1.0881,-1.048,-0.9376,-0.8568,-0.8266,-0.7261,-0.545,-0.4343,-0.3434,-7.662,-7.599,-7.555,-7.5006,-7.4387,-7.3901,-7.358,-7.3057,-7.1899,-7.0905,-6.9987,-6.8093,-6.6285,-6.4459,-6.2182,-6.0991,-6.0201,-5.9145,-5.805,-5.7528,-5.6334,-5.5149,-5.4111,-5.3431,-5.2165,-5.0991,-5.0485,-5.0146,-4.9401,-4.8372,-4.7788,-4.7354,-4.5939,-4.4529,-4.3533,-4.2461,-4.1579,-4.0674,-3.9582,-3.8667,-3.7855,-3.6823,-3.6266,-3.5708,-3.4305,-3.28,-3.1853,-3.0427,-2.88,-2.7453,-2.6681,-2.61,-2.5615,-2.5518,-2.5518,-2.5518,-2.5518,-2.5518,-2.5518,-2.5518,-2.5518,-2.5518,-2.5518,-2.4935,-2.4156,-2.317,-2.2681,-2.2485,-2.2387,-2.2191,-2.1701,-2.1112,-2.0629,-1.9939,-1.905,-1.816,-1.7665,-1.697,-1.597,-1.4981,-1.4383,-1.3784,-1.319,-1.299,-1.289,-1.289,-1.289,-1.289,-1.289,-1.289,-1.289,-1.289,-1.289,-1.289,-1.289,-1.289,-1.289,-1.289,-1.289,-1.289,-1.289,-1.289,-1.289,-1.269,-1.1783,-1.1282,-1.1082,-1.048,-0.9376,-0.8572,-0.8065,-0.6861,-0.5251,-0.424,-0.3231,-7.6088,-7.555,-7.5006,-7.4456,-7.397,-7.3621,-7.3157,-7.2517,-7.1797,-7.0972,-6.99,-6.8207,-6.6101,-6.3566,-6.1501,-6.0431,-5.9894,-5.8834,-5.7868,-5.7211,-5.6174,-5.5067,-5.4029,-5.3266,-5.2165,-5.0823,-5.0231,-4.9721,-4.9038,-4.8199,-4.7615,-4.7094,-4.5695,-4.4263,-4.3087,-4.2371,-4.1308,-4.0311,-3.9233,-3.8408,-3.7671,-3.6823,-3.6173,-3.608,-3.4212,-3.28,-3.1569,-3.0236,-2.8704,-2.7357,-2.6584,-2.61,-2.5615,-2.5518,-2.5518,-2.5518,-2.5518,-2.5518,-2.5518,-2.5518,-2.5518,-2.5518,-2.5421,-2.5032,-2.4058,-2.3072,-2.2387,-2.2387,-2.2387,-2.2289,-2.1897,-2.1308,-2.0826,-2.0235,-1.9347,-1.8457,-1.7764,-1.7169,-1.6367,-1.5479,-1.4582,-1.3983,-1.339,-1.309,-1.289,-1.289,-1.289,-1.289,-1.289,-1.289,-1.289,-1.289,-1.289,-1.289,-1.289,-1.289,-1.289,-1.289,-1.289,-1.289,-1.289,-1.289,-1.289,-1.259,-1.1884,-1.1483,-1.1287,-1.038,-0.9275,-0.8572,-0.7867,-0.6458,-0.5148,-0.3534,-0.2422,-7.555,-7.5074,-7.4525,-7.411,-7.379,-7.3369,-7.2773,-7.2057,-7.1579,-7.0894,-6.9709,-6.7831,-6.5302,-6.2988,-6.14,-6.0278,-5.9508,-5.8677,-5.771,-5.6813,-5.5933,-5.4824,-5.376,-5.2913,-5.1914,-5.04,-5.0231,-4.9551,-4.863,-4.7961,-4.7441,-4.6832,-4.5412,-4.4086,-4.2927,-4.2029,-4.1127,-3.9765,-3.8867,-3.8224,-3.7578,-3.673,-3.6266,-3.5615,-3.4385,-3.2691,-3.1664,-3.0045,-2.85,-2.7345,-2.639,-2.5809,-2.5518,-2.5518,-2.5518,-2.5518,-2.5518,-2.5518,-2.5518,-2.5518,-2.5518,-2.5421,-2.5129,-2.4643,-2.4058,-2.3072,-2.2387,-2.2387,-2.2387,-2.2387,-2.2191,-2.1505,-2.1013,-2.0432,-1.9742,-1.8754,-1.787,-1.7367,-1.6665,-1.5572,-1.4782,-1.4183,-1.3684,-1.3184,-1.299,-1.289,-1.289,-1.289,-1.289,-1.289,-1.289,-1.289,-1.289,-1.289,-1.289,-1.289,-1.289,-1.289,-1.289,-1.289,-1.289,-1.289,-1.2784,-1.2384,-1.1884,-1.1383,-1.0982,-1.0079,-0.9279,-0.8471,-0.7562,-0.6458,-0.5047,-0.3431,-0.1615,-7.5006,-7.4387,-7.4318,-7.411,-7.379,-7.3369,-7.2773,-7.1985,-7.126,-7.0452,-6.9243,-6.665,-6.4456,-6.2759,-6.1376,-6.0201,-5.9431,-5.8677,-5.7552,-5.6494,-5.5449,-5.4475,-5.3408,-5.2415,-5.1496,-5.0485,-5.0061,-4.9315,-4.8458,-4.7788,-4.7181,-4.6308,-4.4971,-4.38,-4.264,-4.1579,-4.0583,-3.9399,-3.8591,-3.8132,-3.7578,-3.6823,-3.6266,-3.5801,-3.4291,-3.2691,-3.1664,-2.9841,-2.8308,-2.7152,-2.6197,-2.5712,-2.5518,-2.5518,-2.5518,-2.5518,-2.5518,-2.5518,-2.5518,-2.5518,-2.5518,-2.5227,-2.4838,-2.4351,-2.3961,-2.3072,-2.2485,-2.2387,-2.2387,-2.2387,-2.2289,-2.1906,-2.1308,-2.0727,-1.9939,-1.905,-1.8259,-1.7771,-1.697,-1.5678,-1.4881,-1.4383,-1.3884,-1.3284,-1.299,-1.289,-1.289,-1.289,-1.289,-1.289,-1.289,-1.289,-1.289,-1.289,-1.289,-1.289,-1.289,-1.289,-1.289,-1.289,-1.289,-1.289,-1.2784,-1.2284,-1.1783,-1.1182,-1.058,-0.9677,-0.8773,-0.8169,-0.716,-0.5853,-0.4543,-0.2827,-0.101,-7.4937,-7.4318,-7.404,-7.3761,-7.3369,-7.2773,-7.2201,-7.1652,-7.0894,-6.9634,-6.8116,-6.5914,-6.4002,-6.2612,-6.13,-5.9971,-5.8912,-5.8521,-5.7314,-5.6174,-5.523,-5.4311,-5.3243,-5.2165,-5.1328,-5.0485,-4.9912,-4.9059,-4.8047,-4.7528,-4.6483,-4.5519,-4.4529,-4.3444,-4.2281,-4.0946,-3.9765,-3.9125,-3.8408,-3.7855,-3.7578,-3.673,-3.6173,-3.608,-3.4291,-3.28,-3.1569,-2.965,-2.8308,-2.7152,-2.61,-2.5712,-2.5518,-2.5518,-2.5518,-2.5518,-2.5518,-2.5518,-2.5518,-2.5518,-2.5518,-2.5421,-2.4838,-2.4351,-2.4048,-2.3268,-2.2779,-2.2583,-2.2387,-2.2387,-2.2289,-2.1897,-2.1406,-2.0817,-2.0235,-1.9446,-1.8655,-1.7962,-1.7367,-1.6169,-1.5174,-1.4476,-1.3983,-1.349,-1.319,-1.289,-1.289,-1.289,-1.289,-1.289,-1.289,-1.289,-1.289,-1.289,-1.289,-1.289,-1.289,-1.289,-1.289,-1.289,-1.289,-1.289,-1.279,-1.2184,-1.1683,-1.1082,-1.0279,-0.9175,-0.8471,-0.8065,-0.6757,-0.5146,-0.3735,-0.2222,-0.0606,-7.4731,-7.411,-7.379,-7.351,-7.3128,-7.2416,-7.1869,-7.1361,-7.0526,-6.9033,-6.704,-6.5302,-6.3826,-6.2432,-6.1121,-5.9765,-5.8677,-5.805,-5.7076,-5.5956,-5.4986,-5.4089,-5.3078,-5.1998,-5.0907,-5.0316,-4.9721,-4.8802,-4.7788,-4.7268,-4.6308,-4.5147,-4.4086,-4.2998,-4.1922,-4.0203,-3.9109,-3.885,-3.8224,-3.7671,-3.7578,-3.673,-3.6173,-3.5894,-3.4291,-3.28,-3.146,-2.9746,-2.8212,-2.7152,-2.6197,-2.5615,-2.5518,-2.5518,-2.5518,-2.5518,-2.5518,-2.5518,-2.5518,-2.5518,-2.5518,-2.5421,-2.5032,-2.4448,-2.4048,-2.3463,-2.2974,-2.2485,-2.2387,-2.2387,-2.2387,-2.2093,-2.1505,-2.1022,-2.0629,-1.9939,-1.8754,-1.7962,-1.7466,-1.6765,-1.5671,-1.4476,-1.4077,-1.3584,-1.309,-1.289,-1.289,-1.289,-1.289,-1.289,-1.289,-1.289,-1.289,-1.289,-1.289,-1.289,-1.289,-1.289,-1.289,-1.289,-1.289,-1.289,-1.259,-1.1884,-1.1383,-1.0982,-1.0079,-0.8974,-0.8471,-0.8065,-0.6354,-0.4442,-0.3029,-0.1616,-0.0404,-7.411,-7.3761,-7.341,-7.3228,-7.3086,-7.2445,-7.1869,-7.1215,-7.0082,-6.8579,-6.6599,-6.4737,-6.3363,-6.225,-6.0864,-5.9481,-5.8443,-5.7789,-5.6893,-5.5772,-5.4579,-5.3678,-5.2664,-5.158,-5.0654,-5.0231,-4.9465,-4.8544,-4.7701,-4.7007,-4.6026,-4.4706,-4.3463,-4.2371,-4.1849,-4.0038,-3.9125,-3.8942,-3.8132,-3.7763,-3.7486,-3.673,-3.6266,-3.5801,-3.4291,-3.28,-3.1474,-2.965,-2.8212,-2.7164,-2.61,-2.5615,-2.5518,-2.5518,-2.5518,-2.5518,-2.5518,-2.5518,-2.5518,-2.5518,-2.5518,-2.5518,-2.5032,-2.4633,-2.4058,-2.3571,-2.2984,-2.2485,-2.2387,-2.2387,-2.2387,-2.2289,-2.171,-2.1121,-2.0727,-2.0235,-1.905,-1.8069,-1.7466,-1.6963,-1.5671,-1.4476,-1.4077,-1.3684,-1.319,-1.289,-1.289,-1.289,-1.289,-1.289,-1.289,-1.289,-1.289,-1.289,-1.289,-1.289,-1.289,-1.289,-1.289,-1.289,-1.289,-1.289,-1.2389,-1.1583,-1.1187,-1.0982,-0.9878,-0.8773,-0.7968,-0.7059,-0.5448,-0.3635,-0.2221,-0.101,0.0,-7.411,-7.3761,-7.3369,-7.2915,-7.2416,-7.1942,-7.1361,-7.0526,-6.9156,-6.7815,-6.6492,-6.4582,-6.3208,-6.2147,-6.0553,-5.9198,-5.8286,-5.7473,-5.6574,-5.5611,-5.4334,-5.3596,-5.2664,-5.1412,-5.04,-5.0061,-4.9295,-4.8372,-4.7701,-4.6745,-4.5588,-4.4263,-4.2748,-4.1579,-4.0856,-3.9748,-3.9109,-3.8942,-3.8208,-3.7671,-3.7578,-3.673,-3.6173,-3.608,-3.4291,-3.28,-3.1664,-2.965,-2.8212,-2.7164,-2.61,-2.5518,-2.5518,-2.5518,-2.5518,-2.5518,-2.5518,-2.5518,-2.5518,-2.5518,-2.5518,-2.5421,-2.5324,-2.4838,-2.4156,-2.3863,-2.3277,-2.2681,-2.2387,-2.2387,-2.2387,-2.2387,-2.1897,-2.1121,-2.0629,-2.0136,-1.9256,-1.8267,-1.7474,-1.697,-1.587,-1.4389,-1.3595,-1.3452,-1.3067,-1.295,-1.2955,-1.2906,-1.2895,-1.289,-1.289,-1.289,-1.289,-1.289,-1.289,-1.289,-1.289,-1.289,-1.289,-1.289,-1.289,-1.289,-1.2289,-1.1583,-1.1287,-1.0886,-0.9476,-0.8169,-0.6861,-0.5652,-0.4341,-0.3231,-0.202,-0.0808,0.0202,-7.3901,-7.3551,-7.2986,-7.2488,-7.1869,-7.1434,-7.06,-6.9409,-6.8198,-6.7121,-6.5947,-6.4117,-6.2897,-6.1783,-6.0242,-5.8965,-5.8207,-5.7235,-5.6334,-5.5368,-5.4171,-5.3266,-5.2248,-5.1244,-5.04,-4.9891,-4.9038,-4.8113,-4.7615,-4.6308,-4.4883,-4.3355,-4.2029,-4.1218,-4.0493,-3.9765,-3.9109,-3.885,-3.8208,-3.7671,-3.7394,-3.6823,-3.6173,-3.5615,-3.4385,-3.2691,-3.146,-2.9841,-2.8116,-2.7164,-2.6197,-2.5518,-2.5518,-2.5518,-2.5518,-2.5518,-2.5518,-2.5518,-2.5518,-2.5518,-2.555,-2.5658,-2.5572,-2.5032,-2.4253,-2.3961,-2.3365,-2.2779,-2.2504,-2.2406,-2.2416,-2.2416,-2.2032,-2.1156,-2.0663,-2.0277,-1.9388,-1.8397,-1.7702,-1.7098,-1.5904,-1.4413,-1.3251,-1.3211,-1.3058,-1.3042,-1.302,-1.2971,-1.2928,-1.2939,-1.2928,-1.2906,-1.2901,-1.2895,-1.2895,-1.289,-1.289,-1.289,-1.289,-1.289,-1.279,-1.269,-1.2084,-1.1483,-1.1082,-1.0279,-0.8873,-0.7465,-0.6254,-0.4944,-0.3635,-0.2625,-0.1717,-0.0606,0.0606,-7.3551,-7.3086,-7.2445,-7.1869,-7.1434,-7.0849,-6.9634,-6.7968,-6.743,-6.6577,-6.5292,-6.3492,-6.235,-6.1545,-5.9751,-5.8677,-5.805,-5.6893,-5.5933,-5.4963,-5.3842,-5.283,-5.1914,-5.0907,-5.0231,-4.9551,-4.8802,-4.7961,-4.7528,-4.5675,-4.3908,-4.2568,-4.1597,-4.0963,-4.0402,-3.9673,-3.92,-3.885,-3.8224,-3.7763,-3.7486,-3.673,-3.6173,-3.5521,-3.4197,-3.2691,-3.127,-2.965,-2.8212,-2.7067,-2.61,-2.5712,-2.5518,-2.5518,-2.5518,-2.5518,-2.5518,-2.5561,-2.5583,-2.5593,-2.5712,-2.583,-2.5712,-2.5019,-2.4433,-2.4102,-2.3533,-2.2933,-2.2548,-2.2501,-2.2472,-2.2285,-2.2107,-2.1515,-2.0922,-2.023,-1.9437,-1.865,-1.7953,-1.7049,-1.5657,-1.4385,-1.3368,-1.3124,-1.3162,-1.3162,-1.314,-1.3102,-1.3069,-1.3058,-1.3026,-1.2939,-1.2928,-1.2906,-1.2901,-1.2895,-1.289,-1.289,-1.289,-1.289,-1.269,-1.2489,-1.1984,-1.1383,-1.0781,-0.9777,-0.8471,-0.7059,-0.5649,-0.4339,-0.3231,-0.2322,-0.1616,-0.0101,0.101,-7.341,-7.2773,-7.2273,-7.1551,-7.0526,-6.9334,-6.8427,-6.7815,-6.7225,-6.6264,-6.5318,-6.3334,-6.2193,-6.1593,-5.9487,-5.862,-5.771,-5.6758,-5.5772,-5.4719,-5.3655,-5.2664,-5.1747,-5.0823,-5.0146,-4.9401,-4.8564,-4.7701,-4.6726,-4.4971,-4.3355,-4.2119,-4.1218,-4.0765,-4.0311,-3.9565,-3.9291,-3.885,-3.8132,-3.7855,-3.7394,-3.673,-3.6173,-3.5226,-3.3728,-3.2313,-3.0903,-2.9171,-2.7827,-2.7067,-2.6003,-2.5518,-2.5518,-2.5518,-2.5518,-2.5539,-2.5647,-2.5776,-2.5798,-2.5927,-2.6046,-2.6089,-2.6046,-2.545,-2.4834,-2.4306,-2.3899,-2.3154,-2.2737,-2.2718,-2.2718,-2.2519,-2.2121,-2.1523,-2.1033,-2.0533,-1.9641,-1.8737,-1.8026,-1.6926,-1.5512,-1.444,-1.3507,-1.3232,-1.3265,-1.327,-1.3265,-1.3243,-1.3211,-1.32,-1.3134,-1.3042,-1.2982,-1.2966,-1.2912,-1.2895,-1.289,-1.289,-1.289,-1.289,-1.269,-1.2384,-1.1889,-1.1082,-1.0079,-0.9175,-0.8367,-0.6858,-0.5146,-0.4341,-0.3231,-0.2322,-0.1313,0.0202,0.1212,-7.2894,-7.2416,-7.2014,-7.0967,-6.9559,-6.8351,-6.7661,-6.7121,-6.642,-6.5608,-6.4479,-6.2891,-6.1751,-6.0742,-5.9152,-5.8129,-5.7631,-5.6414,-5.5287,-5.4334,-5.3491,-5.2331,-5.1412,-5.0654,-4.9891,-4.9144,-4.8306,-4.7441,-4.6201,-4.4244,-4.2479,-4.1669,-4.0946,-4.0583,-4.0129,-3.9491,-3.9034,-3.8667,-3.8132,-3.7763,-3.7301,-3.6746,-3.5987,-3.5163,-3.338,-3.1975,-3.0548,-2.8716,-2.7658,-2.6874,-2.5906,-2.5518,-2.555,-2.5593,-2.5658,-2.5712,-2.5884,-2.5992,-2.6035,-2.6121,-2.625,-2.6347,-2.6369,-2.5819,-2.5163,-2.4608,-2.3926,-2.3255,-2.3074,-2.2992,-2.3001,-2.2901,-2.2195,-2.148,-2.1186,-2.0781,-1.9768,-1.876,-1.7742,-1.6823,-1.5725,-1.4529,-1.3847,-1.3559,-1.339,-1.3428,-1.345,-1.3439,-1.339,-1.3341,-1.3259,-1.3156,-1.3086,-1.3031,-1.2977,-1.2917,-1.2901,-1.2895,-1.289,-1.279,-1.2584,-1.1984,-1.1282,-1.0279,-0.9175,-0.8367,-0.7663,-0.6153,-0.4744,-0.3836,-0.2928,-0.1919,-0.0808,0.0505,0.1313,-7.2034,-7.1899,-7.1478,-7.0156,-6.8579,-6.7968,-6.7121,-6.595,-6.5476,-6.4609,-6.3353,-6.2265,-6.1101,-5.9993,-5.8792,-5.7813,-5.7156,-5.6013,-5.4986,-5.3783,-5.3101,-5.1998,-5.0907,-5.0316,-4.9615,-4.8695,-4.7768,-4.7094,-4.5675,-4.38,-4.2119,-4.1325,-4.0856,-4.0402,-3.9964,-3.9499,-3.909,-3.8646,-3.8232,-3.7893,-3.7411,-3.6792,-3.5939,-3.5064,-3.3478,-3.1688,-3.0134,-2.8681,-2.7318,-2.6554,-2.5993,-2.5626,-2.5701,-2.5787,-2.5873,-2.597,-2.6132,-2.6229,-2.6282,-2.6358,-2.6465,-2.6552,-2.6616,-2.6082,-2.544,-2.4952,-2.4253,-2.3514,-2.3228,-2.3228,-2.3228,-2.3127,-2.2618,-2.2007,-2.1505,-2.079,-1.9671,-1.8431,-1.7195,-1.628,-1.5374,-1.4371,-1.3757,-1.3466,-1.3482,-1.3553,-1.3569,-1.3569,-1.3542,-1.3471,-1.3385,-1.3276,-1.3227,-1.3151,-1.3037,-1.2977,-1.2922,-1.2906,-1.2895,-1.269,-1.2389,-1.1583,-1.0681,-0.9677,-0.8672,-0.7764,-0.6858,-0.5551,-0.4442,-0.3534,-0.2524,-0.1313,-0.0202,0.0808,0.1515,-7.1018,-7.0793,-7.0033,-6.9033,-6.7968,-6.7303,-6.642,-6.5476,-6.4761,-6.3972,-6.3169,-6.2186,-6.0997,-5.9657,-5.8689,-5.7734,-5.6813,-5.5691,-5.4742,-5.3596,-5.2769,-5.1663,-5.0485,-5.0061,-4.9338,-4.8548,-4.7707,-4.6464,-4.4775,-4.3087,-4.1939,-4.1325,-4.089,-4.0379,-3.9865,-3.9557,-3.926,-3.872,-3.8492,-3.8039,-3.7476,-3.6898,-3.6065,-3.4884,-3.3244,-3.1671,-3.0116,-2.8673,-2.7615,-2.6848,-2.6354,-2.6067,-2.6078,-2.6121,-2.6142,-2.6185,-2.6358,-2.6465,-2.6541,-2.6616,-2.6735,-2.6788,-2.6638,-2.6169,-2.5645,-2.5266,-2.4714,-2.3885,-2.3464,-2.3455,-2.3343,-2.324,-2.3035,-2.2418,-2.1707,-2.0571,-1.9441,-1.8084,-1.6732,-1.5812,-1.5006,-1.4283,-1.3763,-1.3569,-1.3597,-1.3602,-1.3597,-1.3597,-1.3591,-1.3548,-1.3493,-1.3406,-1.3379,-1.3298,-1.3156,-1.3031,-1.2966,-1.2912,-1.289,-1.259,-1.2189,-1.1182,-1.0279,-0.9376,-0.837,-0.7462,-0.6556,-0.5551,-0.4442,-0.3231,-0.212,-0.0909,0.0,0.101,0.1616,-6.9833,-6.9547,-6.8595,-6.7953,-6.748,-6.6603,-6.5713,-6.5079,-6.42,-6.3491,-6.2904,-6.1948,-6.0785,-5.942,-5.8428,-5.7394,-5.6414,-5.5287,-5.4334,-5.3348,-5.2331,-5.1412,-5.0569,-4.9806,-4.8952,-4.8225,-4.686,-4.5324,-4.3712,-4.264,-4.1759,-4.1179,-4.0794,-4.0475,-3.9975,-3.9796,-3.9527,-3.8888,-3.8735,-3.8277,-3.7518,-3.6837,-3.5824,-3.4446,-3.2922,-3.1372,-2.9787,-2.8305,-2.7512,-2.6816,-2.6307,-2.6196,-2.6229,-2.6315,-2.6369,-2.6455,-2.6584,-2.6745,-2.6788,-2.6853,-2.6847,-2.6847,-2.6847,-2.6313,-2.5594,-2.5122,-2.4711,-2.3981,-2.3559,-2.355,-2.3353,-2.325,-2.2837,-2.2217,-2.1492,-2.0671,-1.911,-1.7538,-1.6492,-1.5555,-1.4838,-1.4212,-1.3797,-1.3586,-1.3607,-1.3607,-1.3607,-1.3607,-1.3607,-1.3607,-1.3558,-1.3515,-1.3471,-1.3374,-1.3211,-1.3096,-1.3004,-1.2955,-1.2901,-1.2389,-1.1788,-1.0781,-0.9777,-0.8974,-0.8069,-0.7264,-0.6256,-0.5148,-0.3838,-0.2524,-0.1515,-0.0505,0.0404,0.1212,0.1919,-6.857,-6.8071,-6.738,-6.7044,-6.6939,-6.595,-6.5159,-6.4601,-6.3878,-6.3139,-6.2497,-6.1647,-6.0383,-5.9207,-5.7954,-5.6829,-5.5772,-5.4824,-5.3925,-5.3078,-5.1998,-5.116,-5.04,-4.9721,-4.8609,-4.7248,-4.5783,-4.444,-4.2909,-4.2119,-4.1433,-4.0885,-4.0743,-4.0612,-4.0114,-3.9862,-3.9698,-3.9068,-3.8735,-3.8382,-3.7678,-3.6862,-3.5614,-3.4102,-3.2443,-3.0773,-2.9192,-2.8012,-2.7337,-2.6759,-2.6412,-2.6412,-2.6455,-2.6552,-2.6605,-2.6681,-2.6778,-2.6885,-2.6815,-2.6815,-2.6847,-2.6847,-2.6847,-2.6426,-2.5604,-2.4986,-2.4574,-2.4048,-2.3738,-2.3531,-2.3428,-2.3117,-2.2599,-2.1873,-2.1145,-2.0208,-1.8536,-1.6965,-1.6124,-1.5283,-1.4657,-1.4135,-1.3819,-1.3607,-1.3607,-1.3607,-1.3607,-1.3607,-1.3607,-1.3607,-1.3586,-1.3558,-1.3526,-1.3406,-1.3276,-1.3167,-1.3075,-1.2881,-1.2732,-1.2104,-1.1387,-1.0279,-0.9376,-0.8467,-0.7663,-0.6858,-0.5753,-0.4543,-0.3231,-0.202,-0.101,-0.0101,0.0909,0.1717,0.2423,-6.6918,-6.6629,-6.6828,-6.6738,-6.6211,-6.5634,-6.5,-6.4225,-6.3716,-6.3073,-6.2252,-6.1509,-6.0515,-5.9048,-5.7691,-5.6494,-5.5449,-5.4416,-5.3678,-5.3018,-5.1496,-5.0823,-5.0061,-4.9124,-4.7854,-4.6483,-4.5116,-4.3785,-4.2604,-4.1885,-4.1392,-4.112,-4.062,-4.0503,-4.0243,-4.0034,-3.9802,-3.926,-3.8937,-3.8625,-3.7898,-3.6975,-3.5854,-3.4308,-3.2628,-3.0938,-2.954,-2.8325,-2.7523,-2.7014,-2.6676,-2.6756,-2.6756,-2.6778,-2.681,-2.6821,-2.6815,-2.6826,-2.6847,-2.6847,-2.6847,-2.6847,-2.6642,-2.6118,-2.5398,-2.4883,-2.4358,-2.3841,-2.3635,-2.3635,-2.3428,-2.3014,-2.2495,-2.1353,-2.052,-1.9164,-1.7594,-1.644,-1.5388,-1.4762,-1.413,-1.3819,-1.3713,-1.3607,-1.3607,-1.3607,-1.3607,-1.3607,-1.3607,-1.3607,-1.3607,-1.3586,-1.3569,-1.3504,-1.3401,-1.3259,-1.3151,-1.2952,-1.2553,-1.1808,-1.0881,-0.9782,-0.8877,-0.827,-0.7261,-0.6354,-0.5148,-0.4038,-0.2928,-0.1818,-0.0808,0.0202,0.1212,0.2121,0.2726]}]]